Time,TemperatureF,DewpointF,PressureIn,WindDirection,WindDirectionDegrees,WindSpeedMPH,WindSpeedGustMPH,Humidity,HourlyPrecipIn,Conditions,Clouds,dailyrainin,SolarRadiationWatts/m^2,SoftwareType,DateUTC
2013-04-27 00:00:00,66.8,60.1,30.26,ENE,66,5.0,9.0,79,0.00,,---,0.00,0.00,VWS V14.00,2013-04-27 04:00:00,
2013-04-27 00:01:00,66.7,60.0,30.26,ENE,62,3.0,5.0,79,0.00,,---,0.00,0.00,VWS V14.00,2013-04-27 04:01:00,
2013-04-27 00:02:00,66.7,60.0,30.26,ENE,64,4.0,6.0,79,0.00,,---,0.00,0.00,VWS V14.00,2013-04-27 04:02:00,
2013-04-27 00:03:00,66.7,60.0,30.26,ENE,75,4.0,6.0,79,0.00,,---,0.00,0.00,VWS V14.00,2013-04-27 04:03:00,
2013-04-27 00:04:00,66.7,60.0,30.26,ENE,67,4.0,6.0,79,0.00,,---,0.00,0.00,VWS V14.00,2013-04-27 04:04:00,
2013-04-27 00:05:00,66.7,60.3,30.26,ENE,74,4.0,6.0,80,0.00,,---,0.00,0.00,VWS V14.00,2013-04-27 04:05:00,
2013-04-27 00:06:00,66.8,60.4,30.26,NE,55,5.0,7.0,80,0.00,,---,0.00,0.00,VWS V14.00,2013-04-27 04:06:00,
2013-04-27 00:07:00,66.8,60.1,30.26,NE,56,5.0,7.0,79,0.00,,---,0.00,0.00,VWS V14.00,2013-04-27 04:07:00,
2013-04-27 00:08:00,66.8,60.1,30.26,ENE,64,5.0,7.0,79,0.00,,---,0.00,0.00,VWS V14.00,2013-04-27 04:08:00,
2013-04-27 00:09:00,66.8,60.4,30.26,East,83,4.0,7.0,80,0.00,,---,0.00,0.00,VWS V14.00,2013-04-27 04:09:00,
2013-04-27 00:10:00,66.8,60.1,30.25,NE,54,6.0,7.0,79,0.00,,---,0.00,0.00,VWS V14.00,2013-04-27 04:10:00,
2013-04-27 00:11:00,66.8,60.1,30.25,ENE,77,6.0,9.0,79,0.00,,---,0.00,0.00,VWS V14.00,2013-04-27 04:11:00,
2013-04-27 00:12:00,66.8,59.7,30.25,ENE,77,6.0,9.0,78,0.00,,---,0.00,0.00,VWS V14.00,2013-04-27 04:12:00,
2013-04-27 00:13:00,66.8,60.1,30.25,ENE,67,4.0,9.0,79,0.00,,---,0.00,0.00,VWS V14.00,2013-04-27 04:13:00,
2013-04-27 00:14:00,66.8,60.1,30.25,ENE,72,8.0,9.0,79,0.00,,---,0.00,0.00,VWS V14.00,2013-04-27 04:14:00,
2013-04-27 00:15:00,66.8,59.7,30.25,East,83,7.0,9.0,78,0.00,,---,0.00,0.00,VWS V14.00,2013-04-27 04:15:00,
2013-04-27 00:16:00,66.8,60.1,30.25,East,83,3.0,9.0,79,0.00,,---,0.00,0.00,VWS V14.00,2013-04-27 04:16:00,
2013-04-27 00:17:00,66.8,60.1,30.25,ENE,69,5.0,9.0,79,0.00,,---,0.00,0.00,VWS V14.00,2013-04-27 04:17:00,
2013-04-27 00:18:00,66.8,60.1,30.25,ENE,68,5.0,9.0,79,0.00,,---,0.00,0.00,VWS V14.00,2013-04-27 04:18:00,
2013-04-27 00:19:00,66.9,60.2,30.25,ENE,72,4.0,9.0,79,0.00,,---,0.00,0.00,VWS V14.00,2013-04-27 04:19:00,
2013-04-27 00:20:00,66.9,60.2,30.25,East,82,5.0,9.0,79,0.00,,---,0.00,0.00,VWS V14.00,2013-04-27 04:20:00,
2013-04-27 00:21:00,66.9,60.2,30.25,East,81,4.0,9.0,79,0.00,,---,0.00,0.00,VWS V14.00,2013-04-27 04:21:00,
2013-04-27 00:22:00,66.9,60.2,30.25,East,81,4.0,9.0,79,0.00,,---,0.00,0.00,VWS V14.00,2013-04-27 04:22:00,
2013-04-27 00:23:00,66.9,60.2,30.25,East,81,4.0,9.0,79,0.00,,---,0.00,0.00,VWS V14.00,2013-04-27 04:23:00,
2013-04-27 00:24:00,66.9,60.2,30.25,East,81,7.0,9.0,79,0.00,,---,0.00,0.00,VWS V14.00,2013-04-27 04:24:00,
2013-04-27 00:25:00,66.9,60.2,30.25,ENE,69,5.0,9.0,79,0.00,,---,0.00,0.00,VWS V14.00,2013-04-27 04:25:00,
2013-04-27 00:26:00,66.8,59.7,30.25,ENE,70,5.0,9.0,78,0.00,,---,0.00,0.00,VWS V14.00,2013-04-27 04:26:00,
2013-04-27 00:27:00,66.8,60.1,30.25,ENE,70,3.0,9.0,79,0.00,,---,0.00,0.00,VWS V14.00,2013-04-27 04:27:00,
2013-04-27 00:28:00,66.8,59.7,30.25,ENE,70,2.0,9.0,78,0.00,,---,0.00,0.00,VWS V14.00,2013-04-27 04:28:00,
2013-04-27 00:29:00,66.8,59.7,30.25,ENE,70,1.0,9.0,78,0.00,,---,0.00,0.00,VWS V14.00,2013-04-27 04:29:00,
2013-04-27 00:30:00,66.8,60.1,30.25,ENE,70,2.0,9.0,79,0.00,,---,0.00,0.00,VWS V14.00,2013-04-27 04:30:00,
2013-04-27 00:31:00,66.8,60.1,30.25,East,87,4.0,4.0,79,0.00,,---,0.00,0.00,VWS V14.00,2013-04-27 04:31:00,
2013-04-27 00:32:00,66.8,60.1,30.25,East,88,3.0,6.0,79,0.00,,---,0.00,0.00,VWS V14.00,2013-04-27 04:32:00,
2013-04-27 00:33:00,66.8,60.1,30.25,East,88,3.0,6.0,79,0.00,,---,0.00,0.00,VWS V14.00,2013-04-27 04:33:00,
2013-04-27 00:34:00,66.8,59.7,30.25,East,88,5.0,7.0,78,0.00,,---,0.00,0.00,VWS V14.00,2013-04-27 04:34:00,
2013-04-27 00:35:00,66.8,60.1,30.25,ESE,106,5.0,7.0,79,0.00,,---,0.00,0.00,VWS V14.00,2013-04-27 04:35:00,
2013-04-27 00:36:00,66.8,59.7,30.25,East,87,5.0,7.0,78,0.00,,---,0.00,0.00,VWS V14.00,2013-04-27 04:36:00,
2013-04-27 00:37:00,66.9,60.2,30.25,East,79,5.0,7.0,79,0.00,,---,0.00,0.00,VWS V14.00,2013-04-27 04:37:00,
2013-04-27 00:38:00,66.9,60.2,30.24,East,83,3.0,7.0,79,0.00,,---,0.00,0.00,VWS V14.00,2013-04-27 04:38:00,
2013-04-27 00:39:00,66.9,60.2,30.24,East,83,5.0,7.0,79,0.00,,---,0.00,0.00,VWS V14.00,2013-04-27 04:39:00,
2013-04-27 00:40:00,66.9,59.8,30.24,East,81,3.0,7.0,78,0.00,,---,0.00,0.00,VWS V14.00,2013-04-27 04:40:00,
2013-04-27 00:41:00,66.9,59.8,30.24,East,81,7.0,7.0,78,0.00,,---,0.00,0.00,VWS V14.00,2013-04-27 04:41:00,
2013-04-27 00:42:00,67.0,59.9,30.24,East,79,6.0,7.0,78,0.00,,---,0.00,0.00,VWS V14.00,2013-04-27 04:42:00,
2013-04-27 00:43:00,66.9,59.8,30.24,East,79,5.0,7.0,78,0.00,,---,0.00,0.00,VWS V14.00,2013-04-27 04:43:00,
2013-04-27 00:44:00,67.0,59.9,30.24,ENE,78,3.0,7.0,78,0.00,,---,0.00,0.00,VWS V14.00,2013-04-27 04:44:00,
2013-04-27 00:45:00,67.0,59.9,30.24,ENE,78,4.0,7.0,78,0.00,,---,0.00,0.00,VWS V14.00,2013-04-27 04:45:00,
2013-04-27 00:46:00,67.0,59.9,30.24,ENE,78,4.0,7.0,78,0.00,,---,0.00,0.00,VWS V14.00,2013-04-27 04:46:00,
2013-04-27 00:47:00,67.0,59.9,30.24,ENE,78,2.0,7.0,78,0.00,,---,0.00,0.00,VWS V14.00,2013-04-27 04:47:00,
2013-04-27 00:48:00,67.0,59.9,30.24,East,79,2.0,7.0,78,0.00,,---,0.00,0.00,VWS V14.00,2013-04-27 04:48:00,
2013-04-27 00:49:00,67.0,59.9,30.24,ENE,78,2.0,7.0,78,0.00,,---,0.00,0.00,VWS V14.00,2013-04-27 04:49:00,
2013-04-27 00:50:00,67.0,59.9,30.24,ENE,78,3.0,7.0,78,0.00,,---,0.00,0.00,VWS V14.00,2013-04-27 04:50:00,
2013-04-27 00:51:00,66.9,59.8,30.24,ENE,78,0.0,7.0,78,0.00,,---,0.00,0.00,VWS V14.00,2013-04-27 04:51:00,
2013-04-27 00:52:00,66.9,59.8,30.24,ENE,78,2.0,7.0,78,0.00,,---,0.00,0.00,VWS V14.00,2013-04-27 04:52:00,
2013-04-27 00:53:00,66.9,59.8,30.24,ENE,78,4.0,7.0,78,0.00,,---,0.00,0.00,VWS V14.00,2013-04-27 04:53:00,
2013-04-27 00:54:00,66.9,59.8,30.24,ENE,78,2.0,7.0,78,0.00,,---,0.00,0.00,VWS V14.00,2013-04-27 04:54:00,
2013-04-27 00:55:00,66.9,59.8,30.24,ENE,78,2.0,7.0,78,0.00,,---,0.00,0.00,VWS V14.00,2013-04-27 04:55:00,
2013-04-27 00:56:00,66.9,60.2,30.24,ENE,78,3.0,7.0,79,0.00,,---,0.00,0.00,VWS V14.00,2013-04-27 04:56:00,
2013-04-27 00:57:00,66.9,59.8,30.24,ENE,78,3.0,7.0,78,0.00,,---,0.00,0.00,VWS V14.00,2013-04-27 04:57:00,
2013-04-27 00:58:00,66.9,59.8,30.24,ENE,78,2.0,7.0,78,0.00,,---,0.00,0.00,VWS V14.00,2013-04-27 04:58:00,
2013-04-27 00:59:00,66.8,59.7,30.24,ENE,78,3.0,7.0,78,0.00,,---,0.00,0.00,VWS V14.00,2013-04-27 04:59:00,
2013-04-27 01:00:00,66.8,59.7,30.24,ENE,78,3.0,7.0,78,0.00,,---,0.00,0.00,VWS V14.00,2013-04-27 05:00:00,
2013-04-27 01:01:00,66.9,59.8,30.24,ENE,78,4.0,4.0,78,0.00,,---,0.00,0.00,VWS V14.00,2013-04-27 05:01:00,
2013-04-27 01:02:00,66.9,59.8,30.24,ENE,78,3.0,4.0,78,0.00,,---,0.00,0.00,VWS V14.00,2013-04-27 05:02:00,
2013-04-27 01:03:00,66.9,59.8,30.24,ENE,78,3.0,4.0,78,0.00,,---,0.00,0.00,VWS V14.00,2013-04-27 05:03:00,
2013-04-27 01:04:00,66.9,59.8,30.24,ENE,78,3.0,4.0,78,0.00,,---,0.00,0.00,VWS V14.00,2013-04-27 05:04:00,
2013-04-27 01:05:00,66.9,59.8,30.24,ENE,78,2.0,4.0,78,0.00,,---,0.00,0.00,VWS V14.00,2013-04-27 05:05:00,
2013-04-27 01:06:00,66.9,59.8,30.24,ENE,78,2.0,4.0,78,0.00,,---,0.00,0.00,VWS V14.00,2013-04-27 05:06:00,
2013-04-27 01:07:00,66.9,59.8,30.24,ENE,78,3.0,4.0,78,0.00,,---,0.00,0.00,VWS V14.00,2013-04-27 05:07:00,
2013-04-27 01:08:00,66.9,59.8,30.24,ENE,78,4.0,4.0,78,0.00,,---,0.00,0.00,VWS V14.00,2013-04-27 05:08:00,
2013-04-27 01:09:00,66.9,59.8,30.24,ENE,78,3.0,4.0,78,0.00,,---,0.00,0.00,VWS V14.00,2013-04-27 05:09:00,
2013-04-27 01:10:00,66.9,59.8,30.24,ENE,78,4.0,4.0,78,0.00,,---,0.00,0.00,VWS V14.00,2013-04-27 05:10:00,
2013-04-27 01:11:00,66.9,59.8,30.24,ENE,66,5.0,7.0,78,0.00,,---,0.00,0.00,VWS V14.00,2013-04-27 05:11:00,
2013-04-27 01:12:00,67.0,59.9,30.24,ENE,65,4.0,7.0,78,0.00,,---,0.00,0.00,VWS V14.00,2013-04-27 05:12:00,
2013-04-27 01:13:00,67.0,59.9,30.24,ENE,65,3.0,7.0,78,0.00,,---,0.00,0.00,VWS V14.00,2013-04-27 05:13:00,
2013-04-27 01:14:00,67.0,59.9,30.24,ENE,65,3.0,7.0,78,0.00,,---,0.00,0.00,VWS V14.00,2013-04-27 05:14:00,
2013-04-27 01:15:00,67.0,59.9,30.24,ENE,65,4.0,7.0,78,0.00,,---,0.00,0.00,VWS V14.00,2013-04-27 05:15:00,
2013-04-27 01:16:00,67.0,60.3,30.24,ENE,65,4.0,7.0,79,0.00,,---,0.00,0.00,VWS V14.00,2013-04-27 05:16:00,
2013-04-27 01:17:00,67.0,59.9,30.24,ENE,65,4.0,7.0,78,0.00,,---,0.00,0.00,VWS V14.00,2013-04-27 05:17:00,
2013-04-27 01:18:00,67.0,59.9,30.24,ENE,65,3.0,7.0,78,0.00,,---,0.00,0.00,VWS V14.00,2013-04-27 05:18:00,
2013-04-27 01:19:00,67.0,59.9,30.24,ENE,65,3.0,7.0,78,0.00,,---,0.00,0.00,VWS V14.00,2013-04-27 05:19:00,
2013-04-27 01:20:00,67.0,59.9,30.24,ENE,65,4.0,7.0,78,0.00,,---,0.00,0.00,VWS V14.00,2013-04-27 05:20:00,
2013-04-27 01:21:00,67.0,60.3,30.24,ENE,65,4.0,7.0,79,0.00,,---,0.00,0.00,VWS V14.00,2013-04-27 05:21:00,
2013-04-27 01:22:00,67.0,60.3,30.24,ENE,65,4.0,7.0,79,0.00,,---,0.00,0.00,VWS V14.00,2013-04-27 05:22:00,
2013-04-27 01:23:00,67.0,59.9,30.24,ENE,65,4.0,7.0,78,0.00,,---,0.00,0.00,VWS V14.00,2013-04-27 05:23:00,
2013-04-27 01:24:00,67.0,60.3,30.24,ENE,64,4.0,7.0,79,0.00,,---,0.00,0.00,VWS V14.00,2013-04-27 05:24:00,
2013-04-27 01:25:00,66.9,60.2,30.24,ENE,64,4.0,7.0,79,0.00,,---,0.00,0.00,VWS V14.00,2013-04-27 05:25:00,
2013-04-27 01:26:00,66.9,60.2,30.24,ENE,64,5.0,7.0,79,0.00,,---,0.00,0.00,VWS V14.00,2013-04-27 05:26:00,
2013-04-27 01:27:00,66.9,60.2,30.24,ENE,64,4.0,7.0,79,0.00,,---,0.00,0.00,VWS V14.00,2013-04-27 05:27:00,
2013-04-27 01:28:00,66.9,60.5,30.24,ENE,64,4.0,7.0,80,0.00,,---,0.00,0.00,VWS V14.00,2013-04-27 05:28:00,
2013-04-27 01:29:00,66.9,60.2,30.24,ENE,64,3.0,7.0,79,0.00,,---,0.00,0.00,VWS V14.00,2013-04-27 05:29:00,
2013-04-27 01:30:00,66.8,60.4,30.24,ENE,64,4.0,7.0,80,0.00,,---,0.00,0.00,VWS V14.00,2013-04-27 05:30:00,
2013-04-27 01:31:00,66.8,60.4,30.24,ENE,64,3.0,4.0,80,0.00,,---,0.00,0.00,VWS V14.00,2013-04-27 05:31:00,
2013-04-27 01:32:00,66.7,60.3,30.24,ENE,64,3.0,4.0,80,0.00,,---,0.00,0.00,VWS V14.00,2013-04-27 05:32:00,
2013-04-27 01:33:00,66.7,60.0,30.24,ENE,64,4.0,5.0,79,0.00,,---,0.00,0.00,VWS V14.00,2013-04-27 05:33:00,
2013-04-27 01:34:00,66.7,60.0,30.24,ENE,64,4.0,5.0,79,0.00,,---,0.00,0.00,VWS V14.00,2013-04-27 05:34:00,
2013-04-27 01:35:00,66.6,60.2,30.24,ENE,64,5.0,5.0,80,0.00,,---,0.00,0.00,VWS V14.00,2013-04-27 05:35:00,
2013-04-27 01:36:00,66.6,59.9,30.24,ENE,64,5.0,5.0,79,0.00,,---,0.00,0.00,VWS V14.00,2013-04-27 05:36:00,
2013-04-27 01:37:00,66.6,59.9,30.24,ENE,64,3.0,5.0,79,0.00,,---,0.00,0.00,VWS V14.00,2013-04-27 05:37:00,
2013-04-27 01:38:00,66.5,59.8,30.24,ENE,63,5.0,6.0,79,0.00,,---,0.00,0.00,VWS V14.00,2013-04-27 05:38:00,
2013-04-27 01:39:00,66.4,59.7,30.24,ENE,63,4.0,6.0,79,0.00,,---,0.00,0.00,VWS V14.00,2013-04-27 05:39:00,
2013-04-27 01:40:00,66.4,59.7,30.24,ENE,63,4.0,6.0,79,0.00,,---,0.00,0.00,VWS V14.00,2013-04-27 05:40:00,
2013-04-27 01:41:00,66.4,60.0,30.23,ENE,63,3.0,6.0,80,0.00,,---,0.00,0.00,VWS V14.00,2013-04-27 05:41:00,
2013-04-27 01:42:00,66.3,60.0,30.23,ENE,63,5.0,6.0,80,0.00,,---,0.00,0.00,VWS V14.00,2013-04-27 05:42:00,
2013-04-27 01:43:00,66.3,60.0,30.23,ENE,63,4.0,6.0,80,0.00,,---,0.00,0.00,VWS V14.00,2013-04-27 05:43:00,
2013-04-27 01:44:00,66.3,60.0,30.23,ENE,63,3.0,6.0,80,0.00,,---,0.00,0.00,VWS V14.00,2013-04-27 05:44:00,
2013-04-27 01:45:00,66.3,60.0,30.23,ENE,63,3.0,6.0,80,0.00,,---,0.00,0.00,VWS V14.00,2013-04-27 05:45:00,
2013-04-27 01:46:00,66.3,60.0,30.23,ENE,63,4.0,6.0,80,0.00,,---,0.00,0.00,VWS V14.00,2013-04-27 05:46:00,
2013-04-27 01:47:00,66.3,60.0,30.23,ENE,63,5.0,6.0,80,0.00,,---,0.00,0.00,VWS V14.00,2013-04-27 05:47:00,
2013-04-27 01:48:00,66.2,59.9,30.23,ENE,63,2.0,6.0,80,0.00,,---,0.00,0.00,VWS V14.00,2013-04-27 05:48:00,
2013-04-27 01:49:00,66.3,60.3,30.23,ENE,63,3.0,6.0,81,0.00,,---,0.00,0.00,VWS V14.00,2013-04-27 05:49:00,
2013-04-27 01:50:00,66.3,60.3,30.23,ENE,63,2.0,6.0,81,0.00,,---,0.00,0.00,VWS V14.00,2013-04-27 05:50:00,
2013-04-27 01:51:00,66.2,59.9,30.23,ENE,63,3.0,6.0,80,0.00,,---,0.00,0.00,VWS V14.00,2013-04-27 05:51:00,
2013-04-27 01:52:00,66.2,59.9,30.23,ENE,63,2.0,6.0,80,0.00,,---,0.00,0.00,VWS V14.00,2013-04-27 05:52:00,
2013-04-27 01:53:00,66.2,59.9,30.23,ENE,63,2.0,6.0,80,0.00,,---,0.00,0.00,VWS V14.00,2013-04-27 05:53:00,
2013-04-27 01:54:00,66.2,60.2,30.22,ENE,63,2.0,6.0,81,0.00,,---,0.00,0.00,VWS V14.00,2013-04-27 05:54:00,
2013-04-27 01:55:00,66.2,59.9,30.22,ENE,63,2.0,6.0,80,0.00,,---,0.00,0.00,VWS V14.00,2013-04-27 05:55:00,
2013-04-27 01:56:00,66.2,59.9,30.22,ENE,63,1.0,6.0,80,0.00,,---,0.00,0.00,VWS V14.00,2013-04-27 05:56:00,
2013-04-27 01:57:00,66.2,59.9,30.22,ENE,63,2.0,6.0,80,0.00,,---,0.00,0.00,VWS V14.00,2013-04-27 05:57:00,
2013-04-27 01:58:00,66.2,60.2,30.22,ENE,63,3.0,6.0,81,0.00,,---,0.00,0.00,VWS V14.00,2013-04-27 05:58:00,
2013-04-27 01:59:00,66.3,60.3,30.23,ENE,63,2.0,6.0,81,0.00,,---,0.00,0.00,VWS V14.00,2013-04-27 05:59:00,
2013-04-27 02:00:00,66.2,59.9,30.22,ENE,63,3.0,6.0,80,0.00,,---,0.00,0.00,VWS V14.00,2013-04-27 06:00:00,
2013-04-27 02:01:00,66.2,59.9,30.23,ENE,63,4.0,4.0,80,0.00,,---,0.00,0.00,VWS V14.00,2013-04-27 06:01:00,
2013-04-27 02:02:00,66.2,59.9,30.23,ENE,63,4.0,4.0,80,0.00,,---,0.00,0.00,VWS V14.00,2013-04-27 06:02:00,
2013-04-27 02:03:00,66.2,60.2,30.23,ENE,63,5.0,5.0,81,0.00,,---,0.00,0.00,VWS V14.00,2013-04-27 06:03:00,
2013-04-27 02:04:00,66.2,60.2,30.23,ENE,63,4.0,5.0,81,0.00,,---,0.00,0.00,VWS V14.00,2013-04-27 06:04:00,
2013-04-27 02:05:00,66.3,60.3,30.22,ENE,63,4.0,5.0,81,0.00,,---,0.00,0.00,VWS V14.00,2013-04-27 06:05:00,
2013-04-27 02:06:00,66.3,60.3,30.23,ENE,63,4.0,5.0,81,0.00,,---,0.00,0.00,VWS V14.00,2013-04-27 06:06:00,
2013-04-27 02:07:00,66.2,60.2,30.22,ENE,63,3.0,5.0,81,0.00,,---,0.00,0.00,VWS V14.00,2013-04-27 06:07:00,
2013-04-27 02:08:00,66.2,60.2,30.23,ENE,63,4.0,5.0,81,0.00,,---,0.00,0.00,VWS V14.00,2013-04-27 06:08:00,
2013-04-27 02:09:00,66.2,60.2,30.23,ENE,63,4.0,5.0,81,0.00,,---,0.00,0.00,VWS V14.00,2013-04-27 06:09:00,
2013-04-27 02:10:00,66.2,60.2,30.23,ENE,63,3.0,5.0,81,0.00,,---,0.00,0.00,VWS V14.00,2013-04-27 06:10:00,
2013-04-27 02:11:00,66.2,60.2,30.23,ENE,63,3.0,5.0,81,0.00,,---,0.00,0.00,VWS V14.00,2013-04-27 06:11:00,
2013-04-27 02:12:00,66.1,60.1,30.23,ENE,63,3.0,5.0,81,0.00,,---,0.00,0.00,VWS V14.00,2013-04-27 06:12:00,
2013-04-27 02:13:00,66.1,60.1,30.23,ENE,63,3.0,5.0,81,0.00,,---,0.00,0.00,VWS V14.00,2013-04-27 06:13:00,
2013-04-27 02:14:00,66.1,60.1,30.23,ENE,63,3.0,5.0,81,0.00,,---,0.00,0.00,VWS V14.00,2013-04-27 06:14:00,
2013-04-27 02:15:00,66.1,60.1,30.23,ENE,63,3.0,5.0,81,0.00,,---,0.00,0.00,VWS V14.00,2013-04-27 06:15:00,
2013-04-27 02:16:00,66.1,60.1,30.23,ENE,63,2.0,5.0,81,0.00,,---,0.00,0.00,VWS V14.00,2013-04-27 06:16:00,
2013-04-27 02:17:00,66.0,60.3,30.23,ENE,63,3.0,5.0,82,0.00,,---,0.00,0.00,VWS V14.00,2013-04-27 06:17:00,
2013-04-27 02:18:00,66.0,60.0,30.23,ENE,63,3.0,5.0,81,0.00,,---,0.00,0.00,VWS V14.00,2013-04-27 06:18:00,
2013-04-27 02:19:00,66.0,60.3,30.22,ENE,63,2.0,5.0,82,0.00,,---,0.00,0.00,VWS V14.00,2013-04-27 06:19:00,
2013-04-27 02:20:00,66.0,60.3,30.22,ENE,63,3.0,5.0,82,0.00,,---,0.00,0.00,VWS V14.00,2013-04-27 06:20:00,
2013-04-27 02:21:00,66.0,60.3,30.22,ENE,63,2.0,5.0,82,0.00,,---,0.00,0.00,VWS V14.00,2013-04-27 06:21:00,
2013-04-27 02:22:00,66.0,60.3,30.22,ENE,63,3.0,5.0,82,0.00,,---,0.00,0.00,VWS V14.00,2013-04-27 06:22:00,
2013-04-27 02:23:00,65.9,60.3,30.22,ENE,63,1.0,5.0,82,0.00,,---,0.00,0.00,VWS V14.00,2013-04-27 06:23:00,
2013-04-27 02:24:00,65.9,59.9,30.22,ENE,63,3.0,5.0,81,0.00,,---,0.00,0.00,VWS V14.00,2013-04-27 06:24:00,
2013-04-27 02:25:00,65.9,60.3,30.22,ENE,63,3.0,5.0,82,0.00,,---,0.00,0.00,VWS V14.00,2013-04-27 06:25:00,
2013-04-27 02:26:00,65.9,60.3,30.22,ENE,63,4.0,5.0,82,0.00,,---,0.00,0.00,VWS V14.00,2013-04-27 06:26:00,
2013-04-27 02:27:00,65.9,60.3,30.22,ENE,63,4.0,5.0,82,0.00,,---,0.00,0.00,VWS V14.00,2013-04-27 06:27:00,
2013-04-27 02:28:00,65.9,60.3,30.23,ENE,63,5.0,5.0,82,0.00,,---,0.00,0.00,VWS V14.00,2013-04-27 06:28:00,
2013-04-27 02:29:00,65.8,59.8,30.23,ENE,63,3.0,5.0,81,0.00,,---,0.00,0.00,VWS V14.00,2013-04-27 06:29:00,
2013-04-27 02:30:00,65.8,60.2,30.23,ENE,63,4.0,5.0,82,0.00,,---,0.00,0.00,VWS V14.00,2013-04-27 06:30:00,
2013-04-27 02:31:00,65.8,60.2,30.23,ENE,63,4.0,5.0,82,0.00,,---,0.00,0.00,VWS V14.00,2013-04-27 06:31:00,
2013-04-27 02:32:00,65.8,60.2,30.22,ENE,63,4.0,5.0,82,0.00,,---,0.00,0.00,VWS V14.00,2013-04-27 06:32:00,
2013-04-27 02:33:00,65.8,60.2,30.22,ENE,62,5.0,5.0,82,0.00,,---,0.00,0.00,VWS V14.00,2013-04-27 06:33:00,
2013-04-27 02:34:00,65.7,60.1,30.22,ENE,62,3.0,5.0,82,0.00,,---,0.00,0.00,VWS V14.00,2013-04-27 06:34:00,
2013-04-27 02:35:00,65.7,60.1,30.22,ENE,62,4.0,5.0,82,0.00,,---,0.00,0.00,VWS V14.00,2013-04-27 06:35:00,
2013-04-27 02:36:00,65.7,60.1,30.22,ENE,62,4.0,5.0,82,0.00,,---,0.00,0.00,VWS V14.00,2013-04-27 06:36:00,
2013-04-27 02:37:00,65.7,60.1,30.22,NE,50,4.0,6.0,82,0.00,,---,0.00,0.00,VWS V14.00,2013-04-27 06:37:00,
2013-04-27 02:38:00,65.6,60.0,30.22,NE,50,2.0,6.0,82,0.00,,---,0.00,0.00,VWS V14.00,2013-04-27 06:38:00,
2013-04-27 02:39:00,65.6,60.0,30.22,NE,50,3.0,6.0,82,0.00,,---,0.00,0.00,VWS V14.00,2013-04-27 06:39:00,
2013-04-27 02:40:00,65.6,60.0,30.22,NE,50,4.0,6.0,82,0.00,,---,0.00,0.00,VWS V14.00,2013-04-27 06:40:00,
2013-04-27 02:41:00,65.6,60.3,30.22,NE,50,4.0,6.0,83,0.00,,---,0.00,0.00,VWS V14.00,2013-04-27 06:41:00,
2013-04-27 02:42:00,65.6,60.3,30.22,NE,50,2.0,6.0,83,0.00,,---,0.00,0.00,VWS V14.00,2013-04-27 06:42:00,
2013-04-27 02:43:00,65.6,60.3,30.22,NE,50,2.0,6.0,83,0.00,,---,0.00,0.00,VWS V14.00,2013-04-27 06:43:00,
2013-04-27 02:44:00,65.6,60.3,30.22,NE,50,3.0,6.0,83,0.00,,---,0.00,0.00,VWS V14.00,2013-04-27 06:44:00,
2013-04-27 02:45:00,65.6,60.3,30.22,NE,50,2.0,6.0,83,0.00,,---,0.00,0.00,VWS V14.00,2013-04-27 06:45:00,
2013-04-27 02:46:00,65.5,60.2,30.22,NE,50,2.0,6.0,83,0.00,,---,0.00,0.00,VWS V14.00,2013-04-27 06:46:00,
2013-04-27 02:47:00,65.5,60.2,30.22,NE,50,4.0,6.0,83,0.00,,---,0.00,0.00,VWS V14.00,2013-04-27 06:47:00,
2013-04-27 02:48:00,65.5,60.2,30.22,NE,50,1.0,6.0,83,0.00,,---,0.00,0.00,VWS V14.00,2013-04-27 06:48:00,
2013-04-27 02:49:00,65.5,60.2,30.22,NE,50,2.0,6.0,83,0.00,,---,0.00,0.00,VWS V14.00,2013-04-27 06:49:00,
2013-04-27 02:50:00,65.5,60.2,30.22,NE,50,4.0,6.0,83,0.00,,---,0.00,0.00,VWS V14.00,2013-04-27 06:50:00,
2013-04-27 02:51:00,65.5,60.2,30.22,NE,50,1.0,6.0,83,0.00,,---,0.00,0.00,VWS V14.00,2013-04-27 06:51:00,
2013-04-27 02:52:00,65.5,60.2,30.22,NE,50,0.0,6.0,83,0.00,,---,0.00,0.00,VWS V14.00,2013-04-27 06:52:00,
2013-04-27 02:53:00,65.4,60.1,30.22,NE,50,3.0,6.0,83,0.00,,---,0.00,0.00,VWS V14.00,2013-04-27 06:53:00,
2013-04-27 02:54:00,65.4,60.1,30.22,NE,50,2.0,6.0,83,0.00,,---,0.00,0.00,VWS V14.00,2013-04-27 06:54:00,
2013-04-27 02:55:00,65.4,60.1,30.22,NE,50,2.0,6.0,83,0.00,,---,0.00,0.00,VWS V14.00,2013-04-27 06:55:00,
2013-04-27 02:56:00,65.4,60.1,30.22,NE,50,1.0,6.0,83,0.00,,---,0.00,0.00,VWS V14.00,2013-04-27 06:56:00,
2013-04-27 02:57:00,65.4,60.1,30.22,NE,50,1.0,6.0,83,0.00,,---,0.00,0.00,VWS V14.00,2013-04-27 06:57:00,
2013-04-27 02:58:00,65.4,60.1,30.23,NE,50,3.0,6.0,83,0.00,,---,0.00,0.00,VWS V14.00,2013-04-27 06:58:00,
2013-04-27 02:59:00,65.4,60.1,30.23,NE,50,3.0,6.0,83,0.00,,---,0.00,0.00,VWS V14.00,2013-04-27 06:59:00,
2013-04-27 03:00:00,65.3,60.0,30.23,NE,50,1.0,6.0,83,0.00,,---,0.00,0.00,VWS V14.00,2013-04-27 07:00:00,
2013-04-27 03:01:00,65.3,60.0,30.23,NE,50,1.0,2.0,83,0.00,,---,0.00,0.00,VWS V14.00,2013-04-27 07:01:00,
2013-04-27 03:02:00,65.2,59.9,30.23,NE,50,2.0,2.0,83,0.00,,---,0.00,0.00,VWS V14.00,2013-04-27 07:02:00,
2013-04-27 03:03:00,65.1,59.8,30.23,NE,50,2.0,2.0,83,0.00,,---,0.00,0.00,VWS V14.00,2013-04-27 07:03:00,
2013-04-27 03:04:00,65.0,59.7,30.23,NE,50,2.0,2.0,83,0.00,,---,0.00,0.00,VWS V14.00,2013-04-27 07:04:00,
2013-04-27 03:05:00,65.0,60.0,30.23,NE,50,1.0,2.0,84,0.00,,---,0.00,0.00,VWS V14.00,2013-04-27 07:05:00,
2013-04-27 03:06:00,64.9,60.0,30.23,NE,49,3.0,3.0,84,0.00,,---,0.00,0.00,VWS V14.00,2013-04-27 07:06:00,
2013-04-27 03:07:00,64.9,60.0,30.23,NE,49,1.0,3.0,84,0.00,,---,0.00,0.00,VWS V14.00,2013-04-27 07:07:00,
2013-04-27 03:08:00,64.8,59.9,30.23,NE,49,3.0,3.0,84,0.00,,---,0.00,0.00,VWS V14.00,2013-04-27 07:08:00,
2013-04-27 03:09:00,64.7,59.8,30.23,NE,49,2.0,3.0,84,0.00,,---,0.00,0.00,VWS V14.00,2013-04-27 07:09:00,
2013-04-27 03:10:00,64.7,59.8,30.23,NE,49,1.0,3.0,84,0.00,,---,0.00,0.00,VWS V14.00,2013-04-27 07:10:00,
2013-04-27 03:11:00,64.6,59.7,30.23,NW,316,4.0,4.0,84,0.00,,---,0.00,0.00,VWS V14.00,2013-04-27 07:11:00,
2013-04-27 03:12:00,64.5,59.6,30.23,NW,315,1.0,4.0,84,0.00,,---,0.00,0.00,VWS V14.00,2013-04-27 07:12:00,
2013-04-27 03:13:00,64.4,59.8,30.23,NW,315,2.0,4.0,85,0.00,,---,0.00,0.00,VWS V14.00,2013-04-27 07:13:00,
2013-04-27 03:14:00,64.4,59.8,30.23,NW,315,1.0,4.0,85,0.00,,---,0.00,0.00,VWS V14.00,2013-04-27 07:14:00,
2013-04-27 03:15:00,64.3,59.7,30.23,NW,315,0.0,4.0,85,0.00,,---,0.00,0.00,VWS V14.00,2013-04-27 07:15:00,
2013-04-27 03:16:00,64.2,59.6,30.23,NW,315,0.0,4.0,85,0.00,,---,0.00,0.00,VWS V14.00,2013-04-27 07:16:00,
2013-04-27 03:17:00,64.2,59.6,30.23,NW,315,0.0,4.0,85,0.00,,---,0.00,0.00,VWS V14.00,2013-04-27 07:17:00,
2013-04-27 03:18:00,64.1,59.5,30.23,NW,315,0.0,4.0,85,0.00,,---,0.00,0.00,VWS V14.00,2013-04-27 07:18:00,
2013-04-27 03:19:00,64.0,59.4,30.23,NW,315,0.0,4.0,85,0.00,,---,0.00,0.00,VWS V14.00,2013-04-27 07:19:00,
2013-04-27 03:20:00,64.0,59.4,30.23,NW,315,0.0,4.0,85,0.00,,---,0.00,0.00,VWS V14.00,2013-04-27 07:20:00,
2013-04-27 03:21:00,64.0,59.4,30.23,NW,315,0.0,4.0,85,0.00,,---,0.00,0.00,VWS V14.00,2013-04-27 07:21:00,
2013-04-27 03:22:00,63.9,59.3,30.23,NW,315,1.0,4.0,85,0.00,,---,0.00,0.00,VWS V14.00,2013-04-27 07:22:00,
2013-04-27 03:23:00,63.9,59.3,30.23,NW,315,0.0,4.0,85,0.00,,---,0.00,0.00,VWS V14.00,2013-04-27 07:23:00,
2013-04-27 03:24:00,63.8,59.2,30.23,NW,315,0.0,4.0,85,0.00,,---,0.00,0.00,VWS V14.00,2013-04-27 07:24:00,
2013-04-27 03:25:00,63.8,59.5,30.23,NW,315,0.0,4.0,86,0.00,,---,0.00,0.00,VWS V14.00,2013-04-27 07:25:00,
2013-04-27 03:26:00,63.8,59.5,30.23,NW,315,0.0,4.0,86,0.00,,---,0.00,0.00,VWS V14.00,2013-04-27 07:26:00,
2013-04-27 03:27:00,63.8,59.5,30.23,NW,315,0.0,4.0,86,0.00,,---,0.00,0.00,VWS V14.00,2013-04-27 07:27:00,
2013-04-27 03:28:00,63.7,59.4,30.23,NW,315,0.0,4.0,86,0.00,,---,0.00,0.00,VWS V14.00,2013-04-27 07:28:00,
2013-04-27 03:29:00,63.7,59.4,30.23,NW,315,0.0,4.0,86,0.00,,---,0.00,0.00,VWS V14.00,2013-04-27 07:29:00,
2013-04-27 03:30:00,63.7,59.4,30.23,NW,315,0.0,4.0,86,0.00,,---,0.00,0.00,VWS V14.00,2013-04-27 07:30:00,
2013-04-27 03:31:00,63.7,59.4,30.23,NW,315,0.0,0.0,86,0.00,,---,0.00,0.00,VWS V14.00,2013-04-27 07:31:00,
2013-04-27 03:32:00,63.7,59.4,30.23,NW,315,0.0,0.0,86,0.00,,---,0.00,0.00,VWS V14.00,2013-04-27 07:32:00,
2013-04-27 03:33:00,63.7,59.4,30.23,NW,315,0.0,0.0,86,0.00,,---,0.00,0.00,VWS V14.00,2013-04-27 07:33:00,
2013-04-27 03:34:00,63.7,59.4,30.23,NW,315,0.0,0.0,86,0.00,,---,0.00,0.00,VWS V14.00,2013-04-27 07:34:00,
2013-04-27 03:35:00,63.7,59.4,30.23,NW,315,0.0,0.0,86,0.00,,---,0.00,0.00,VWS V14.00,2013-04-27 07:35:00,
2013-04-27 03:36:00,63.6,59.7,30.23,NW,315,0.0,0.0,87,0.00,,---,0.00,0.00,VWS V14.00,2013-04-27 07:36:00,
2013-04-27 03:37:00,63.6,59.7,30.22,NW,315,0.0,0.0,87,0.00,,---,0.00,0.00,VWS V14.00,2013-04-27 07:37:00,
2013-04-27 03:38:00,63.6,59.7,30.22,NW,315,0.0,0.0,87,0.00,,---,0.00,0.00,VWS V14.00,2013-04-27 07:38:00,
2013-04-27 03:39:00,63.5,59.6,30.22,NW,315,0.0,0.0,87,0.00,,---,0.00,0.00,VWS V14.00,2013-04-27 07:39:00,
2013-04-27 03:40:00,63.5,59.6,30.22,NW,315,0.0,0.0,87,0.00,,---,0.00,0.00,VWS V14.00,2013-04-27 07:40:00,
2013-04-27 03:41:00,63.5,59.6,30.22,NW,315,0.0,0.0,87,0.00,,---,0.00,0.00,VWS V14.00,2013-04-27 07:41:00,
2013-04-27 03:42:00,63.5,59.6,30.22,NW,315,0.0,0.0,87,0.00,,---,0.00,0.00,VWS V14.00,2013-04-27 07:42:00,
2013-04-27 03:43:00,63.5,59.6,30.22,NW,315,0.0,0.0,87,0.00,,---,0.00,0.00,VWS V14.00,2013-04-27 07:43:00,
2013-04-27 03:44:00,63.5,59.6,30.22,NW,315,0.0,0.0,87,0.00,,---,0.00,0.00,VWS V14.00,2013-04-27 07:44:00,
2013-04-27 03:45:00,63.5,59.6,30.22,NW,315,0.0,0.0,87,0.00,,---,0.00,0.00,VWS V14.00,2013-04-27 07:45:00,
2013-04-27 03:46:00,63.5,59.6,30.22,NW,315,0.0,0.0,87,0.00,,---,0.00,0.00,VWS V14.00,2013-04-27 07:46:00,
2013-04-27 03:47:00,63.5,59.6,30.22,NW,315,0.0,0.0,87,0.00,,---,0.00,0.00,VWS V14.00,2013-04-27 07:47:00,
2013-04-27 03:48:00,63.6,59.7,30.22,NW,315,0.0,0.0,87,0.00,,---,0.00,0.00,VWS V14.00,2013-04-27 07:48:00,
2013-04-27 03:49:00,63.5,59.6,30.23,NW,315,0.0,0.0,87,0.00,,---,0.00,0.00,VWS V14.00,2013-04-27 07:49:00,
2013-04-27 03:50:00,63.5,59.6,30.23,NW,315,0.0,0.0,87,0.00,,---,0.00,0.00,VWS V14.00,2013-04-27 07:50:00,
2013-04-27 03:51:00,63.5,59.6,30.22,NW,315,0.0,0.0,87,0.00,,---,0.00,0.00,VWS V14.00,2013-04-27 07:51:00,
2013-04-27 03:52:00,63.5,59.6,30.23,NW,315,0.0,0.0,87,0.00,,---,0.00,0.00,VWS V14.00,2013-04-27 07:52:00,
2013-04-27 03:53:00,63.5,59.6,30.23,NW,315,0.0,0.0,87,0.00,,---,0.00,0.00,VWS V14.00,2013-04-27 07:53:00,
2013-04-27 03:54:00,63.5,59.6,30.23,NW,316,3.0,4.0,87,0.00,,---,0.00,0.00,VWS V14.00,2013-04-27 07:54:00,
2013-04-27 03:55:00,63.5,59.6,30.23,NNW,331,4.0,5.0,87,0.00,,---,0.00,0.00,VWS V14.00,2013-04-27 07:55:00,
2013-04-27 03:56:00,63.5,59.6,30.23,NNW,331,4.0,5.0,87,0.00,,---,0.00,0.00,VWS V14.00,2013-04-27 07:56:00,
2013-04-27 03:57:00,63.5,59.6,30.23,NNW,336,4.0,5.0,87,0.00,,---,0.00,0.00,VWS V14.00,2013-04-27 07:57:00,
2013-04-27 03:58:00,63.6,59.7,30.23,NNW,337,4.0,5.0,87,0.00,,---,0.00,0.00,VWS V14.00,2013-04-27 07:58:00,
2013-04-27 03:59:00,63.5,59.6,30.23,NNW,336,3.0,5.0,87,0.00,,---,0.00,0.00,VWS V14.00,2013-04-27 07:59:00,
2013-04-27 04:00:00,63.6,59.7,30.23,NNW,336,5.0,5.0,87,0.00,,---,0.00,0.00,VWS V14.00,2013-04-27 08:00:00,
2013-04-27 04:01:00,63.6,59.7,30.23,NNW,338,3.0,5.0,87,0.00,,---,0.00,0.00,VWS V14.00,2013-04-27 08:01:00,
2013-04-27 04:02:00,63.6,59.7,30.23,NNW,339,2.0,5.0,87,0.00,,---,0.00,0.00,VWS V14.00,2013-04-27 08:02:00,
2013-04-27 04:03:00,63.6,60.0,30.23,NNW,339,3.0,5.0,88,0.00,,---,0.00,0.00,VWS V14.00,2013-04-27 08:03:00,
2013-04-27 04:04:00,63.7,59.8,30.23,NNW,339,3.0,5.0,87,0.00,,---,0.00,0.00,VWS V14.00,2013-04-27 08:04:00,
2013-04-27 04:05:00,63.7,59.8,30.23,NNW,339,1.0,5.0,87,0.00,,---,0.00,0.00,VWS V14.00,2013-04-27 08:05:00,
2013-04-27 04:06:00,63.7,59.8,30.23,NNW,339,4.0,5.0,87,0.00,,---,0.00,0.00,VWS V14.00,2013-04-27 08:06:00,
2013-04-27 04:07:00,63.7,59.8,30.23,NNW,337,4.0,6.0,87,0.00,,---,0.00,0.00,VWS V14.00,2013-04-27 08:07:00,
2013-04-27 04:08:00,63.7,59.8,30.23,NNW,337,4.0,6.0,87,0.00,,---,0.00,0.00,VWS V14.00,2013-04-27 08:08:00,
2013-04-27 04:09:00,63.7,59.8,30.23,NNW,338,5.0,6.0,87,0.00,,---,0.00,0.00,VWS V14.00,2013-04-27 08:09:00,
2013-04-27 04:10:00,63.6,59.7,30.23,NNW,338,5.0,6.0,87,0.00,,---,0.00,0.00,VWS V14.00,2013-04-27 08:10:00,
2013-04-27 04:11:00,63.6,59.7,30.23,NNW,338,5.0,6.0,87,0.00,,---,0.00,0.00,VWS V14.00,2013-04-27 08:11:00,
2013-04-27 04:12:00,63.6,59.7,30.23,NNW,341,4.0,7.0,87,0.00,,---,0.00,0.00,VWS V14.00,2013-04-27 08:12:00,
2013-04-27 04:13:00,63.5,59.6,30.23,NNW,347,6.0,7.0,87,0.00,,---,0.00,0.00,VWS V14.00,2013-04-27 08:13:00,
2013-04-27 04:14:00,63.5,59.6,30.23,NNW,342,6.0,7.0,87,0.00,,---,0.00,0.00,VWS V14.00,2013-04-27 08:14:00,
2013-04-27 04:15:00,63.5,59.6,30.23,NNW,344,5.0,7.0,87,0.00,,---,0.00,0.00,VWS V14.00,2013-04-27 08:15:00,
2013-04-27 04:16:00,63.5,59.6,30.23,NNW,343,6.0,7.0,87,0.00,,---,0.00,0.00,VWS V14.00,2013-04-27 08:16:00,
2013-04-27 04:17:00,63.5,59.6,30.23,NNW,343,6.0,7.0,87,0.00,,---,0.00,0.00,VWS V14.00,2013-04-27 08:17:00,
2013-04-27 04:18:00,63.4,59.5,30.23,NNW,333,6.0,7.0,87,0.00,,---,0.00,0.00,VWS V14.00,2013-04-27 08:18:00,
2013-04-27 04:19:00,63.4,59.5,30.23,NNW,333,7.0,7.0,87,0.00,,---,0.00,0.00,VWS V14.00,2013-04-27 08:19:00,
2013-04-27 04:20:00,63.4,59.5,30.23,NNW,334,7.0,7.0,87,0.00,,---,0.00,0.00,VWS V14.00,2013-04-27 08:20:00,
2013-04-27 04:21:00,63.3,59.4,30.23,NNW,339,5.0,8.0,87,0.00,,---,0.00,0.00,VWS V14.00,2013-04-27 08:21:00,
2013-04-27 04:22:00,63.3,59.4,30.23,NNW,339,6.0,8.0,87,0.00,,---,0.00,0.00,VWS V14.00,2013-04-27 08:22:00,
2013-04-27 04:23:00,63.3,59.4,30.23,NNW,338,6.0,8.0,87,0.00,,---,0.00,0.00,VWS V14.00,2013-04-27 08:23:00,
2013-04-27 04:24:00,63.3,59.4,30.23,North,350,6.0,8.0,87,0.00,,---,0.00,0.00,VWS V14.00,2013-04-27 08:24:00,
2013-04-27 04:25:00,63.2,59.3,30.23,North,360,5.0,8.0,87,0.00,,---,0.00,0.00,VWS V14.00,2013-04-27 08:25:00,
2013-04-27 04:26:00,63.2,59.0,30.23,North,353,5.0,8.0,86,0.00,,---,0.00,0.00,VWS V14.00,2013-04-27 08:26:00,
2013-04-27 04:27:00,63.2,59.3,30.23,North,352,5.0,8.0,87,0.00,,---,0.00,0.00,VWS V14.00,2013-04-27 08:27:00,
2013-04-27 04:28:00,63.1,59.2,30.23,North,351,6.0,8.0,87,0.00,,---,0.00,0.00,VWS V14.00,2013-04-27 08:28:00,
2013-04-27 04:29:00,63.1,59.2,30.23,North,349,6.0,8.0,87,0.00,,---,0.00,0.00,VWS V14.00,2013-04-27 08:29:00,
2013-04-27 04:30:00,63.1,59.2,30.23,North,356,5.0,8.0,87,0.00,,---,0.00,0.00,VWS V14.00,2013-04-27 08:30:00,
2013-04-27 04:31:00,63.0,58.8,30.23,North,356,5.0,6.0,86,0.00,,---,0.00,0.00,VWS V14.00,2013-04-27 08:31:00,
2013-04-27 04:32:00,63.0,58.8,30.23,North,356,5.0,6.0,86,0.00,,---,0.00,0.00,VWS V14.00,2013-04-27 08:32:00,
2013-04-27 04:33:00,63.0,59.1,30.23,North,356,3.0,6.0,87,0.00,,---,0.00,0.00,VWS V14.00,2013-04-27 08:33:00,
2013-04-27 04:34:00,63.0,59.1,30.23,North,356,4.0,6.0,87,0.00,,---,0.00,0.00,VWS V14.00,2013-04-27 08:34:00,
2013-04-27 04:35:00,63.0,59.1,30.23,North,356,3.0,6.0,87,0.00,,---,0.00,0.00,VWS V14.00,2013-04-27 08:35:00,
2013-04-27 04:36:00,62.9,59.0,30.23,North,356,3.0,6.0,87,0.00,,---,0.00,0.00,VWS V14.00,2013-04-27 08:36:00,
2013-04-27 04:37:00,62.9,59.0,30.23,North,356,3.0,6.0,87,0.00,,---,0.00,0.00,VWS V14.00,2013-04-27 08:37:00,
2013-04-27 04:38:00,62.9,59.0,30.23,North,356,4.0,6.0,87,0.00,,---,0.00,0.00,VWS V14.00,2013-04-27 08:38:00,
2013-04-27 04:39:00,62.9,59.0,30.23,North,356,4.0,6.0,87,0.00,,---,0.00,0.00,VWS V14.00,2013-04-27 08:39:00,
2013-04-27 04:40:00,62.9,59.0,30.23,North,356,3.0,6.0,87,0.00,,---,0.00,0.00,VWS V14.00,2013-04-27 08:40:00,
2013-04-27 04:41:00,62.9,59.0,30.23,North,356,5.0,6.0,87,0.00,,---,0.00,0.00,VWS V14.00,2013-04-27 08:41:00,
2013-04-27 04:42:00,63.0,59.1,30.23,North,356,4.0,6.0,87,0.00,,---,0.00,0.00,VWS V14.00,2013-04-27 08:42:00,
2013-04-27 04:43:00,62.9,59.0,30.23,North,356,3.0,6.0,87,0.00,,---,0.00,0.00,VWS V14.00,2013-04-27 08:43:00,
2013-04-27 04:44:00,62.9,59.0,30.23,North,356,3.0,6.0,87,0.00,,---,0.00,0.00,VWS V14.00,2013-04-27 08:44:00,
2013-04-27 04:45:00,62.9,59.0,30.23,North,356,4.0,6.0,87,0.00,,---,0.00,0.00,VWS V14.00,2013-04-27 08:45:00,
2013-04-27 04:46:00,62.9,59.0,30.23,North,356,4.0,6.0,87,0.00,,---,0.00,0.00,VWS V14.00,2013-04-27 08:46:00,
2013-04-27 04:47:00,62.9,59.0,30.23,North,356,5.0,6.0,87,0.00,,---,0.00,0.00,VWS V14.00,2013-04-27 08:47:00,
2013-04-27 04:48:00,62.9,59.0,30.23,North,356,4.0,6.0,87,0.00,,---,0.00,0.00,VWS V14.00,2013-04-27 08:48:00,
2013-04-27 04:49:00,62.9,59.0,30.23,North,356,2.0,6.0,87,0.00,,---,0.00,0.00,VWS V14.00,2013-04-27 08:49:00,
2013-04-27 04:50:00,62.9,59.0,30.23,North,356,3.0,6.0,87,0.00,,---,0.00,0.00,VWS V14.00,2013-04-27 08:50:00,
2013-04-27 04:51:00,62.9,59.0,30.23,North,356,4.0,6.0,87,0.00,,---,0.00,0.00,VWS V14.00,2013-04-27 08:51:00,
2013-04-27 04:52:00,62.9,59.0,30.23,North,5,4.0,6.0,87,0.00,,---,0.00,0.00,VWS V14.00,2013-04-27 08:52:00,
2013-04-27 04:53:00,62.9,59.0,30.23,North,4,3.0,6.0,87,0.00,,---,0.00,0.00,VWS V14.00,2013-04-27 08:53:00,
2013-04-27 04:54:00,63.0,59.1,30.23,North,4,4.0,6.0,87,0.00,,---,0.00,0.00,VWS V14.00,2013-04-27 08:54:00,
2013-04-27 04:55:00,62.9,59.0,30.23,North,4,0.0,6.0,87,0.00,,---,0.00,0.00,VWS V14.00,2013-04-27 08:55:00,
2013-04-27 04:56:00,62.9,59.0,30.23,North,4,3.0,6.0,87,0.00,,---,0.00,0.00,VWS V14.00,2013-04-27 08:56:00,
2013-04-27 04:57:00,62.9,59.0,30.23,North,4,2.0,6.0,87,0.00,,---,0.00,0.00,VWS V14.00,2013-04-27 08:57:00,
2013-04-27 04:58:00,62.9,59.0,30.23,North,4,4.0,6.0,87,0.00,,---,0.00,0.00,VWS V14.00,2013-04-27 08:58:00,
2013-04-27 04:59:00,62.9,59.0,30.23,North,4,3.0,6.0,87,0.00,,---,0.00,0.00,VWS V14.00,2013-04-27 08:59:00,
2013-04-27 05:00:00,62.9,59.0,30.23,North,4,3.0,6.0,87,0.00,,---,0.00,0.00,VWS V14.00,2013-04-27 09:00:00,
2013-04-27 05:01:00,62.9,59.0,30.22,North,4,2.0,4.0,87,0.00,,---,0.00,0.00,VWS V14.00,2013-04-27 09:01:00,
2013-04-27 05:02:00,63.0,59.1,30.23,North,4,1.0,4.0,87,0.00,,---,0.00,0.00,VWS V14.00,2013-04-27 09:02:00,
2013-04-27 05:03:00,62.9,59.0,30.22,North,4,2.0,4.0,87,0.00,,---,0.00,0.00,VWS V14.00,2013-04-27 09:03:00,
2013-04-27 05:04:00,62.9,59.0,30.22,North,4,0.0,4.0,87,0.00,,---,0.00,0.00,VWS V14.00,2013-04-27 09:04:00,
2013-04-27 05:05:00,63.0,59.1,30.22,North,4,0.0,4.0,87,0.00,,---,0.00,0.00,VWS V14.00,2013-04-27 09:05:00,
2013-04-27 05:06:00,63.0,59.1,30.22,North,4,0.0,4.0,87,0.00,,---,0.00,0.00,VWS V14.00,2013-04-27 09:06:00,
2013-04-27 05:07:00,63.0,59.1,30.22,North,4,0.0,4.0,87,0.00,,---,0.00,0.00,VWS V14.00,2013-04-27 09:07:00,
2013-04-27 05:08:00,63.0,59.1,30.22,North,4,0.0,4.0,87,0.00,,---,0.00,0.00,VWS V14.00,2013-04-27 09:08:00,
2013-04-27 05:09:00,63.0,59.1,30.22,North,4,0.0,4.0,87,0.00,,---,0.00,0.00,VWS V14.00,2013-04-27 09:09:00,
2013-04-27 05:10:00,63.0,59.1,30.22,North,4,0.0,4.0,87,0.00,,---,0.00,0.00,VWS V14.00,2013-04-27 09:10:00,
2013-04-27 05:11:00,63.1,59.2,30.22,North,4,0.0,4.0,87,0.00,,---,0.00,0.00,VWS V14.00,2013-04-27 09:11:00,
2013-04-27 05:12:00,63.1,59.2,30.22,North,4,0.0,4.0,87,0.00,,---,0.00,0.00,VWS V14.00,2013-04-27 09:12:00,
2013-04-27 05:13:00,63.1,59.2,30.22,North,4,0.0,4.0,87,0.00,,---,0.00,0.00,VWS V14.00,2013-04-27 09:13:00,
2013-04-27 05:14:00,63.1,59.2,30.22,North,4,0.0,4.0,87,0.00,,---,0.00,0.00,VWS V14.00,2013-04-27 09:14:00,
2013-04-27 05:15:00,63.2,59.3,30.22,North,4,0.0,4.0,87,0.00,,---,0.00,0.00,VWS V14.00,2013-04-27 09:15:00,
2013-04-27 05:16:00,63.2,59.3,30.22,North,4,0.0,4.0,87,0.00,,---,0.00,0.00,VWS V14.00,2013-04-27 09:16:00,
2013-04-27 05:17:00,63.2,59.3,30.22,North,4,0.0,4.0,87,0.00,,---,0.00,0.00,VWS V14.00,2013-04-27 09:17:00,
2013-04-27 05:18:00,63.2,59.3,30.22,North,4,0.0,4.0,87,0.00,,---,0.00,0.00,VWS V14.00,2013-04-27 09:18:00,
2013-04-27 05:19:00,63.2,59.3,30.22,North,4,0.0,4.0,87,0.00,,---,0.00,0.00,VWS V14.00,2013-04-27 09:19:00,
2013-04-27 05:20:00,63.2,59.3,30.22,North,4,2.0,4.0,87,0.00,,---,0.00,0.00,VWS V14.00,2013-04-27 09:20:00,
2013-04-27 05:21:00,63.2,59.3,30.22,North,4,1.0,4.0,87,0.00,,---,0.00,0.00,VWS V14.00,2013-04-27 09:21:00,
2013-04-27 05:22:00,63.3,59.4,30.22,North,4,1.0,4.0,87,0.00,,---,0.00,0.00,VWS V14.00,2013-04-27 09:22:00,
2013-04-27 05:23:00,63.3,59.4,30.22,North,4,2.0,4.0,87,0.00,,---,0.00,0.00,VWS V14.00,2013-04-27 09:23:00,
2013-04-27 05:24:00,63.3,59.4,30.22,North,4,1.0,4.0,87,0.00,,---,0.00,0.00,VWS V14.00,2013-04-27 09:24:00,
2013-04-27 05:25:00,63.4,59.5,30.22,North,4,0.0,4.0,87,0.00,,---,0.00,0.00,VWS V14.00,2013-04-27 09:25:00,
2013-04-27 05:26:00,63.4,59.5,30.22,North,4,0.0,4.0,87,0.00,,---,0.00,0.00,VWS V14.00,2013-04-27 09:26:00,
2013-04-27 05:27:00,63.4,59.5,30.22,North,4,0.0,4.0,87,0.00,,---,0.00,0.00,VWS V14.00,2013-04-27 09:27:00,
2013-04-27 05:28:00,63.4,59.5,30.22,North,4,2.0,4.0,87,0.00,,---,0.00,0.00,VWS V14.00,2013-04-27 09:28:00,
2013-04-27 05:29:00,63.4,59.2,30.22,North,4,0.0,4.0,86,0.00,,---,0.00,0.00,VWS V14.00,2013-04-27 09:29:00,
2013-04-27 05:30:00,63.5,59.2,30.22,North,4,2.0,4.0,86,0.00,,---,0.00,0.00,VWS V14.00,2013-04-27 09:30:00,
2013-04-27 05:31:00,63.5,59.2,30.22,North,4,3.0,4.0,86,0.00,,---,0.00,0.00,VWS V14.00,2013-04-27 09:31:00,
2013-04-27 05:32:00,63.5,59.2,30.22,North,4,2.0,4.0,86,0.00,,---,0.00,0.00,VWS V14.00,2013-04-27 09:32:00,
2013-04-27 05:33:00,63.5,59.2,30.22,North,4,1.0,4.0,86,0.00,,---,0.00,0.00,VWS V14.00,2013-04-27 09:33:00,
2013-04-27 05:34:00,63.5,59.2,30.22,North,4,1.0,4.0,86,0.00,,---,0.00,0.00,VWS V14.00,2013-04-27 09:34:00,
2013-04-27 05:35:00,63.5,59.2,30.22,North,4,0.0,4.0,86,0.00,,---,0.00,0.00,VWS V14.00,2013-04-27 09:35:00,
2013-04-27 05:36:00,63.5,59.2,30.22,NNE,18,2.0,4.0,86,0.00,,---,0.00,0.00,VWS V14.00,2013-04-27 09:36:00,
2013-04-27 05:37:00,63.5,59.2,30.22,NNE,18,1.0,4.0,86,0.00,,---,0.00,0.00,VWS V14.00,2013-04-27 09:37:00,
2013-04-27 05:38:00,63.5,59.2,30.23,NNE,18,1.0,4.0,86,0.00,,---,0.00,0.00,VWS V14.00,2013-04-27 09:38:00,
2013-04-27 05:39:00,63.5,59.2,30.23,NNE,18,2.0,4.0,86,0.00,,---,0.00,0.00,VWS V14.00,2013-04-27 09:39:00,
2013-04-27 05:40:00,63.6,59.3,30.23,NNE,18,2.0,4.0,86,0.00,,---,0.00,0.00,VWS V14.00,2013-04-27 09:40:00,
2013-04-27 05:41:00,63.6,59.3,30.22,NNE,18,1.0,4.0,86,0.00,,---,0.00,0.00,VWS V14.00,2013-04-27 09:41:00,
2013-04-27 05:42:00,63.6,59.3,30.22,NNE,31,3.0,4.0,86,0.00,,---,0.00,0.00,VWS V14.00,2013-04-27 09:42:00,
2013-04-27 05:43:00,63.6,59.3,30.22,NNE,31,1.0,4.0,86,0.00,,---,0.00,0.00,VWS V14.00,2013-04-27 09:43:00,
2013-04-27 05:44:00,63.6,59.3,30.22,NNE,31,0.0,4.0,86,0.00,,---,0.00,0.00,VWS V14.00,2013-04-27 09:44:00,
2013-04-27 05:45:00,63.6,59.3,30.22,NNE,31,1.0,4.0,86,0.00,,---,0.00,0.00,VWS V14.00,2013-04-27 09:45:00,
2013-04-27 05:46:00,63.6,59.3,30.23,NNE,31,1.0,4.0,86,0.00,,---,0.00,0.00,VWS V14.00,2013-04-27 09:46:00,
2013-04-27 05:47:00,63.7,59.4,30.22,NNE,31,0.0,4.0,86,0.00,,---,0.00,0.00,VWS V14.00,2013-04-27 09:47:00,
2013-04-27 05:48:00,63.7,59.4,30.23,NNE,31,2.0,4.0,86,0.00,,---,0.00,0.00,VWS V14.00,2013-04-27 09:48:00,
2013-04-27 05:49:00,63.7,59.4,30.22,NNE,31,0.0,4.0,86,0.00,,---,0.00,0.00,VWS V14.00,2013-04-27 09:49:00,
2013-04-27 05:50:00,63.7,59.4,30.23,NNE,31,0.0,4.0,86,0.00,,---,0.00,0.00,VWS V14.00,2013-04-27 09:50:00,
2013-04-27 05:51:00,63.7,59.4,30.23,NNE,31,3.0,4.0,86,0.00,,---,0.00,0.00,VWS V14.00,2013-04-27 09:51:00,
2013-04-27 05:52:00,63.7,59.4,30.23,NNE,31,3.0,4.0,86,0.00,,---,0.00,0.00,VWS V14.00,2013-04-27 09:52:00,
2013-04-27 05:53:00,63.7,59.4,30.23,NNE,31,1.0,4.0,86,0.00,,---,0.00,0.00,VWS V14.00,2013-04-27 09:53:00,
2013-04-27 05:54:00,63.7,59.1,30.23,NNE,31,4.0,4.0,85,0.00,,---,0.00,0.00,VWS V14.00,2013-04-27 09:54:00,
2013-04-27 05:55:00,63.8,59.2,30.23,NNE,31,2.0,5.0,85,0.00,,---,0.00,0.00,VWS V14.00,2013-04-27 09:55:00,
2013-04-27 05:56:00,63.8,59.2,30.23,NNE,31,4.0,5.0,85,0.00,,---,0.00,0.00,VWS V14.00,2013-04-27 09:56:00,
2013-04-27 05:57:00,63.7,59.1,30.23,NNE,31,4.0,5.0,85,0.00,,---,0.00,0.00,VWS V14.00,2013-04-27 09:57:00,
2013-04-27 05:58:00,63.8,59.2,30.23,NNE,31,4.0,5.0,85,0.00,,---,0.00,0.00,VWS V14.00,2013-04-27 09:58:00,
2013-04-27 05:59:00,63.8,59.2,30.23,NNE,31,4.0,5.0,85,0.00,,---,0.00,0.00,VWS V14.00,2013-04-27 09:59:00,
2013-04-27 06:00:00,63.8,59.2,30.23,NNE,30,2.0,5.0,85,0.00,,---,0.00,0.00,VWS V14.00,2013-04-27 10:00:00,
2013-04-27 06:01:00,63.8,59.2,30.23,NNE,30,3.0,5.0,85,0.00,,---,0.00,0.00,VWS V14.00,2013-04-27 10:01:00,
2013-04-27 06:02:00,63.8,59.2,30.23,NNE,30,4.0,5.0,85,0.00,,---,0.00,0.00,VWS V14.00,2013-04-27 10:02:00,
2013-04-27 06:03:00,63.8,59.2,30.23,NNE,30,3.0,5.0,85,0.00,,---,0.00,0.00,VWS V14.00,2013-04-27 10:03:00,
2013-04-27 06:04:00,63.8,59.2,30.23,NNE,30,3.0,5.0,85,0.00,,---,0.00,0.00,VWS V14.00,2013-04-27 10:04:00,
2013-04-27 06:05:00,63.8,59.2,30.23,NNE,30,4.0,5.0,85,0.00,,---,0.00,0.00,VWS V14.00,2013-04-27 10:05:00,
2013-04-27 06:06:00,63.8,59.2,30.23,NNE,30,2.0,5.0,85,0.00,,---,0.00,0.00,VWS V14.00,2013-04-27 10:06:00,
2013-04-27 06:07:00,63.8,59.2,30.23,NNE,30,4.0,5.0,85,0.00,,---,0.00,0.00,VWS V14.00,2013-04-27 10:07:00,
2013-04-27 06:08:00,63.8,59.2,30.23,NNE,30,3.0,5.0,85,0.00,,---,0.00,0.00,VWS V14.00,2013-04-27 10:08:00,
2013-04-27 06:09:00,63.7,59.1,30.23,NNE,29,6.0,7.0,85,0.00,,---,0.00,0.00,VWS V14.00,2013-04-27 10:09:00,
2013-04-27 06:10:00,63.7,59.1,30.23,NNE,29,5.0,7.0,85,0.00,,---,0.00,0.00,VWS V14.00,2013-04-27 10:10:00,
2013-04-27 06:11:00,63.7,59.1,30.23,NNE,29,4.0,7.0,85,0.00,,---,0.00,0.00,VWS V14.00,2013-04-27 10:11:00,
2013-04-27 06:12:00,63.7,59.1,30.23,NNE,29,2.0,7.0,85,0.00,,---,0.00,0.00,VWS V14.00,2013-04-27 10:12:00,
2013-04-27 06:13:00,63.6,59.0,30.23,NNE,31,5.0,7.0,85,0.00,,---,0.00,0.00,VWS V14.00,2013-04-27 10:13:00,
2013-04-27 06:14:00,63.6,59.0,30.23,NNE,31,4.0,7.0,85,0.00,,---,0.00,0.00,VWS V14.00,2013-04-27 10:14:00,
2013-04-27 06:15:00,63.6,59.0,30.23,NNE,31,3.0,7.0,85,0.00,,---,0.00,0.00,VWS V14.00,2013-04-27 10:15:00,
2013-04-27 06:16:00,63.6,59.0,30.23,NNE,31,5.0,7.0,85,0.00,,---,0.00,0.00,VWS V14.00,2013-04-27 10:16:00,
2013-04-27 06:17:00,63.6,59.0,30.23,NNE,31,5.0,7.0,85,0.00,,---,0.00,0.00,VWS V14.00,2013-04-27 10:17:00,
2013-04-27 06:18:00,63.6,59.0,30.23,NNE,30,5.0,7.0,85,0.00,,---,0.00,0.00,VWS V14.00,2013-04-27 10:18:00,
2013-04-27 06:19:00,63.6,59.0,30.23,NNE,30,3.0,7.0,85,0.00,,---,0.00,0.00,VWS V14.00,2013-04-27 10:19:00,
2013-04-27 06:20:00,63.6,59.0,30.23,NNE,30,2.0,7.0,85,0.00,,---,0.00,0.00,VWS V14.00,2013-04-27 10:20:00,
2013-04-27 06:21:00,63.6,59.0,30.23,NNE,30,2.0,7.0,85,0.00,,---,0.00,0.00,VWS V14.00,2013-04-27 10:21:00,
2013-04-27 06:22:00,63.6,59.0,30.23,NNE,30,3.0,7.0,85,0.00,,---,0.00,0.00,VWS V14.00,2013-04-27 10:22:00,
2013-04-27 06:23:00,63.6,59.0,30.23,NNE,30,2.0,7.0,85,0.00,,---,0.00,0.00,VWS V14.00,2013-04-27 10:23:00,
2013-04-27 06:24:00,63.6,59.0,30.23,NNE,30,3.0,7.0,85,0.00,,---,0.00,0.00,VWS V14.00,2013-04-27 10:24:00,
2013-04-27 06:25:00,63.6,59.0,30.23,NNE,30,3.0,7.0,85,0.00,,---,0.00,0.00,VWS V14.00,2013-04-27 10:25:00,
2013-04-27 06:26:00,63.6,59.0,30.23,NNE,30,3.0,7.0,85,0.00,,---,0.00,0.00,VWS V14.00,2013-04-27 10:26:00,
2013-04-27 06:27:00,63.6,59.0,30.23,NNE,30,3.0,7.0,85,0.00,,---,0.00,0.00,VWS V14.00,2013-04-27 10:27:00,
2013-04-27 06:28:00,63.6,59.0,30.23,NNE,30,2.0,7.0,85,0.00,,---,0.00,0.00,VWS V14.00,2013-04-27 10:28:00,
2013-04-27 06:29:00,63.6,59.0,30.23,NNE,30,2.0,7.0,85,0.00,,---,0.00,5.00,VWS V14.00,2013-04-27 10:29:00,
2013-04-27 06:30:00,63.6,59.0,30.23,NNE,30,4.0,7.0,85,0.00,,---,0.00,5.00,VWS V14.00,2013-04-27 10:30:00,
2013-04-27 06:31:00,63.6,58.7,30.23,NNE,30,2.0,4.0,84,0.00,,---,0.00,5.00,VWS V14.00,2013-04-27 10:31:00,
2013-04-27 06:32:00,63.6,58.7,30.23,NNE,30,3.0,4.0,84,0.00,,---,0.00,5.00,VWS V14.00,2013-04-27 10:32:00,
2013-04-27 06:33:00,63.6,59.0,30.23,NNE,30,4.0,4.0,85,0.00,,---,0.00,5.00,VWS V14.00,2013-04-27 10:33:00,
2013-04-27 06:34:00,63.6,58.7,30.23,NNE,30,3.0,4.0,84,0.00,,---,0.00,7.00,VWS V14.00,2013-04-27 10:34:00,
2013-04-27 06:35:00,63.7,58.8,30.23,NNE,30,1.0,4.0,84,0.00,,---,0.00,7.00,VWS V14.00,2013-04-27 10:35:00,
2013-04-27 06:36:00,63.7,58.8,30.23,NNE,30,3.0,4.0,84,0.00,,---,0.00,7.00,VWS V14.00,2013-04-27 10:36:00,
2013-04-27 06:37:00,63.7,58.8,30.23,NNE,30,4.0,5.0,84,0.00,,---,0.00,9.00,VWS V14.00,2013-04-27 10:37:00,
2013-04-27 06:38:00,63.7,58.8,30.23,NE,35,5.0,6.0,84,0.00,,---,0.00,9.00,VWS V14.00,2013-04-27 10:38:00,
2013-04-27 06:39:00,63.8,58.9,30.23,NNE,31,5.0,6.0,84,0.00,,---,0.00,11.00,VWS V14.00,2013-04-27 10:39:00,
2013-04-27 06:40:00,63.8,59.2,30.23,NNE,32,4.0,6.0,85,0.00,,---,0.00,12.00,VWS V14.00,2013-04-27 10:40:00,
2013-04-27 06:41:00,63.8,58.9,30.23,NNE,32,4.0,6.0,84,0.00,,---,0.00,12.00,VWS V14.00,2013-04-27 10:41:00,
2013-04-27 06:42:00,63.8,59.2,30.23,NNE,32,2.0,6.0,85,0.00,,---,0.00,14.00,VWS V14.00,2013-04-27 10:42:00,
2013-04-27 06:43:00,63.9,59.0,30.23,NNE,32,2.0,6.0,84,0.00,,---,0.00,14.00,VWS V14.00,2013-04-27 10:43:00,
2013-04-27 06:44:00,63.9,59.0,30.23,NNE,32,3.0,6.0,84,0.00,,---,0.00,16.00,VWS V14.00,2013-04-27 10:44:00,
2013-04-27 06:45:00,63.9,59.0,30.23,NNE,32,3.0,6.0,84,0.00,,---,0.00,19.00,VWS V14.00,2013-04-27 10:45:00,
2013-04-27 06:46:00,63.9,59.0,30.23,NNE,32,3.0,6.0,84,0.00,,---,0.00,21.00,VWS V14.00,2013-04-27 10:46:00,
2013-04-27 06:47:00,64.0,59.1,30.23,NE,40,4.0,6.0,84,0.00,,---,0.00,21.00,VWS V14.00,2013-04-27 10:47:00,
2013-04-27 06:48:00,64.0,59.1,30.23,NE,51,3.0,6.0,84,0.00,,---,0.00,23.00,VWS V14.00,2013-04-27 10:48:00,
2013-04-27 06:49:00,64.0,59.1,30.23,NE,51,5.0,6.0,84,0.00,,---,0.00,25.00,VWS V14.00,2013-04-27 10:49:00,
2013-04-27 06:50:00,64.1,59.2,30.23,NE,51,3.0,6.0,84,0.00,,---,0.00,26.00,VWS V14.00,2013-04-27 10:50:00,
2013-04-27 06:51:00,64.1,59.2,30.23,NE,52,4.0,6.0,84,0.00,,---,0.00,30.00,VWS V14.00,2013-04-27 10:51:00,
2013-04-27 06:52:00,64.1,59.2,30.23,NE,56,5.0,7.0,84,0.00,,---,0.00,32.00,VWS V14.00,2013-04-27 10:52:00,
2013-04-27 06:53:00,64.2,59.3,30.23,NE,56,3.0,7.0,84,0.00,,---,0.00,33.00,VWS V14.00,2013-04-27 10:53:00,
2013-04-27 06:54:00,64.3,59.4,30.23,NE,54,5.0,7.0,84,0.00,,---,0.00,35.00,VWS V14.00,2013-04-27 10:54:00,
2013-04-27 06:55:00,64.3,59.4,30.23,NE,54,4.0,7.0,84,0.00,,---,0.00,39.00,VWS V14.00,2013-04-27 10:55:00,
2013-04-27 06:56:00,64.4,59.5,30.23,NE,54,2.0,7.0,84,0.00,,---,0.00,40.00,VWS V14.00,2013-04-27 10:56:00,
2013-04-27 06:57:00,64.5,59.6,30.23,NE,52,5.0,7.0,84,0.00,,---,0.00,44.00,VWS V14.00,2013-04-27 10:57:00,
2013-04-27 06:58:00,64.5,59.6,30.24,NE,52,5.0,7.0,84,0.00,,---,0.00,46.00,VWS V14.00,2013-04-27 10:58:00,
2013-04-27 06:59:00,64.5,59.6,30.23,NE,51,4.0,7.0,84,0.00,,---,0.00,47.00,VWS V14.00,2013-04-27 10:59:00,
2013-04-27 07:00:00,64.6,59.3,30.24,ENE,66,6.0,7.0,83,0.00,,---,0.00,49.00,VWS V14.00,2013-04-27 11:00:00,
2013-04-27 07:01:00,64.6,59.3,30.23,NE,46,7.0,8.0,83,0.00,,---,0.00,53.00,VWS V14.00,2013-04-27 11:01:00,
2013-04-27 07:02:00,64.7,59.4,30.24,ENE,64,5.0,8.0,83,0.00,,---,0.00,54.00,VWS V14.00,2013-04-27 11:02:00,
2013-04-27 07:03:00,64.8,59.5,30.24,NE,52,5.0,8.0,83,0.00,,---,0.00,58.00,VWS V14.00,2013-04-27 11:03:00,
2013-04-27 07:04:00,64.8,59.5,30.24,ENE,61,3.0,8.0,83,0.00,,---,0.00,62.00,VWS V14.00,2013-04-27 11:04:00,
2013-04-27 07:05:00,64.9,59.6,30.24,NE,49,5.0,8.0,83,0.00,,---,0.00,63.00,VWS V14.00,2013-04-27 11:05:00,
2013-04-27 07:06:00,65.0,59.7,30.24,NE,49,4.0,8.0,83,0.00,,---,0.00,65.00,VWS V14.00,2013-04-27 11:06:00,
2013-04-27 07:07:00,65.1,59.8,30.24,NE,47,6.0,8.0,83,0.00,,---,0.00,69.00,VWS V14.00,2013-04-27 11:07:00,
2013-04-27 07:08:00,65.2,59.9,30.24,NE,40,7.0,8.0,83,0.00,,---,0.00,72.00,VWS V14.00,2013-04-27 11:08:00,
2013-04-27 07:09:00,65.2,59.9,30.24,NE,41,6.0,8.0,83,0.00,,---,0.00,74.00,VWS V14.00,2013-04-27 11:09:00,
2013-04-27 07:10:00,65.3,60.0,30.24,NE,43,4.0,8.0,83,0.00,,---,0.00,74.00,VWS V14.00,2013-04-27 11:10:00,
2013-04-27 07:11:00,65.3,59.7,30.24,NE,43,8.0,9.0,82,0.00,,---,0.00,77.00,VWS V14.00,2013-04-27 11:11:00,
2013-04-27 07:12:00,65.4,59.8,30.24,NE,39,7.0,9.0,82,0.00,,---,0.00,79.00,VWS V14.00,2013-04-27 11:12:00,
2013-04-27 07:13:00,65.4,59.8,30.24,NNE,29,6.0,9.0,82,0.00,,---,0.00,81.00,VWS V14.00,2013-04-27 11:13:00,
2013-04-27 07:14:00,65.4,59.8,30.24,NE,52,6.0,9.0,82,0.00,,---,0.00,86.00,VWS V14.00,2013-04-27 11:14:00,
2013-04-27 07:15:00,65.5,59.9,30.24,NE,54,5.0,9.0,82,0.00,,---,0.00,88.00,VWS V14.00,2013-04-27 11:15:00,
2013-04-27 07:16:00,65.5,59.9,30.24,NE,49,6.0,9.0,82,0.00,,---,0.00,88.00,VWS V14.00,2013-04-27 11:16:00,
2013-04-27 07:17:00,65.6,60.0,30.24,NE,35,5.0,9.0,82,0.00,,---,0.00,90.00,VWS V14.00,2013-04-27 11:17:00,
2013-04-27 07:18:00,65.6,60.0,30.24,NNE,28,6.0,9.0,82,0.00,,---,0.00,90.00,VWS V14.00,2013-04-27 11:18:00,
2013-04-27 07:19:00,65.6,60.0,30.24,NE,47,5.0,9.0,82,0.00,,---,0.00,90.00,VWS V14.00,2013-04-27 11:19:00,
2013-04-27 07:20:00,65.7,60.1,30.24,NE,48,5.0,9.0,82,0.00,,---,0.00,84.00,VWS V14.00,2013-04-27 11:20:00,
2013-04-27 07:21:00,65.7,60.1,30.24,NE,51,7.0,9.0,82,0.00,,---,0.00,83.00,VWS V14.00,2013-04-27 11:21:00,
2013-04-27 07:22:00,65.8,60.2,30.24,NE,55,9.0,10.0,82,0.00,,---,0.00,90.00,VWS V14.00,2013-04-27 11:22:00,
2013-04-27 07:23:00,65.8,59.8,30.24,NE,50,6.0,10.0,81,0.00,,---,0.00,97.00,VWS V14.00,2013-04-27 11:23:00,
2013-04-27 07:24:00,65.9,59.9,30.24,NE,36,5.0,10.0,81,0.00,,---,0.00,98.00,VWS V14.00,2013-04-27 11:24:00,
2013-04-27 07:25:00,66.0,60.3,30.24,NE,55,5.0,10.0,82,0.00,,---,0.00,97.00,VWS V14.00,2013-04-27 11:25:00,
2013-04-27 07:26:00,66.1,60.1,30.24,NE,53,5.0,10.0,81,0.00,,---,0.00,107.00,VWS V14.00,2013-04-27 11:26:00,
2013-04-27 07:27:00,66.1,60.1,30.24,NE,54,6.0,10.0,81,0.00,,---,0.00,109.00,VWS V14.00,2013-04-27 11:27:00,
2013-04-27 07:28:00,66.2,60.2,30.24,NE,54,6.0,10.0,81,0.00,,---,0.00,111.00,VWS V14.00,2013-04-27 11:28:00,
2013-04-27 07:29:00,66.3,60.7,30.24,NE,54,6.0,10.0,82,0.00,,---,0.00,114.00,VWS V14.00,2013-04-27 11:29:00,
2013-04-27 07:30:00,66.4,60.4,30.24,ENE,59,3.0,10.0,81,0.00,,---,0.00,114.00,VWS V14.00,2013-04-27 11:30:00,
2013-04-27 07:31:00,66.5,60.5,30.24,NE,43,3.0,7.0,81,0.00,,---,0.00,114.00,VWS V14.00,2013-04-27 11:31:00,
2013-04-27 07:32:00,66.5,60.8,30.24,ENE,57,5.0,8.0,82,0.00,,---,0.00,118.00,VWS V14.00,2013-04-27 11:32:00,
2013-04-27 07:33:00,66.6,60.6,30.24,NE,53,5.0,8.0,81,0.00,,---,0.00,121.00,VWS V14.00,2013-04-27 11:33:00,
2013-04-27 07:34:00,66.7,60.7,30.24,NE,53,4.0,8.0,81,0.00,,---,0.00,120.00,VWS V14.00,2013-04-27 11:34:00,
2013-04-27 07:35:00,66.8,60.8,30.24,NE,52,6.0,8.0,81,0.00,,---,0.00,121.00,VWS V14.00,2013-04-27 11:35:00,
2013-04-27 07:36:00,66.8,60.8,30.24,NE,49,6.0,8.0,81,0.00,,---,0.00,114.00,VWS V14.00,2013-04-27 11:36:00,
2013-04-27 07:37:00,66.9,60.5,30.24,NE,56,5.0,8.0,80,0.00,,---,0.00,120.00,VWS V14.00,2013-04-27 11:37:00,
2013-04-27 07:38:00,66.9,60.5,30.24,NE,54,4.0,8.0,80,0.00,,---,0.00,120.00,VWS V14.00,2013-04-27 11:38:00,
2013-04-27 07:39:00,67.0,60.6,30.24,ENE,76,4.0,8.0,80,0.00,,---,0.00,120.00,VWS V14.00,2013-04-27 11:39:00,
2013-04-27 07:40:00,67.1,60.7,30.24,ENE,78,4.0,8.0,80,0.00,,---,0.00,123.00,VWS V14.00,2013-04-27 11:40:00,
2013-04-27 07:41:00,67.1,60.7,30.24,East,83,5.0,8.0,80,0.00,,---,0.00,120.00,VWS V14.00,2013-04-27 11:41:00,
2013-04-27 07:42:00,67.2,60.8,30.24,East,89,5.0,8.0,80,0.00,,---,0.00,121.00,VWS V14.00,2013-04-27 11:42:00,
2013-04-27 07:43:00,67.2,60.5,30.24,East,92,7.0,8.0,79,0.00,,---,0.00,120.00,VWS V14.00,2013-04-27 11:43:00,
2013-04-27 07:44:00,67.3,60.6,30.24,East,88,3.0,8.0,79,0.00,,---,0.00,118.00,VWS V14.00,2013-04-27 11:44:00,
2013-04-27 07:45:00,67.4,60.7,30.24,East,97,5.0,8.0,79,0.00,,---,0.00,118.00,VWS V14.00,2013-04-27 11:45:00,
2013-04-27 07:46:00,67.5,61.1,30.24,East,99,6.0,8.0,80,0.00,,---,0.00,134.00,VWS V14.00,2013-04-27 11:46:00,
2013-04-27 07:47:00,67.6,60.9,30.24,East,99,6.0,8.0,79,0.00,,---,0.00,128.00,VWS V14.00,2013-04-27 11:47:00,
2013-04-27 07:48:00,67.7,61.0,30.24,East,89,6.0,8.0,79,0.00,,---,0.00,144.00,VWS V14.00,2013-04-27 11:48:00,
2013-04-27 07:49:00,67.8,61.1,30.24,East,93,2.0,8.0,79,0.00,,---,0.00,155.00,VWS V14.00,2013-04-27 11:49:00,
2013-04-27 07:50:00,68.0,61.2,30.24,East,93,6.0,8.0,79,0.00,,---,0.00,153.00,VWS V14.00,2013-04-27 11:50:00,
2013-04-27 07:51:00,68.1,61.3,30.24,East,92,4.0,8.0,79,0.00,,---,0.00,167.00,VWS V14.00,2013-04-27 11:51:00,
2013-04-27 07:52:00,68.2,61.5,30.24,East,93,5.0,8.0,79,0.00,,---,0.00,169.00,VWS V14.00,2013-04-27 11:52:00,
2013-04-27 07:53:00,68.3,61.2,30.24,East,87,6.0,8.0,78,0.00,,---,0.00,165.00,VWS V14.00,2013-04-27 11:53:00,
2013-04-27 07:54:00,68.4,61.3,30.24,ENE,77,6.0,8.0,78,0.00,,---,0.00,171.00,VWS V14.00,2013-04-27 11:54:00,
2013-04-27 07:55:00,68.5,61.0,30.24,ENE,77,7.0,8.0,77,0.00,,---,0.00,167.00,VWS V14.00,2013-04-27 11:55:00,
2013-04-27 07:56:00,68.6,61.1,30.25,ENE,77,7.0,8.0,77,0.00,,---,0.00,158.00,VWS V14.00,2013-04-27 11:56:00,
2013-04-27 07:57:00,68.7,61.2,30.25,ENE,73,5.0,8.0,77,0.00,,---,0.00,169.00,VWS V14.00,2013-04-27 11:57:00,
2013-04-27 07:58:00,68.8,60.9,30.25,ENE,73,6.0,8.0,76,0.00,,---,0.00,174.00,VWS V14.00,2013-04-27 11:58:00,
2013-04-27 07:59:00,68.9,61.0,30.25,ENE,72,5.0,8.0,76,0.00,,---,0.00,146.00,VWS V14.00,2013-04-27 11:59:00,
2013-04-27 08:00:00,69.0,61.1,30.25,ENE,72,4.0,8.0,76,0.00,,---,0.00,178.00,VWS V14.00,2013-04-27 12:00:00,
2013-04-27 08:01:00,69.1,61.2,30.25,ENE,72,5.0,7.0,76,0.00,,---,0.00,179.00,VWS V14.00,2013-04-27 12:01:00,
2013-04-27 08:02:00,69.1,60.8,30.25,East,79,6.0,7.0,75,0.00,,---,0.00,162.00,VWS V14.00,2013-04-27 12:02:00,
2013-04-27 08:03:00,69.2,61.0,30.25,East,79,5.0,7.0,75,0.00,,---,0.00,185.00,VWS V14.00,2013-04-27 12:03:00,
2013-04-27 08:04:00,69.3,61.4,30.25,East,79,4.0,7.0,76,0.00,,---,0.00,186.00,VWS V14.00,2013-04-27 12:04:00,
2013-04-27 08:05:00,69.3,61.0,30.25,East,79,6.0,7.0,75,0.00,,---,0.00,188.00,VWS V14.00,2013-04-27 12:05:00,
2013-04-27 08:06:00,69.4,61.1,30.25,East,79,5.0,7.0,75,0.00,,---,0.00,186.00,VWS V14.00,2013-04-27 12:06:00,
2013-04-27 08:07:00,69.4,60.8,30.25,East,79,4.0,7.0,74,0.00,,---,0.00,186.00,VWS V14.00,2013-04-27 12:07:00,
2013-04-27 08:08:00,69.5,61.2,30.25,East,79,3.0,7.0,75,0.00,,---,0.00,190.00,VWS V14.00,2013-04-27 12:08:00,
2013-04-27 08:09:00,69.6,61.3,30.25,East,79,3.0,7.0,75,0.00,,---,0.00,190.00,VWS V14.00,2013-04-27 12:09:00,
2013-04-27 08:10:00,69.7,61.4,30.25,East,79,4.0,7.0,75,0.00,,---,0.00,155.00,VWS V14.00,2013-04-27 12:10:00,
2013-04-27 08:11:00,69.7,61.0,30.25,East,79,5.0,7.0,74,0.00,,---,0.00,172.00,VWS V14.00,2013-04-27 12:11:00,
2013-04-27 08:12:00,69.8,61.2,30.25,East,79,2.0,7.0,74,0.00,,---,0.00,162.00,VWS V14.00,2013-04-27 12:12:00,
2013-04-27 08:13:00,69.9,61.2,30.25,East,79,2.0,7.0,74,0.00,,---,0.00,179.00,VWS V14.00,2013-04-27 12:13:00,
2013-04-27 08:14:00,70.0,61.3,30.25,East,79,3.0,7.0,74,0.00,,---,0.00,176.00,VWS V14.00,2013-04-27 12:14:00,
2013-04-27 08:15:00,70.0,61.3,30.25,East,79,2.0,7.0,74,0.00,,---,0.00,169.00,VWS V14.00,2013-04-27 12:15:00,
2013-04-27 08:16:00,70.1,61.0,30.25,NE,53,7.0,7.0,73,0.00,,---,0.00,188.00,VWS V14.00,2013-04-27 12:16:00,
2013-04-27 08:17:00,70.2,61.2,30.25,NE,52,4.0,7.0,73,0.00,,---,0.00,190.00,VWS V14.00,2013-04-27 12:17:00,
2013-04-27 08:18:00,70.2,61.2,30.25,NE,49,6.0,7.0,73,0.00,,---,0.00,195.00,VWS V14.00,2013-04-27 12:18:00,
2013-04-27 08:19:00,70.3,61.6,30.25,ENE,58,7.0,7.0,74,0.00,,---,0.00,190.00,VWS V14.00,2013-04-27 12:19:00,
2013-04-27 08:20:00,70.3,60.9,30.25,NE,43,6.0,7.0,72,0.00,,---,0.00,199.00,VWS V14.00,2013-04-27 12:20:00,
2013-04-27 08:21:00,70.3,61.2,30.25,ENE,64,7.0,10.0,73,0.00,,---,0.00,185.00,VWS V14.00,2013-04-27 12:21:00,
2013-04-27 08:22:00,70.3,60.9,30.25,ENE,60,10.0,11.0,72,0.00,,---,0.00,193.00,VWS V14.00,2013-04-27 12:22:00,
2013-04-27 08:23:00,70.3,60.9,30.25,ENE,57,6.0,11.0,72,0.00,,---,0.00,193.00,VWS V14.00,2013-04-27 12:23:00,
2013-04-27 08:24:00,70.3,60.9,30.25,ENE,58,5.0,11.0,72,0.00,,---,0.00,214.00,VWS V14.00,2013-04-27 12:24:00,
2013-04-27 08:25:00,70.3,61.2,30.25,NE,48,6.0,11.0,73,0.00,,---,0.00,216.00,VWS V14.00,2013-04-27 12:25:00,
2013-04-27 08:26:00,70.3,60.9,30.25,NE,45,8.0,11.0,72,0.00,,---,0.00,218.00,VWS V14.00,2013-04-27 12:26:00,
2013-04-27 08:27:00,70.4,61.0,30.25,ENE,58,6.0,11.0,72,0.00,,---,0.00,220.00,VWS V14.00,2013-04-27 12:27:00,
2013-04-27 08:28:00,70.4,61.0,30.25,ENE,65,5.0,11.0,72,0.00,,---,0.00,221.00,VWS V14.00,2013-04-27 12:28:00,
2013-04-27 08:29:00,70.4,61.3,30.25,ENE,64,5.0,11.0,73,0.00,,---,0.00,223.00,VWS V14.00,2013-04-27 12:29:00,
2013-04-27 08:30:00,70.5,61.0,30.25,NE,50,7.0,11.0,72,0.00,,---,0.00,225.00,VWS V14.00,2013-04-27 12:30:00,
2013-04-27 08:31:00,70.5,61.0,30.25,NNE,31,12.0,12.0,72,0.00,,---,0.00,209.00,VWS V14.00,2013-04-27 12:31:00,
2013-04-27 08:32:00,70.5,60.7,30.25,NE,54,11.0,12.0,71,0.00,,---,0.00,230.00,VWS V14.00,2013-04-27 12:32:00,
2013-04-27 08:33:00,70.6,60.8,30.25,ENE,74,4.0,12.0,71,0.00,,---,0.00,232.00,VWS V14.00,2013-04-27 12:33:00,
2013-04-27 08:34:00,70.6,61.1,30.25,ENE,59,6.0,12.0,72,0.00,,---,0.00,234.00,VWS V14.00,2013-04-27 12:34:00,
2013-04-27 08:35:00,70.7,60.8,30.25,NE,43,9.0,12.0,71,0.00,,---,0.00,236.00,VWS V14.00,2013-04-27 12:35:00,
2013-04-27 08:36:00,70.7,60.8,30.25,NE,55,12.0,16.0,71,0.00,,---,0.00,234.00,VWS V14.00,2013-04-27 12:36:00,
2013-04-27 08:37:00,70.8,60.9,30.25,ENE,62,8.0,16.0,71,0.00,,---,0.00,241.00,VWS V14.00,2013-04-27 12:37:00,
2013-04-27 08:38:00,70.8,60.9,30.25,NE,45,9.0,16.0,71,0.00,,---,0.00,244.00,VWS V14.00,2013-04-27 12:38:00,
2013-04-27 08:39:00,70.8,60.9,30.25,ENE,77,7.0,16.0,71,0.00,,---,0.00,250.00,VWS V14.00,2013-04-27 12:39:00,
2013-04-27 08:40:00,70.9,60.6,30.25,ENE,68,9.0,16.0,70,0.00,,---,0.00,163.00,VWS V14.00,2013-04-27 12:40:00,
2013-04-27 08:41:00,70.9,61.0,30.25,ENE,66,6.0,16.0,71,0.00,,---,0.00,225.00,VWS V14.00,2013-04-27 12:41:00,
2013-04-27 08:42:00,71.0,61.1,30.25,ENE,74,7.0,16.0,71,0.00,,---,0.00,269.00,VWS V14.00,2013-04-27 12:42:00,
2013-04-27 08:43:00,71.0,61.1,30.25,NE,52,12.0,16.0,71,0.00,,---,0.00,153.00,VWS V14.00,2013-04-27 12:43:00,
2013-04-27 08:44:00,71.1,60.8,30.25,ENE,59,11.0,16.0,70,0.00,,---,0.00,195.00,VWS V14.00,2013-04-27 12:44:00,
2013-04-27 08:45:00,71.1,60.8,30.25,ENE,77,11.0,16.0,70,0.00,,---,0.00,171.00,VWS V14.00,2013-04-27 12:45:00,
2013-04-27 08:46:00,71.1,60.4,30.25,ENE,66,7.0,16.0,69,0.00,,---,0.00,262.00,VWS V14.00,2013-04-27 12:46:00,
2013-04-27 08:47:00,71.2,60.9,30.25,NE,53,5.0,16.0,70,0.00,,---,0.00,264.00,VWS V14.00,2013-04-27 12:47:00,
2013-04-27 08:48:00,71.2,60.9,30.25,NE,49,11.0,16.0,70,0.00,,---,0.00,264.00,VWS V14.00,2013-04-27 12:48:00,
2013-04-27 08:49:00,71.3,61.0,30.25,ENE,77,7.0,16.0,70,0.00,,---,0.00,265.00,VWS V14.00,2013-04-27 12:49:00,
2013-04-27 08:50:00,71.4,61.1,30.25,ENE,71,10.0,16.0,70,0.00,,---,0.00,272.00,VWS V14.00,2013-04-27 12:50:00,
2013-04-27 08:51:00,71.5,61.2,30.25,ENE,64,7.0,16.0,70,0.00,,---,0.00,278.00,VWS V14.00,2013-04-27 12:51:00,
2013-04-27 08:52:00,71.5,61.6,30.25,ENE,74,10.0,16.0,71,0.00,,---,0.00,281.00,VWS V14.00,2013-04-27 12:52:00,
2013-04-27 08:53:00,71.6,60.9,30.25,ENE,64,6.0,16.0,69,0.00,,---,0.00,281.00,VWS V14.00,2013-04-27 12:53:00,
2013-04-27 08:54:00,71.6,61.3,30.25,ENE,63,11.0,16.0,70,0.00,,---,0.00,297.00,VWS V14.00,2013-04-27 12:54:00,
2013-04-27 08:55:00,71.7,61.0,30.25,ENE,60,9.0,16.0,69,0.00,,---,0.00,302.00,VWS V14.00,2013-04-27 12:55:00,
2013-04-27 08:56:00,71.7,61.0,30.25,ENE,64,10.0,16.0,69,0.00,,---,0.00,308.00,VWS V14.00,2013-04-27 12:56:00,
2013-04-27 08:57:00,71.8,60.7,30.25,ENE,64,15.0,16.0,68,0.00,,---,0.00,311.00,VWS V14.00,2013-04-27 12:57:00,
2013-04-27 08:58:00,71.8,60.3,30.25,ENE,58,12.0,16.0,67,0.00,,---,0.00,290.00,VWS V14.00,2013-04-27 12:58:00,
2013-04-27 08:59:00,71.8,60.3,30.25,ENE,75,12.0,16.0,67,0.00,,---,0.00,315.00,VWS V14.00,2013-04-27 12:59:00,
2013-04-27 09:00:00,71.8,60.3,30.25,ENE,68,11.0,16.0,67,0.00,,---,0.00,318.00,VWS V14.00,2013-04-27 13:00:00,
2013-04-27 09:01:00,71.8,60.3,30.25,ENE,70,9.0,12.0,67,0.00,,---,0.00,323.00,VWS V14.00,2013-04-27 13:01:00,
2013-04-27 09:02:00,71.9,60.4,30.25,ENE,74,13.0,13.0,67,0.00,,---,0.00,338.00,VWS V14.00,2013-04-27 13:02:00,
2013-04-27 09:03:00,71.9,60.8,30.25,ENE,61,8.0,13.0,68,0.00,,---,0.00,341.00,VWS V14.00,2013-04-27 13:03:00,
2013-04-27 09:04:00,72.0,61.3,30.25,NE,47,9.0,13.0,69,0.00,,---,0.00,345.00,VWS V14.00,2013-04-27 13:04:00,
2013-04-27 09:05:00,72.1,61.0,30.25,ENE,77,13.0,14.0,68,0.00,,---,0.00,322.00,VWS V14.00,2013-04-27 13:05:00,
2013-04-27 09:06:00,72.1,60.5,30.25,ENE,70,11.0,14.0,67,0.00,,---,0.00,338.00,VWS V14.00,2013-04-27 13:06:00,
2013-04-27 09:07:00,72.2,60.7,30.25,East,81,11.0,14.0,67,0.00,,---,0.00,357.00,VWS V14.00,2013-04-27 13:07:00,
2013-04-27 09:08:00,72.2,60.7,30.26,ENE,64,13.0,15.0,67,0.00,,---,0.00,366.00,VWS V14.00,2013-04-27 13:08:00,
2013-04-27 09:09:00,72.3,61.2,30.26,NE,55,10.0,15.0,68,0.00,,---,0.00,369.00,VWS V14.00,2013-04-27 13:09:00,
2013-04-27 09:10:00,72.3,60.7,30.25,ENE,60,9.0,15.0,67,0.00,,---,0.00,373.00,VWS V14.00,2013-04-27 13:10:00,
2013-04-27 09:11:00,72.3,60.7,30.25,NE,49,9.0,15.0,67,0.00,,---,0.00,387.00,VWS V14.00,2013-04-27 13:11:00,
2013-04-27 09:12:00,72.3,60.3,30.26,ENE,59,9.0,15.0,66,0.00,,---,0.00,394.00,VWS V14.00,2013-04-27 13:12:00,
2013-04-27 09:13:00,72.4,60.8,30.26,ENE,60,7.0,15.0,67,0.00,,---,0.00,401.00,VWS V14.00,2013-04-27 13:13:00,
2013-04-27 09:14:00,72.5,61.3,30.26,ENE,74,7.0,15.0,68,0.00,,---,0.00,406.00,VWS V14.00,2013-04-27 13:14:00,
2013-04-27 09:15:00,72.5,60.5,30.26,ENE,62,14.0,15.0,66,0.00,,---,0.00,415.00,VWS V14.00,2013-04-27 13:15:00,
2013-04-27 09:16:00,72.6,60.6,30.26,ENE,71,10.0,15.0,66,0.00,,---,0.00,424.00,VWS V14.00,2013-04-27 13:16:00,
2013-04-27 09:17:00,72.6,61.0,30.26,ENE,65,9.0,15.0,67,0.00,,---,0.00,434.00,VWS V14.00,2013-04-27 13:17:00,
2013-04-27 09:18:00,72.6,60.2,30.26,East,83,9.0,15.0,65,0.00,,---,0.00,438.00,VWS V14.00,2013-04-27 13:18:00,
2013-04-27 09:19:00,72.6,60.2,30.26,ENE,65,10.0,15.0,65,0.00,,---,0.00,420.00,VWS V14.00,2013-04-27 13:19:00,
2013-04-27 09:20:00,72.7,60.7,30.26,ENE,66,11.0,15.0,66,0.00,,---,0.00,376.00,VWS V14.00,2013-04-27 13:20:00,
2013-04-27 09:21:00,72.7,60.7,30.26,ENE,60,10.0,15.0,66,0.00,,---,0.00,441.00,VWS V14.00,2013-04-27 13:21:00,
2013-04-27 09:22:00,72.7,59.8,30.26,ENE,66,13.0,16.0,64,0.00,,---,0.00,454.00,VWS V14.00,2013-04-27 13:22:00,
2013-04-27 09:23:00,72.7,60.3,30.26,NE,47,14.0,16.0,65,0.00,,---,0.00,482.00,VWS V14.00,2013-04-27 13:23:00,
2013-04-27 09:24:00,72.7,60.3,30.26,NE,39,9.0,17.0,65,0.00,,---,0.00,490.00,VWS V14.00,2013-04-27 13:24:00,
2013-04-27 09:25:00,72.6,59.7,30.26,NE,53,12.0,18.0,64,0.00,,---,0.00,492.00,VWS V14.00,2013-04-27 13:25:00,
2013-04-27 09:26:00,72.6,59.7,30.26,ENE,76,13.0,18.0,64,0.00,,---,0.00,494.00,VWS V14.00,2013-04-27 13:26:00,
2013-04-27 09:27:00,72.6,60.6,30.26,NE,56,8.0,18.0,66,0.00,,---,0.00,504.00,VWS V14.00,2013-04-27 13:27:00,
2013-04-27 09:28:00,72.6,60.2,30.26,NE,54,19.0,19.0,65,0.00,,---,0.00,513.00,VWS V14.00,2013-04-27 13:28:00,
2013-04-27 09:29:00,72.6,59.7,30.26,ENE,60,15.0,19.0,64,0.00,,---,0.00,520.00,VWS V14.00,2013-04-27 13:29:00,
2013-04-27 09:30:00,72.6,59.7,30.26,ENE,72,8.0,19.0,64,0.00,,---,0.00,526.00,VWS V14.00,2013-04-27 13:30:00,
2013-04-27 09:31:00,72.6,60.2,30.26,ENE,68,13.0,15.0,65,0.00,,---,0.00,526.00,VWS V14.00,2013-04-27 13:31:00,
2013-04-27 09:32:00,72.7,60.3,30.26,ENE,61,11.0,15.0,65,0.00,,---,0.00,529.00,VWS V14.00,2013-04-27 13:32:00,
2013-04-27 09:36:00,72.8,60.4,30.26,ENE,77,10.0,15.0,65,0.00,,---,0.00,527.00,VWS V14.00,2013-04-27 13:36:00,
2013-04-27 09:37:00,72.8,60.8,30.26,East,81,12.0,15.0,66,0.00,,---,0.00,531.00,VWS V14.00,2013-04-27 13:37:00,
2013-04-27 09:38:00,72.8,59.9,30.26,ENE,64,9.0,15.0,64,0.00,,---,0.00,538.00,VWS V14.00,2013-04-27 13:38:00,
2013-04-27 09:39:00,72.9,60.0,30.26,ENE,60,10.0,15.0,64,0.00,,---,0.00,547.00,VWS V14.00,2013-04-27 13:39:00,
2013-04-27 09:40:00,73.0,60.1,30.26,ENE,60,13.0,15.0,64,0.00,,---,0.00,550.00,VWS V14.00,2013-04-27 13:40:00,
2013-04-27 09:41:00,73.0,60.1,30.26,ENE,60,13.0,15.0,64,0.00,,---,0.00,548.00,VWS V14.00,2013-04-27 13:41:00,
2013-04-27 09:42:00,73.1,60.2,30.26,ENE,69,13.0,16.0,64,0.00,,---,0.00,564.00,VWS V14.00,2013-04-27 13:42:00,
2013-04-27 09:43:00,73.1,59.3,30.26,ENE,58,10.0,16.0,62,0.00,,---,0.00,548.00,VWS V14.00,2013-04-27 13:43:00,
2013-04-27 09:44:00,73.1,59.8,30.26,ENE,58,11.0,16.0,63,0.00,,---,0.00,550.00,VWS V14.00,2013-04-27 13:44:00,
2013-04-27 09:45:00,73.1,60.2,30.26,East,79,12.0,16.0,64,0.00,,---,0.00,559.00,VWS V14.00,2013-04-27 13:45:00,
2013-04-27 09:46:00,73.1,60.2,30.26,ENE,73,17.0,17.0,64,0.00,,---,0.00,568.00,VWS V14.00,2013-04-27 13:46:00,
2013-04-27 09:47:00,73.0,60.1,30.26,East,89,12.0,17.0,64,0.00,,---,0.00,577.00,VWS V14.00,2013-04-27 13:47:00,
2013-04-27 09:48:00,72.9,59.6,30.26,East,81,15.0,17.0,63,0.00,,---,0.00,573.00,VWS V14.00,2013-04-27 13:48:00,
2013-04-27 09:49:00,72.9,60.0,30.26,East,87,16.0,18.0,64,0.00,,---,0.00,573.00,VWS V14.00,2013-04-27 13:49:00,
2013-04-27 09:50:00,72.8,59.5,30.26,East,79,10.0,18.0,63,0.00,,---,0.00,582.00,VWS V14.00,2013-04-27 13:50:00,
2013-04-27 09:51:00,72.8,60.4,30.26,East,85,13.0,18.0,65,0.00,,---,0.00,585.00,VWS V14.00,2013-04-27 13:51:00,
2013-04-27 09:52:00,72.8,60.4,30.26,NE,53,12.0,18.0,65,0.00,,---,0.00,575.00,VWS V14.00,2013-04-27 13:52:00,
2013-04-27 09:53:00,72.9,60.5,30.26,ENE,64,14.0,18.0,65,0.00,,---,0.00,591.00,VWS V14.00,2013-04-27 13:53:00,
2013-04-27 09:54:00,73.0,60.1,30.26,NE,56,12.0,18.0,64,0.00,,---,0.00,580.00,VWS V14.00,2013-04-27 13:54:00,
2013-04-27 09:55:00,73.1,60.2,30.26,ENE,68,12.0,18.0,64,0.00,,---,0.00,598.00,VWS V14.00,2013-04-27 13:55:00,
2013-04-27 09:56:00,73.2,59.9,30.26,ENE,64,15.0,18.0,63,0.00,,---,0.00,603.00,VWS V14.00,2013-04-27 13:56:00,
2013-04-27 09:57:00,73.2,59.4,30.26,ENE,67,10.0,18.0,62,0.00,,---,0.00,598.00,VWS V14.00,2013-04-27 13:57:00,
2013-04-27 09:58:00,73.3,60.0,30.26,ENE,74,8.0,18.0,63,0.00,,---,0.00,591.00,VWS V14.00,2013-04-27 13:58:00,
2013-04-27 09:59:00,73.3,60.0,30.26,East,98,10.0,18.0,63,0.00,,---,0.00,582.00,VWS V14.00,2013-04-27 13:59:00,
2013-04-27 10:00:00,73.2,59.9,30.26,East,79,11.0,18.0,63,0.00,,---,0.00,589.00,VWS V14.00,2013-04-27 14:00:00,
2013-04-27 10:01:00,73.2,59.9,30.26,ENE,74,10.0,15.0,63,0.00,,---,0.00,589.00,VWS V14.00,2013-04-27 14:01:00,
2013-04-27 10:02:00,73.3,60.4,30.26,ENE,62,14.0,15.0,64,0.00,,---,0.00,578.00,VWS V14.00,2013-04-27 14:02:00,
2013-04-27 10:03:00,73.4,59.6,30.26,ENE,73,9.0,15.0,62,0.00,,---,0.00,591.00,VWS V14.00,2013-04-27 14:03:00,
2013-04-27 10:04:00,73.4,59.6,30.26,ENE,77,10.0,15.0,62,0.00,,---,0.00,591.00,VWS V14.00,2013-04-27 14:04:00,
2013-04-27 10:05:00,73.5,59.7,30.27,ENE,66,10.0,15.0,62,0.00,,---,0.00,603.00,VWS V14.00,2013-04-27 14:05:00,
2013-04-27 10:06:00,73.5,59.7,30.26,East,83,9.0,15.0,62,0.00,,---,0.00,619.00,VWS V14.00,2013-04-27 14:06:00,
2013-04-27 10:07:00,73.5,60.2,30.27,East,88,11.0,15.0,63,0.00,,---,0.00,624.00,VWS V14.00,2013-04-27 14:07:00,
2013-04-27 10:08:00,73.5,59.7,30.27,East,83,9.0,15.0,62,0.00,,---,0.00,629.00,VWS V14.00,2013-04-27 14:08:00,
2013-04-27 10:09:00,73.5,59.2,30.27,ENE,64,12.0,15.0,61,0.00,,---,0.00,629.00,VWS V14.00,2013-04-27 14:09:00,
2013-04-27 10:10:00,73.6,60.2,30.26,East,80,12.0,15.0,63,0.00,,---,0.00,615.00,VWS V14.00,2013-04-27 14:10:00,
2013-04-27 10:11:00,73.5,59.7,30.26,East,81,12.0,15.0,62,0.00,,---,0.00,617.00,VWS V14.00,2013-04-27 14:11:00,
2013-04-27 10:12:00,73.4,60.0,30.26,East,80,14.0,17.0,63,0.00,,---,0.00,629.00,VWS V14.00,2013-04-27 14:12:00,
2013-04-27 10:13:00,73.4,60.0,30.27,East,83,13.0,17.0,63,0.00,,---,0.00,645.00,VWS V14.00,2013-04-27 14:13:00,
2013-04-27 10:14:00,73.3,59.5,30.27,East,90,15.0,17.0,62,0.00,,---,0.00,650.00,VWS V14.00,2013-04-27 14:14:00,
2013-04-27 10:15:00,73.2,59.0,30.26,East,89,13.0,17.0,61,0.00,,---,0.00,652.00,VWS V14.00,2013-04-27 14:15:00,
2013-04-27 10:16:00,73.2,59.4,30.26,East,88,12.0,17.0,62,0.00,,---,0.00,596.00,VWS V14.00,2013-04-27 14:16:00,
2013-04-27 10:17:00,73.2,59.9,30.26,East,86,14.0,17.0,63,0.00,,---,0.00,666.00,VWS V14.00,2013-04-27 14:17:00,
2013-04-27 10:18:00,73.2,60.3,30.26,East,79,15.0,17.0,64,0.00,,---,0.00,668.00,VWS V14.00,2013-04-27 14:18:00,
2013-04-27 10:19:00,73.1,59.3,30.26,East,87,15.0,17.0,62,0.00,,---,0.00,661.00,VWS V14.00,2013-04-27 14:19:00,
2013-04-27 10:20:00,73.1,59.8,30.26,ENE,73,10.0,17.0,63,0.00,,---,0.00,673.00,VWS V14.00,2013-04-27 14:20:00,
2013-04-27 10:21:00,73.2,60.3,30.26,East,87,18.0,18.0,64,0.00,,---,0.00,675.00,VWS V14.00,2013-04-27 14:21:00,
2013-04-27 10:22:00,73.2,59.4,30.26,East,81,13.0,18.0,62,0.00,,---,0.00,694.00,VWS V14.00,2013-04-27 14:22:00,
2013-04-27 10:23:00,73.2,59.4,30.26,East,82,12.0,18.0,62,0.00,,---,0.00,677.00,VWS V14.00,2013-04-27 14:23:00,
2013-04-27 10:24:00,73.2,60.3,30.26,East,79,14.0,18.0,64,0.00,,---,0.00,726.00,VWS V14.00,2013-04-27 14:24:00,
2013-04-27 10:25:00,73.2,59.9,30.26,East,87,16.0,18.0,63,0.00,,---,0.00,737.00,VWS V14.00,2013-04-27 14:25:00,
2013-04-27 10:26:00,73.2,59.9,30.26,East,95,14.0,19.0,63,0.00,,---,0.00,737.00,VWS V14.00,2013-04-27 14:26:00,
2013-04-27 10:27:00,73.1,60.2,30.27,East,87,14.0,19.0,64,0.00,,---,0.00,761.00,VWS V14.00,2013-04-27 14:27:00,
2013-04-27 10:28:00,73.1,59.8,30.27,East,83,12.0,19.0,63,0.00,,---,0.00,772.00,VWS V14.00,2013-04-27 14:28:00,
2013-04-27 10:29:00,73.1,59.8,30.26,East,88,14.0,19.0,63,0.00,,---,0.00,775.00,VWS V14.00,2013-04-27 14:29:00,
2013-04-27 10:30:00,73.1,59.8,30.26,East,85,11.0,19.0,63,0.00,,---,0.00,780.00,VWS V14.00,2013-04-27 14:30:00,
2013-04-27 10:31:00,73.1,60.2,30.26,East,81,11.0,12.0,64,0.00,,---,0.00,735.00,VWS V14.00,2013-04-27 14:31:00,
2013-04-27 10:32:00,73.1,60.7,30.26,East,94,10.0,13.0,65,0.00,,---,0.00,708.00,VWS V14.00,2013-04-27 14:32:00,
2013-04-27 10:33:00,73.1,60.2,30.26,East,91,12.0,16.0,64,0.00,,---,0.00,708.00,VWS V14.00,2013-04-27 14:33:00,
2013-04-27 10:34:00,73.1,61.5,30.26,East,87,16.0,16.0,67,0.00,,---,0.00,707.00,VWS V14.00,2013-04-27 14:34:00,
2013-04-27 10:35:00,73.1,59.8,30.26,East,87,12.0,16.0,63,0.00,,---,0.00,707.00,VWS V14.00,2013-04-27 14:35:00,
2013-04-27 10:36:00,73.1,60.2,30.26,East,95,13.0,16.0,64,0.00,,---,0.00,707.00,VWS V14.00,2013-04-27 14:36:00,
2013-04-27 10:37:00,73.0,60.5,30.26,East,81,17.0,17.0,65,0.00,,---,0.00,707.00,VWS V14.00,2013-04-27 14:37:00,
2013-04-27 10:38:00,73.0,60.1,30.26,ENE,76,12.0,17.0,64,0.00,,---,0.00,707.00,VWS V14.00,2013-04-27 14:38:00,
2013-04-27 10:39:00,73.0,60.5,30.27,ENE,72,10.0,17.0,65,0.00,,---,0.00,707.00,VWS V14.00,2013-04-27 14:39:00,
2013-04-27 10:40:00,73.1,60.2,30.27,ENE,74,10.0,17.0,64,0.00,,---,0.00,707.00,VWS V14.00,2013-04-27 14:40:00,
2013-04-27 10:41:00,73.1,60.7,30.27,East,88,10.0,17.0,65,0.00,,---,0.00,707.00,VWS V14.00,2013-04-27 14:41:00,
2013-04-27 10:42:00,73.2,61.2,30.27,East,85,8.0,17.0,66,0.00,,---,0.00,707.00,VWS V14.00,2013-04-27 14:42:00,
2013-04-27 10:43:00,73.1,61.1,30.27,ENE,77,8.0,17.0,66,0.00,,---,0.00,707.00,VWS V14.00,2013-04-27 14:43:00,
2013-04-27 10:44:00,73.2,61.2,30.27,East,87,13.0,17.0,66,0.00,,---,0.00,707.00,VWS V14.00,2013-04-27 14:44:00,
2013-04-27 10:45:00,73.1,60.2,30.27,East,86,13.0,17.0,64,0.00,,---,0.00,896.00,VWS V14.00,2013-04-27 14:45:00,
2013-04-27 10:46:00,73.1,60.2,30.27,East,84,13.0,17.0,64,0.00,,---,0.00,896.00,VWS V14.00,2013-04-27 14:46:00,
2013-04-27 10:47:00,73.1,60.2,30.27,East,97,15.0,17.0,64,0.00,,---,0.00,795.00,VWS V14.00,2013-04-27 14:47:00,
2013-04-27 10:48:00,73.1,60.2,30.27,East,88,14.0,17.0,64,0.00,,---,0.00,791.00,VWS V14.00,2013-04-27 14:48:00,
2013-04-27 10:49:00,73.1,59.8,30.27,East,87,15.0,17.0,63,0.00,,---,0.00,791.00,VWS V14.00,2013-04-27 14:49:00,
2013-04-27 10:50:00,73.1,59.8,30.27,East,80,12.0,17.0,63,0.00,,---,0.00,791.00,VWS V14.00,2013-04-27 14:50:00,
2013-04-27 10:51:00,73.1,60.7,30.27,East,86,17.0,17.0,65,0.00,,---,0.00,874.00,VWS V14.00,2013-04-27 14:51:00,
2013-04-27 10:52:00,73.1,59.3,30.27,East,81,16.0,18.0,62,0.00,,---,0.00,972.00,VWS V14.00,2013-04-27 14:52:00,
2013-04-27 10:53:00,73.1,59.3,30.27,East,82,15.0,18.0,62,0.00,,---,0.00,972.00,VWS V14.00,2013-04-27 14:53:00,
2013-04-27 10:54:00,73.0,59.2,30.27,East,94,14.0,18.0,62,0.00,,---,0.00,939.00,VWS V14.00,2013-04-27 14:54:00,
2013-04-27 10:55:00,73.1,59.8,30.27,East,79,15.0,18.0,63,0.00,,---,0.00,951.00,VWS V14.00,2013-04-27 14:55:00,
2013-04-27 10:56:00,73.1,59.3,30.27,East,83,15.0,18.0,62,0.00,,---,0.00,958.00,VWS V14.00,2013-04-27 14:56:00,
2013-04-27 10:57:00,73.1,59.3,30.27,East,80,13.0,18.0,62,0.00,,---,0.00,902.00,VWS V14.00,2013-04-27 14:57:00,
2013-04-27 10:58:00,73.1,59.8,30.27,East,82,12.0,18.0,63,0.00,,---,0.00,902.00,VWS V14.00,2013-04-27 14:58:00,
2013-04-27 10:59:00,73.2,60.3,30.26,East,81,13.0,18.0,64,0.00,,---,0.00,817.00,VWS V14.00,2013-04-27 14:59:00,
2013-04-27 11:00:00,73.2,59.4,30.26,East,79,14.0,18.0,62,0.00,,---,0.00,817.00,VWS V14.00,2013-04-27 15:00:00,
2013-04-27 11:01:00,73.2,59.4,30.26,East,90,13.0,15.0,62,0.00,,---,0.00,817.00,VWS V14.00,2013-04-27 15:01:00,
2013-04-27 11:02:00,73.2,59.4,30.26,ENE,75,16.0,18.0,62,0.00,,---,0.00,555.00,VWS V14.00,2013-04-27 15:02:00,
2013-04-27 11:03:00,73.1,59.3,30.27,ENE,76,14.0,18.0,62,0.00,,---,0.00,555.00,VWS V14.00,2013-04-27 15:03:00,
2013-04-27 11:04:00,73.1,59.3,30.26,ENE,77,14.0,18.0,62,0.00,,---,0.00,555.00,VWS V14.00,2013-04-27 15:04:00,
2013-04-27 11:05:00,73.1,59.3,30.26,East,86,16.0,18.0,62,0.00,,---,0.00,376.00,VWS V14.00,2013-04-27 15:05:00,
2013-04-27 11:06:00,73.2,60.3,30.26,East,82,14.0,18.0,64,0.00,,---,0.00,376.00,VWS V14.00,2013-04-27 15:06:00,
2013-04-27 11:07:00,73.2,60.3,30.26,East,94,11.0,18.0,64,0.00,,---,0.00,960.00,VWS V14.00,2013-04-27 15:07:00,
2013-04-27 11:08:00,73.2,59.4,30.26,East,91,17.0,18.0,62,0.00,,---,0.00,960.00,VWS V14.00,2013-04-27 15:08:00,
2013-04-27 11:09:00,73.1,58.9,30.26,East,88,13.0,18.0,61,0.00,,---,0.00,960.00,VWS V14.00,2013-04-27 15:09:00,
2013-04-27 11:10:00,73.2,59.4,30.27,East,87,13.0,18.0,62,0.00,,---,0.00,960.00,VWS V14.00,2013-04-27 15:10:00,
2013-04-27 11:11:00,73.1,59.3,30.27,East,83,14.0,18.0,62,0.00,,---,0.00,960.00,VWS V14.00,2013-04-27 15:11:00,
2013-04-27 11:12:00,73.1,58.9,30.27,East,83,16.0,18.0,61,0.00,,---,0.00,438.00,VWS V14.00,2013-04-27 15:12:00,
2013-04-27 11:13:00,73.1,59.3,30.27,East,87,16.0,18.0,62,0.00,,---,0.00,399.00,VWS V14.00,2013-04-27 15:13:00,
2013-04-27 11:14:00,73.1,59.3,30.27,ENE,75,13.0,18.0,62,0.00,,---,0.00,397.00,VWS V14.00,2013-04-27 15:14:00,
2013-04-27 11:15:00,73.1,58.9,30.27,ENE,77,10.0,18.0,61,0.00,,---,0.00,413.00,VWS V14.00,2013-04-27 15:15:00,
2013-04-27 11:16:00,73.1,59.3,30.27,ENE,76,12.0,18.0,62,0.00,,---,0.00,346.00,VWS V14.00,2013-04-27 15:16:00,
2013-04-27 11:17:00,73.1,59.3,30.26,ENE,76,17.0,18.0,62,0.00,,---,0.00,406.00,VWS V14.00,2013-04-27 15:17:00,
2013-04-27 11:18:00,73.1,59.3,30.27,ENE,76,13.0,18.0,62,0.00,,---,0.00,448.00,VWS V14.00,2013-04-27 15:18:00,
2013-04-27 11:19:00,73.1,58.9,30.27,East,85,13.0,18.0,61,0.00,,---,0.00,445.00,VWS V14.00,2013-04-27 15:19:00,
2013-04-27 11:20:00,73.2,59.0,30.27,ENE,77,14.0,18.0,61,0.00,,---,0.00,417.00,VWS V14.00,2013-04-27 15:20:00,
2013-04-27 11:21:00,73.2,59.0,30.27,East,99,11.0,18.0,61,0.00,,---,0.00,367.00,VWS V14.00,2013-04-27 15:21:00,
2013-04-27 11:22:00,73.3,60.4,30.27,ENE,74,13.0,18.0,64,0.00,,---,0.00,397.00,VWS V14.00,2013-04-27 15:22:00,
2013-04-27 11:23:00,73.3,59.5,30.27,ESE,103,13.0,18.0,62,0.00,,---,0.00,397.00,VWS V14.00,2013-04-27 15:23:00,
2013-04-27 11:24:00,73.3,59.0,30.27,East,81,14.0,18.0,61,0.00,,---,0.00,397.00,VWS V14.00,2013-04-27 15:24:00,
2013-04-27 11:25:00,73.2,59.0,30.27,East,91,17.0,18.0,61,0.00,,---,0.00,673.00,VWS V14.00,2013-04-27 15:25:00,
2013-04-27 11:26:00,73.1,58.9,30.27,ESE,104,15.0,18.0,61,0.00,,---,0.00,673.00,VWS V14.00,2013-04-27 15:26:00,
2013-04-27 11:27:00,73.1,59.8,30.27,ENE,76,13.0,18.0,63,0.00,,---,0.00,568.00,VWS V14.00,2013-04-27 15:27:00,
2013-04-27 11:28:00,73.1,59.3,30.27,ENE,78,11.0,18.0,62,0.00,,---,0.00,568.00,VWS V14.00,2013-04-27 15:28:00,
2013-04-27 11:29:00,73.1,59.8,30.26,East,79,11.0,18.0,63,0.00,,---,0.00,568.00,VWS V14.00,2013-04-27 15:29:00,
2013-04-27 11:30:00,73.1,59.8,30.27,ENE,70,13.0,18.0,63,0.00,,---,0.00,422.00,VWS V14.00,2013-04-27 15:30:00,
2013-04-27 11:31:00,73.2,59.9,30.27,East,87,11.0,15.0,63,0.00,,---,0.00,485.00,VWS V14.00,2013-04-27 15:31:00,
2013-04-27 11:32:00,73.2,59.9,30.26,East,82,12.0,15.0,63,0.00,,---,0.00,531.00,VWS V14.00,2013-04-27 15:32:00,
2013-04-27 11:33:00,73.3,59.0,30.26,East,82,13.0,15.0,61,0.00,,---,0.00,531.00,VWS V14.00,2013-04-27 15:33:00,
2013-04-27 11:34:00,73.3,60.0,30.26,ENE,73,15.0,16.0,63,0.00,,---,0.00,953.00,VWS V14.00,2013-04-27 15:34:00,
2013-04-27 11:35:00,73.3,60.0,30.26,East,92,10.0,16.0,63,0.00,,---,0.00,896.00,VWS V14.00,2013-04-27 15:35:00,
2013-04-27 11:36:00,73.4,59.2,30.26,East,90,15.0,16.0,61,0.00,,---,0.00,949.00,VWS V14.00,2013-04-27 15:36:00,
2013-04-27 11:37:00,73.4,59.2,30.26,East,93,12.0,16.0,61,0.00,,---,0.00,969.00,VWS V14.00,2013-04-27 15:37:00,
2013-04-27 11:38:00,73.4,58.7,30.26,East,83,10.0,16.0,60,0.00,,---,0.00,960.00,VWS V14.00,2013-04-27 15:38:00,
2013-04-27 11:39:00,73.4,58.7,30.26,East,99,8.0,16.0,60,0.00,,---,0.00,933.00,VWS V14.00,2013-04-27 15:39:00,
2013-04-27 11:40:00,73.5,60.6,30.26,East,89,13.0,16.0,64,0.00,,---,0.00,840.00,VWS V14.00,2013-04-27 15:40:00,
2013-04-27 11:41:00,73.5,60.2,30.26,East,85,11.0,16.0,63,0.00,,---,0.00,823.00,VWS V14.00,2013-04-27 15:41:00,
2013-04-27 11:42:00,73.5,59.7,30.26,East,95,14.0,16.0,62,0.00,,---,0.00,788.00,VWS V14.00,2013-04-27 15:42:00,
2013-04-27 11:43:00,73.5,59.7,30.26,East,92,15.0,16.0,62,0.00,,---,0.00,879.00,VWS V14.00,2013-04-27 15:43:00,
2013-04-27 11:44:00,73.5,59.2,30.26,East,94,13.0,16.0,61,0.00,,---,0.00,916.00,VWS V14.00,2013-04-27 15:44:00,
2013-04-27 11:45:00,73.5,59.2,30.26,East,93,18.0,18.0,61,0.00,,---,0.00,900.00,VWS V14.00,2013-04-27 15:45:00,
2013-04-27 11:46:00,73.5,59.7,30.26,East,97,14.0,18.0,62,0.00,,---,0.00,923.00,VWS V14.00,2013-04-27 15:46:00,
2013-04-27 11:47:00,73.5,58.8,30.26,East,93,15.0,18.0,60,0.00,,---,0.00,930.00,VWS V14.00,2013-04-27 15:47:00,
2013-04-27 11:48:00,73.5,59.2,30.26,East,87,11.0,18.0,61,0.00,,---,0.00,935.00,VWS V14.00,2013-04-27 15:48:00,
2013-04-27 11:49:00,73.5,59.2,30.25,ENE,78,13.0,18.0,61,0.00,,---,0.00,935.00,VWS V14.00,2013-04-27 15:49:00,
2013-04-27 11:50:00,73.5,59.2,30.25,East,89,14.0,18.0,61,0.00,,---,0.00,939.00,VWS V14.00,2013-04-27 15:50:00,
2013-04-27 11:51:00,73.6,59.3,30.25,East,95,13.0,18.0,61,0.00,,---,0.00,942.00,VWS V14.00,2013-04-27 15:51:00,
2013-04-27 11:52:00,73.6,58.9,30.26,ESE,109,13.0,18.0,60,0.00,,---,0.00,933.00,VWS V14.00,2013-04-27 15:52:00,
2013-04-27 11:53:00,73.6,59.3,30.26,East,96,15.0,18.0,61,0.00,,---,0.00,933.00,VWS V14.00,2013-04-27 15:53:00,
2013-04-27 11:54:00,73.6,60.2,30.25,East,92,12.0,18.0,63,0.00,,---,0.00,947.00,VWS V14.00,2013-04-27 15:54:00,
2013-04-27 11:55:00,73.5,58.8,30.26,East,91,12.0,18.0,60,0.00,,---,0.00,949.00,VWS V14.00,2013-04-27 15:55:00,
2013-04-27 11:56:00,73.6,58.9,30.25,East,94,14.0,18.0,60,0.00,,---,0.00,951.00,VWS V14.00,2013-04-27 15:56:00,
2013-04-27 11:57:00,73.5,58.8,30.25,East,88,17.0,18.0,60,0.00,,---,0.00,953.00,VWS V14.00,2013-04-27 15:57:00,
2013-04-27 11:58:00,73.5,58.3,30.25,ENE,78,15.0,18.0,59,0.00,,---,0.00,951.00,VWS V14.00,2013-04-27 15:58:00,
2013-04-27 11:59:00,73.6,57.9,30.25,East,89,11.0,18.0,58,0.00,,---,0.00,946.00,VWS V14.00,2013-04-27 15:59:00,
2013-04-27 12:00:00,73.6,58.9,30.25,East,91,14.0,18.0,60,0.00,,---,0.00,953.00,VWS V14.00,2013-04-27 16:00:00,
2013-04-27 12:01:00,73.6,59.8,30.25,East,88,16.0,16.0,62,0.00,,---,0.00,962.00,VWS V14.00,2013-04-27 16:01:00,
2013-04-27 12:02:00,73.6,58.9,30.25,East,86,13.0,16.0,60,0.00,,---,0.00,969.00,VWS V14.00,2013-04-27 16:02:00,
2013-04-27 12:03:00,73.6,58.9,30.25,East,93,14.0,16.0,60,0.00,,---,0.00,965.00,VWS V14.00,2013-04-27 16:03:00,
2013-04-27 12:04:00,73.6,58.9,30.25,East,96,15.0,16.0,60,0.00,,---,0.00,977.00,VWS V14.00,2013-04-27 16:04:00,
2013-04-27 12:05:00,73.6,58.9,30.25,East,89,14.0,16.0,60,0.00,,---,0.00,963.00,VWS V14.00,2013-04-27 16:05:00,
2013-04-27 12:06:00,73.7,59.0,30.25,East,100,10.0,16.0,60,0.00,,---,0.00,956.00,VWS V14.00,2013-04-27 16:06:00,
2013-04-27 12:07:00,73.7,59.0,30.25,East,85,14.0,16.0,60,0.00,,---,0.00,981.00,VWS V14.00,2013-04-27 16:07:00,
2013-04-27 12:08:00,73.7,59.0,30.25,East,98,9.0,16.0,60,0.00,,---,0.00,979.00,VWS V14.00,2013-04-27 16:08:00,
2013-04-27 12:09:00,73.7,59.4,30.25,East,93,12.0,16.0,61,0.00,,---,0.00,984.00,VWS V14.00,2013-04-27 16:09:00,
2013-04-27 12:10:00,73.8,59.1,30.25,East,101,14.0,17.0,60,0.00,,---,0.00,991.00,VWS V14.00,2013-04-27 16:10:00,
2013-04-27 12:11:00,73.8,59.5,30.25,East,97,14.0,17.0,61,0.00,,---,0.00,991.00,VWS V14.00,2013-04-27 16:11:00,
2013-04-27 12:12:00,73.8,59.5,30.25,East,91,10.0,17.0,61,0.00,,---,0.00,983.00,VWS V14.00,2013-04-27 16:12:00,
2013-04-27 12:13:00,73.8,60.0,30.25,East,97,12.0,17.0,62,0.00,,---,0.00,984.00,VWS V14.00,2013-04-27 16:13:00,
2013-04-27 12:14:00,73.9,60.5,30.25,East,98,17.0,17.0,63,0.00,,---,0.00,988.00,VWS V14.00,2013-04-27 16:14:00,
2013-04-27 12:15:00,73.8,59.1,30.25,East,98,17.0,18.0,60,0.00,,---,0.00,993.00,VWS V14.00,2013-04-27 16:15:00,
2013-04-27 12:16:00,73.8,58.6,30.25,East,94,12.0,18.0,59,0.00,,---,0.00,962.00,VWS V14.00,2013-04-27 16:16:00,
2013-04-27 12:17:00,73.8,59.5,30.25,East,91,13.0,18.0,61,0.00,,---,0.00,958.00,VWS V14.00,2013-04-27 16:17:00,
2013-04-27 12:18:00,73.8,59.5,30.25,East,93,9.0,18.0,61,0.00,,---,0.00,930.00,VWS V14.00,2013-04-27 16:18:00,
2013-04-27 12:19:00,73.8,60.0,30.25,ESE,104,11.0,18.0,62,0.00,,---,0.00,932.00,VWS V14.00,2013-04-27 16:19:00,
2013-04-27 12:20:00,73.8,59.5,30.24,East,95,10.0,18.0,61,0.00,,---,0.00,902.00,VWS V14.00,2013-04-27 16:20:00,
2013-04-27 12:21:00,73.8,60.0,30.24,ESE,102,13.0,18.0,62,0.00,,---,0.00,960.00,VWS V14.00,2013-04-27 16:21:00,
2013-04-27 12:22:00,73.8,59.5,30.24,East,85,14.0,18.0,61,0.00,,---,0.00,960.00,VWS V14.00,2013-04-27 16:22:00,
2013-04-27 12:23:00,73.8,60.0,30.24,East,82,18.0,18.0,62,0.00,,---,0.00,960.00,VWS V14.00,2013-04-27 16:23:00,
2013-04-27 12:24:00,73.8,59.5,30.24,ENE,78,12.0,18.0,61,0.00,,---,0.00,956.00,VWS V14.00,2013-04-27 16:24:00,
2013-04-27 12:25:00,73.7,59.4,30.24,East,90,10.0,18.0,61,0.00,,---,0.00,970.00,VWS V14.00,2013-04-27 16:25:00,
2013-04-27 12:26:00,73.7,59.4,30.24,East,80,12.0,18.0,61,0.00,,---,0.00,969.00,VWS V14.00,2013-04-27 16:26:00,
2013-04-27 12:27:00,73.7,58.5,30.24,East,83,15.0,18.0,59,0.00,,---,0.00,898.00,VWS V14.00,2013-04-27 16:27:00,
2013-04-27 12:28:00,73.8,59.1,30.24,East,86,16.0,18.0,60,0.00,,---,0.00,991.00,VWS V14.00,2013-04-27 16:28:00,
2013-04-27 12:29:00,73.8,60.4,30.24,East,82,12.0,18.0,63,0.00,,---,0.00,991.00,VWS V14.00,2013-04-27 16:29:00,
2013-04-27 12:30:00,73.8,59.5,30.24,East,96,13.0,18.0,61,0.00,,---,0.00,953.00,VWS V14.00,2013-04-27 16:30:00,
2013-04-27 12:31:00,73.8,59.5,30.24,East,91,16.0,17.0,61,0.00,,---,0.00,972.00,VWS V14.00,2013-04-27 16:31:00,
2013-04-27 12:32:00,73.8,59.5,30.24,East,99,13.0,17.0,61,0.00,,---,0.00,983.00,VWS V14.00,2013-04-27 16:32:00,
2013-04-27 12:33:00,73.8,59.5,30.24,East,95,15.0,17.0,61,0.00,,---,0.00,983.00,VWS V14.00,2013-04-27 16:33:00,
2013-04-27 12:34:00,73.7,59.0,30.24,East,101,12.0,17.0,60,0.00,,---,0.00,990.00,VWS V14.00,2013-04-27 16:34:00,
2013-04-27 12:35:00,73.7,59.0,30.24,ESE,106,9.0,17.0,60,0.00,,---,0.00,995.00,VWS V14.00,2013-04-27 16:35:00,
2013-04-27 12:36:00,73.7,59.4,30.24,East,94,16.0,18.0,61,0.00,,---,0.00,1023.00,VWS V14.00,2013-04-27 16:36:00,
2013-04-27 12:37:00,73.7,58.5,30.24,East,98,12.0,18.0,59,0.00,,---,0.00,939.00,VWS V14.00,2013-04-27 16:37:00,
2013-04-27 12:38:00,73.7,59.9,30.24,East,95,13.0,18.0,62,0.00,,---,0.00,884.00,VWS V14.00,2013-04-27 16:38:00,
2013-04-27 12:39:00,73.7,59.4,30.24,East,95,12.0,18.0,61,0.00,,---,0.00,977.00,VWS V14.00,2013-04-27 16:39:00,
2013-04-27 12:40:00,73.7,59.0,30.24,ENE,77,11.0,18.0,60,0.00,,---,0.00,981.00,VWS V14.00,2013-04-27 16:40:00,
2013-04-27 12:41:00,73.7,59.4,30.24,East,94,14.0,18.0,61,0.00,,---,0.00,958.00,VWS V14.00,2013-04-27 16:41:00,
2013-04-27 12:42:00,73.7,59.0,30.24,East,83,15.0,18.0,60,0.00,,---,0.00,977.00,VWS V14.00,2013-04-27 16:42:00,
2013-04-27 12:43:00,73.7,59.4,30.24,East,91,14.0,18.0,61,0.00,,---,0.00,1004.00,VWS V14.00,2013-04-27 16:43:00,
2013-04-27 12:44:00,73.7,59.4,30.24,ESE,106,14.0,18.0,61,0.00,,---,0.00,1009.00,VWS V14.00,2013-04-27 16:44:00,
2013-04-27 12:45:00,73.6,58.9,30.24,East,96,14.0,18.0,60,0.00,,---,0.00,1011.00,VWS V14.00,2013-04-27 16:45:00,
2013-04-27 12:46:00,73.6,59.3,30.24,East,92,17.0,18.0,61,0.00,,---,0.00,1011.00,VWS V14.00,2013-04-27 16:46:00,
2013-04-27 12:47:00,73.6,58.9,30.23,East,97,16.0,18.0,60,0.00,,---,0.00,1011.00,VWS V14.00,2013-04-27 16:47:00,
2013-04-27 12:48:00,73.6,58.9,30.24,East,91,11.0,18.0,60,0.00,,---,0.00,1018.00,VWS V14.00,2013-04-27 16:48:00,
2013-04-27 12:49:00,73.7,59.9,30.24,ESE,104,10.0,18.0,62,0.00,,---,0.00,954.00,VWS V14.00,2013-04-27 16:49:00,
2013-04-27 12:50:00,73.7,60.3,30.24,East,93,13.0,18.0,63,0.00,,---,0.00,997.00,VWS V14.00,2013-04-27 16:50:00,
2013-04-27 12:51:00,73.7,60.3,30.24,East,85,11.0,18.0,63,0.00,,---,0.00,1011.00,VWS V14.00,2013-04-27 16:51:00,
2013-04-27 12:52:00,73.7,60.3,30.23,East,90,13.0,18.0,63,0.00,,---,0.00,1013.00,VWS V14.00,2013-04-27 16:52:00,
2013-04-27 12:53:00,73.7,60.3,30.24,East,97,12.0,18.0,63,0.00,,---,0.00,1011.00,VWS V14.00,2013-04-27 16:53:00,
2013-04-27 12:54:00,73.7,59.9,30.24,East,85,13.0,18.0,62,0.00,,---,0.00,998.00,VWS V14.00,2013-04-27 16:54:00,
2013-04-27 12:55:00,73.7,59.4,30.23,East,91,13.0,18.0,61,0.00,,---,0.00,1002.00,VWS V14.00,2013-04-27 16:55:00,
2013-04-27 12:56:00,73.7,59.4,30.24,East,96,11.0,18.0,61,0.00,,---,0.00,1005.00,VWS V14.00,2013-04-27 16:56:00,
2013-04-27 12:57:00,73.7,60.3,30.24,East,94,14.0,18.0,63,0.00,,---,0.00,1009.00,VWS V14.00,2013-04-27 16:57:00,
2013-04-27 12:58:00,73.7,59.9,30.23,East,93,13.0,18.0,62,0.00,,---,0.00,1011.00,VWS V14.00,2013-04-27 16:58:00,
2013-04-27 12:59:00,73.7,59.4,30.23,East,87,11.0,18.0,61,0.00,,---,0.00,1011.00,VWS V14.00,2013-04-27 16:59:00,
2013-04-27 13:00:00,73.7,59.4,30.23,ESE,107,11.0,18.0,61,0.00,,---,0.00,1016.00,VWS V14.00,2013-04-27 17:00:00,
2013-04-27 13:01:00,73.7,59.9,30.23,East,91,13.0,16.0,62,0.00,,---,0.00,1011.00,VWS V14.00,2013-04-27 17:01:00,
2013-04-27 13:02:00,73.7,59.4,30.23,East,91,14.0,16.0,61,0.00,,---,0.00,1014.00,VWS V14.00,2013-04-27 17:02:00,
2013-04-27 13:03:00,73.7,59.4,30.23,East,85,10.0,16.0,61,0.00,,---,0.00,1016.00,VWS V14.00,2013-04-27 17:03:00,
2013-04-27 13:04:00,73.7,59.9,30.23,East,92,12.0,16.0,62,0.00,,---,0.00,1020.00,VWS V14.00,2013-04-27 17:04:00,
2013-04-27 13:05:00,73.8,59.5,30.23,East,92,11.0,16.0,61,0.00,,---,0.00,1021.00,VWS V14.00,2013-04-27 17:05:00,
2013-04-27 13:06:00,73.8,59.5,30.23,East,83,13.0,16.0,61,0.00,,---,0.00,1027.00,VWS V14.00,2013-04-27 17:06:00,
2013-04-27 13:07:00,73.7,59.0,30.23,East,88,8.0,16.0,60,0.00,,---,0.00,1007.00,VWS V14.00,2013-04-27 17:07:00,
2013-04-27 13:08:00,73.8,60.0,30.23,East,87,11.0,16.0,62,0.00,,---,0.00,988.00,VWS V14.00,2013-04-27 17:08:00,
2013-04-27 13:09:00,73.8,59.1,30.23,East,91,12.0,16.0,60,0.00,,---,0.00,993.00,VWS V14.00,2013-04-27 17:09:00,
2013-04-27 13:10:00,73.8,59.5,30.23,East,86,14.0,16.0,61,0.00,,---,0.00,1023.00,VWS V14.00,2013-04-27 17:10:00,
2013-04-27 13:11:00,73.8,60.0,30.23,ENE,70,14.0,16.0,62,0.00,,---,0.00,1004.00,VWS V14.00,2013-04-27 17:11:00,
2013-04-27 13:12:00,73.8,60.0,30.23,ENE,70,14.0,16.0,62,0.00,,---,0.00,1004.00,VWS V14.00,2013-04-27 17:12:00,
2013-04-27 13:13:00,73.8,60.0,30.23,ENE,70,14.0,16.0,62,0.00,,---,0.00,1004.00,VWS V14.00,2013-04-27 17:13:00,
2013-04-27 13:14:00,73.8,60.0,30.23,ENE,70,14.0,16.0,62,0.00,,---,0.00,1004.00,VWS V14.00,2013-04-27 17:14:00,
2013-04-27 13:15:00,73.9,58.7,30.23,East,88,9.0,16.0,59,0.00,,---,0.00,1004.00,VWS V14.00,2013-04-27 17:15:00,
2013-04-27 13:16:00,73.9,58.7,30.23,East,88,13.0,16.0,59,0.00,,---,0.00,1000.00,VWS V14.00,2013-04-27 17:16:00,
2013-04-27 13:17:00,73.9,58.7,30.23,East,96,13.0,16.0,59,0.00,,---,0.00,981.00,VWS V14.00,2013-04-27 17:17:00,
2013-04-27 13:18:00,73.9,59.2,30.23,ESE,102,13.0,16.0,60,0.00,,---,0.00,1004.00,VWS V14.00,2013-04-27 17:18:00,
2013-04-27 13:19:00,73.9,59.6,30.23,East,94,12.0,16.0,61,0.00,,---,0.00,997.00,VWS V14.00,2013-04-27 17:19:00,
2013-04-27 13:20:00,73.9,60.1,30.23,East,97,14.0,16.0,62,0.00,,---,0.00,1018.00,VWS V14.00,2013-04-27 17:20:00,
2013-04-27 13:21:00,73.9,59.6,30.22,East,96,12.0,16.0,61,0.00,,---,0.00,1011.00,VWS V14.00,2013-04-27 17:21:00,
2013-04-27 13:22:00,73.9,59.2,30.22,East,91,10.0,16.0,60,0.00,,---,0.00,1018.00,VWS V14.00,2013-04-27 17:22:00,
2013-04-27 13:23:00,73.9,59.6,30.22,East,94,14.0,16.0,61,0.00,,---,0.00,1018.00,VWS V14.00,2013-04-27 17:23:00,
2013-04-27 13:24:00,74.0,59.7,30.22,ENE,74,10.0,16.0,61,0.00,,---,0.00,1023.00,VWS V14.00,2013-04-27 17:24:00,
2013-04-27 13:25:00,74.0,60.2,30.22,East,81,12.0,16.0,62,0.00,,---,0.00,1023.00,VWS V14.00,2013-04-27 17:25:00,
2013-04-27 13:26:00,74.0,59.7,30.22,East,89,12.0,16.0,61,0.00,,---,0.00,1025.00,VWS V14.00,2013-04-27 17:26:00,
2013-04-27 13:27:00,74.0,59.7,30.22,East,93,12.0,16.0,61,0.00,,---,0.00,1028.00,VWS V14.00,2013-04-27 17:27:00,
2013-04-27 13:28:00,74.0,60.2,30.22,East,91,12.0,16.0,62,0.00,,---,0.00,1032.00,VWS V14.00,2013-04-27 17:28:00,
2013-04-27 13:29:00,73.9,59.2,30.22,East,94,14.0,16.0,60,0.00,,---,0.00,1032.00,VWS V14.00,2013-04-27 17:29:00,
2013-04-27 13:30:00,74.0,59.2,30.22,East,85,12.0,16.0,60,0.00,,---,0.00,1000.00,VWS V14.00,2013-04-27 17:30:00,
2013-04-27 13:31:00,74.0,58.8,30.22,East,89,14.0,15.0,59,0.00,,---,0.00,1027.00,VWS V14.00,2013-04-27 17:31:00,
2013-04-27 13:32:00,74.0,59.2,30.22,East,83,12.0,15.0,60,0.00,,---,0.00,998.00,VWS V14.00,2013-04-27 17:32:00,
2013-04-27 13:33:00,74.0,59.7,30.22,East,92,13.0,15.0,61,0.00,,---,0.00,1005.00,VWS V14.00,2013-04-27 17:33:00,
2013-04-27 13:34:00,74.0,58.8,30.22,East,101,9.0,15.0,59,0.00,,---,0.00,1009.00,VWS V14.00,2013-04-27 17:34:00,
2013-04-27 13:35:00,74.1,60.3,30.22,East,93,14.0,16.0,62,0.00,,---,0.00,1021.00,VWS V14.00,2013-04-27 17:35:00,
2013-04-27 13:36:00,74.1,59.3,30.22,ESE,106,13.0,16.0,60,0.00,,---,0.00,1020.00,VWS V14.00,2013-04-27 17:36:00,
2013-04-27 13:37:00,74.1,58.9,30.22,East,93,12.0,16.0,59,0.00,,---,0.00,1025.00,VWS V14.00,2013-04-27 17:37:00,
2013-04-27 13:38:00,74.1,59.8,30.22,East,87,16.0,16.0,61,0.00,,---,0.00,1023.00,VWS V14.00,2013-04-27 17:38:00,
2013-04-27 13:39:00,74.2,59.9,30.22,East,87,14.0,16.0,61,0.00,,---,0.00,1025.00,VWS V14.00,2013-04-27 17:39:00,
2013-04-27 13:40:00,74.2,59.4,30.22,East,95,12.0,16.0,60,0.00,,---,0.00,1027.00,VWS V14.00,2013-04-27 17:40:00,
2013-04-27 13:41:00,74.2,59.0,30.22,East,93,15.0,16.0,59,0.00,,---,0.00,1028.00,VWS V14.00,2013-04-27 17:41:00,
2013-04-27 13:42:00,74.2,59.4,30.22,ESE,103,10.0,16.0,60,0.00,,---,0.00,1032.00,VWS V14.00,2013-04-27 17:42:00,
2013-04-27 13:43:00,74.2,60.4,30.22,East,90,14.0,16.0,62,0.00,,---,0.00,1037.00,VWS V14.00,2013-04-27 17:43:00,
2013-04-27 13:44:00,74.2,59.9,30.22,East,88,12.0,16.0,61,0.00,,---,0.00,958.00,VWS V14.00,2013-04-27 17:44:00,
2013-04-27 13:45:00,74.2,59.9,30.22,East,83,11.0,16.0,61,0.00,,---,0.00,1016.00,VWS V14.00,2013-04-27 17:45:00,
2013-04-27 13:46:00,74.2,60.4,30.22,East,92,9.0,16.0,62,0.00,,---,0.00,1011.00,VWS V14.00,2013-04-27 17:46:00,
2013-04-27 13:47:00,74.2,59.4,30.22,East,87,13.0,16.0,60,0.00,,---,0.00,1028.00,VWS V14.00,2013-04-27 17:47:00,
2013-04-27 13:48:00,74.2,59.9,30.22,East,84,11.0,16.0,61,0.00,,---,0.00,1027.00,VWS V14.00,2013-04-27 17:48:00,
2013-04-27 13:49:00,74.2,59.9,30.22,East,89,12.0,16.0,61,0.00,,---,0.00,1030.00,VWS V14.00,2013-04-27 17:49:00,
2013-04-27 13:50:00,74.2,59.4,30.22,East,84,10.0,16.0,60,0.00,,---,0.00,1030.00,VWS V14.00,2013-04-27 17:50:00,
2013-04-27 13:51:00,74.2,59.9,30.22,East,84,9.0,16.0,61,0.00,,---,0.00,1028.00,VWS V14.00,2013-04-27 17:51:00,
2013-04-27 13:52:00,74.2,59.9,30.21,East,91,13.0,16.0,61,0.00,,---,0.00,1028.00,VWS V14.00,2013-04-27 17:52:00,
2013-04-27 13:53:00,74.2,59.4,30.21,East,83,13.0,16.0,60,0.00,,---,0.00,1028.00,VWS V14.00,2013-04-27 17:53:00,
2013-04-27 13:54:00,74.2,59.9,30.22,East,83,12.0,16.0,61,0.00,,---,0.00,1030.00,VWS V14.00,2013-04-27 17:54:00,
2013-04-27 13:55:00,74.2,59.9,30.22,East,82,13.0,16.0,61,0.00,,---,0.00,1027.00,VWS V14.00,2013-04-27 17:55:00,
2013-04-27 13:56:00,74.2,59.9,30.21,East,82,13.0,16.0,61,0.00,,---,0.00,1016.00,VWS V14.00,2013-04-27 17:56:00,
2013-04-27 13:57:00,74.2,59.9,30.21,East,85,10.0,16.0,61,0.00,,---,0.00,1020.00,VWS V14.00,2013-04-27 17:57:00,
2013-04-27 13:58:00,74.2,59.4,30.21,East,89,9.0,16.0,60,0.00,,---,0.00,1023.00,VWS V14.00,2013-04-27 17:58:00,
2013-04-27 13:59:00,74.3,60.0,30.22,East,88,11.0,16.0,61,0.00,,---,0.00,1023.00,VWS V14.00,2013-04-27 17:59:00,
2013-04-27 14:00:00,74.3,59.5,30.21,East,87,12.0,16.0,60,0.00,,---,0.00,1018.00,VWS V14.00,2013-04-27 18:00:00,
2013-04-27 14:01:00,74.3,60.0,30.21,East,88,12.0,13.0,61,0.00,,---,0.00,1013.00,VWS V14.00,2013-04-27 18:01:00,
2013-04-27 14:02:00,74.3,60.0,30.21,East,89,11.0,13.0,61,0.00,,---,0.00,1018.00,VWS V14.00,2013-04-27 18:02:00,
2013-04-27 14:03:00,74.3,60.0,30.21,East,81,10.0,13.0,61,0.00,,---,0.00,1013.00,VWS V14.00,2013-04-27 18:03:00,
2013-04-27 14:04:00,74.3,59.5,30.22,East,85,9.0,13.0,60,0.00,,---,0.00,1021.00,VWS V14.00,2013-04-27 18:04:00,
2013-04-27 14:05:00,74.3,59.1,30.21,East,89,10.0,13.0,59,0.00,,---,0.00,1014.00,VWS V14.00,2013-04-27 18:05:00,
2013-04-27 14:06:00,74.4,60.1,30.21,East,93,12.0,13.0,61,0.00,,---,0.00,1016.00,VWS V14.00,2013-04-27 18:06:00,
2013-04-27 14:07:00,74.4,60.1,30.22,East,90,11.0,13.0,61,0.00,,---,0.00,1014.00,VWS V14.00,2013-04-27 18:07:00,
2013-04-27 14:08:00,74.4,60.1,30.22,East,90,10.0,13.0,61,0.00,,---,0.00,1014.00,VWS V14.00,2013-04-27 18:08:00,
2013-04-27 14:09:00,74.5,59.2,30.22,East,89,10.0,13.0,59,0.00,,---,0.00,1014.00,VWS V14.00,2013-04-27 18:09:00,
2013-04-27 14:10:00,74.5,59.7,30.22,East,97,11.0,13.0,60,0.00,,---,0.00,1014.00,VWS V14.00,2013-04-27 18:10:00,
2013-04-27 14:11:00,74.5,60.2,30.22,East,88,12.0,13.0,61,0.00,,---,0.00,1023.00,VWS V14.00,2013-04-27 18:11:00,
2013-04-27 14:12:00,74.5,59.7,30.22,East,85,10.0,13.0,60,0.00,,---,0.00,998.00,VWS V14.00,2013-04-27 18:12:00,
2013-04-27 14:13:00,74.5,59.7,30.22,East,89,8.0,13.0,60,0.00,,---,0.00,1020.00,VWS V14.00,2013-04-27 18:13:00,
2013-04-27 14:14:00,74.6,59.3,30.22,East,84,9.0,13.0,59,0.00,,---,0.00,1013.00,VWS V14.00,2013-04-27 18:14:00,
2013-04-27 14:15:00,74.6,59.8,30.22,East,89,11.0,13.0,60,0.00,,---,0.00,1021.00,VWS V14.00,2013-04-27 18:15:00,
2013-04-27 14:16:00,74.6,59.8,30.22,East,82,13.0,14.0,60,0.00,,---,0.00,1020.00,VWS V14.00,2013-04-27 18:16:00,
2013-04-27 14:17:00,74.6,59.8,30.22,East,87,12.0,14.0,60,0.00,,---,0.00,1023.00,VWS V14.00,2013-04-27 18:17:00,
2013-04-27 14:18:00,74.6,59.8,30.22,East,89,11.0,14.0,60,0.00,,---,0.00,995.00,VWS V14.00,2013-04-27 18:18:00,
2013-04-27 14:19:00,74.7,60.4,30.22,East,91,13.0,14.0,61,0.00,,---,0.00,997.00,VWS V14.00,2013-04-27 18:19:00,
2013-04-27 14:20:00,74.7,60.4,30.22,East,97,11.0,14.0,61,0.00,,---,0.00,991.00,VWS V14.00,2013-04-27 18:20:00,
2013-04-27 14:21:00,74.7,59.9,30.22,East,95,11.0,14.0,60,0.00,,---,0.00,970.00,VWS V14.00,2013-04-27 18:21:00,
2013-04-27 14:22:00,74.8,60.5,30.22,East,92,10.0,14.0,61,0.00,,---,0.00,990.00,VWS V14.00,2013-04-27 18:22:00,
2013-04-27 14:23:00,74.7,59.9,30.22,East,99,12.0,14.0,60,0.00,,---,0.00,1016.00,VWS V14.00,2013-04-27 18:23:00,
2013-04-27 14:24:00,74.7,59.9,30.22,East,94,10.0,14.0,60,0.00,,---,0.00,1021.00,VWS V14.00,2013-04-27 18:24:00,
2013-04-27 14:25:00,74.8,60.0,30.22,ENE,74,9.0,14.0,60,0.00,,---,0.00,1018.00,VWS V14.00,2013-04-27 18:25:00,
2013-04-27 14:26:00,74.8,60.9,30.21,East,99,11.0,14.0,62,0.00,,---,0.00,1016.00,VWS V14.00,2013-04-27 18:26:00,
2013-04-27 14:27:00,74.8,60.5,30.21,East,91,9.0,14.0,61,0.00,,---,0.00,1014.00,VWS V14.00,2013-04-27 18:27:00,
2013-04-27 14:28:00,74.9,60.6,30.21,East,83,10.0,14.0,61,0.00,,---,0.00,1007.00,VWS V14.00,2013-04-27 18:28:00,
2013-04-27 14:29:00,74.8,59.5,30.21,East,87,10.0,14.0,59,0.00,,---,0.00,1007.00,VWS V14.00,2013-04-27 18:29:00,
2013-04-27 14:30:00,74.8,59.5,30.21,East,82,10.0,14.0,59,0.00,,---,0.00,1004.00,VWS V14.00,2013-04-27 18:30:00,
2013-04-27 14:31:00,74.9,59.6,30.21,East,91,9.0,12.0,59,0.00,,---,0.00,1000.00,VWS V14.00,2013-04-27 18:31:00,
2013-04-27 14:32:00,74.8,59.0,30.21,East,96,10.0,12.0,58,0.00,,---,0.00,1000.00,VWS V14.00,2013-04-27 18:32:00,
2013-04-27 14:33:00,74.9,59.1,30.21,East,87,9.0,12.0,58,0.00,,---,0.00,986.00,VWS V14.00,2013-04-27 18:33:00,
2013-04-27 14:34:00,74.9,59.6,30.21,East,95,10.0,12.0,59,0.00,,---,0.00,986.00,VWS V14.00,2013-04-27 18:34:00,
2013-04-27 14:35:00,75.0,59.7,30.21,East,96,9.0,12.0,59,0.00,,---,0.00,990.00,VWS V14.00,2013-04-27 18:35:00,
2013-04-27 14:36:00,74.9,58.7,30.21,East,86,10.0,12.0,57,0.00,,---,0.00,983.00,VWS V14.00,2013-04-27 18:36:00,
2013-04-27 14:37:00,74.9,59.6,30.21,East,96,8.0,12.0,59,0.00,,---,0.00,988.00,VWS V14.00,2013-04-27 18:37:00,
2013-04-27 14:38:00,75.0,60.2,30.21,ENE,75,12.0,12.0,60,0.00,,---,0.00,984.00,VWS V14.00,2013-04-27 18:38:00,
2013-04-27 14:39:00,75.0,59.2,30.21,East,93,11.0,13.0,58,0.00,,---,0.00,986.00,VWS V14.00,2013-04-27 18:39:00,
2013-04-27 14:40:00,75.0,60.2,30.21,East,98,9.0,13.0,60,0.00,,---,0.00,988.00,VWS V14.00,2013-04-27 18:40:00,
2013-04-27 14:41:00,75.1,60.8,30.21,East,95,12.0,14.0,61,0.00,,---,0.00,990.00,VWS V14.00,2013-04-27 18:41:00,
2013-04-27 14:42:00,75.0,59.7,30.21,East,95,10.0,14.0,59,0.00,,---,0.00,997.00,VWS V14.00,2013-04-27 18:42:00,
2013-04-27 14:43:00,75.0,59.7,30.21,East,87,8.0,14.0,59,0.00,,---,0.00,1000.00,VWS V14.00,2013-04-27 18:43:00,
2013-04-27 14:44:00,75.1,60.3,30.21,East,90,7.0,14.0,60,0.00,,---,0.00,1004.00,VWS V14.00,2013-04-27 18:44:00,
2013-04-27 14:45:00,75.1,60.3,30.21,East,97,12.0,14.0,60,0.00,,---,0.00,995.00,VWS V14.00,2013-04-27 18:45:00,
2013-04-27 14:46:00,75.1,60.3,30.21,ESE,108,12.0,14.0,60,0.00,,---,0.00,991.00,VWS V14.00,2013-04-27 18:46:00,
2013-04-27 14:47:00,75.1,59.3,30.21,East,91,13.0,15.0,58,0.00,,---,0.00,986.00,VWS V14.00,2013-04-27 18:47:00,
2013-04-27 14:48:00,75.1,59.3,30.20,East,89,12.0,16.0,58,0.00,,---,0.00,977.00,VWS V14.00,2013-04-27 18:48:00,
2013-04-27 14:49:00,75.0,59.2,30.21,East,89,13.0,16.0,58,0.00,,---,0.00,972.00,VWS V14.00,2013-04-27 18:49:00,
2013-04-27 14:50:00,75.0,58.8,30.21,East,93,13.0,16.0,57,0.00,,---,0.00,956.00,VWS V14.00,2013-04-27 18:50:00,
2013-04-27 14:51:00,75.0,59.7,30.21,East,101,13.0,16.0,59,0.00,,---,0.00,958.00,VWS V14.00,2013-04-27 18:51:00,
2013-04-27 14:52:00,75.0,59.2,30.20,ESE,104,10.0,16.0,58,0.00,,---,0.00,970.00,VWS V14.00,2013-04-27 18:52:00,
2013-04-27 14:53:00,75.0,59.7,30.20,East,91,11.0,16.0,59,0.00,,---,0.00,965.00,VWS V14.00,2013-04-27 18:53:00,
2013-04-27 14:54:00,75.0,59.2,30.20,East,96,10.0,16.0,58,0.00,,---,0.00,970.00,VWS V14.00,2013-04-27 18:54:00,
2013-04-27 14:55:00,75.0,59.7,30.20,East,91,10.0,16.0,59,0.00,,---,0.00,969.00,VWS V14.00,2013-04-27 18:55:00,
2013-04-27 14:56:00,75.0,59.2,30.20,East,101,8.0,16.0,58,0.00,,---,0.00,967.00,VWS V14.00,2013-04-27 18:56:00,
2013-04-27 14:57:00,75.1,59.8,30.20,ENE,74,9.0,16.0,59,0.00,,---,0.00,962.00,VWS V14.00,2013-04-27 18:57:00,
2013-04-27 14:58:00,75.1,59.3,30.20,ENE,78,12.0,16.0,58,0.00,,---,0.00,960.00,VWS V14.00,2013-04-27 18:58:00,
2013-04-27 14:59:00,75.1,58.8,30.20,ENE,74,14.0,16.0,57,0.00,,---,0.00,958.00,VWS V14.00,2013-04-27 18:59:00,
2013-04-27 15:00:00,75.1,58.3,30.20,ENE,75,11.0,16.0,56,0.00,,---,0.00,954.00,VWS V14.00,2013-04-27 19:00:00,
2013-04-27 15:01:00,75.2,57.9,30.20,ENE,77,9.0,11.0,55,0.00,,---,0.00,953.00,VWS V14.00,2013-04-27 19:01:00,
2013-04-27 15:02:00,75.3,58.5,30.20,ESE,103,10.0,11.0,56,0.00,,---,0.00,951.00,VWS V14.00,2013-04-27 19:02:00,
2013-04-27 15:03:00,75.4,59.6,30.20,East,89,12.0,13.0,58,0.00,,---,0.00,947.00,VWS V14.00,2013-04-27 19:03:00,
2013-04-27 15:04:00,75.4,58.6,30.20,East,94,9.0,13.0,56,0.00,,---,0.00,944.00,VWS V14.00,2013-04-27 19:04:00,
2013-04-27 15:05:00,75.4,59.6,30.20,East,90,11.0,13.0,58,0.00,,---,0.00,940.00,VWS V14.00,2013-04-27 19:05:00,
2013-04-27 15:06:00,75.4,60.1,30.20,East,99,9.0,13.0,59,0.00,,---,0.00,933.00,VWS V14.00,2013-04-27 19:06:00,
2013-04-27 15:07:00,75.4,59.6,30.20,East,101,10.0,13.0,58,0.00,,---,0.00,933.00,VWS V14.00,2013-04-27 19:07:00,
2013-04-27 15:08:00,75.3,59.5,30.20,East,87,13.0,14.0,58,0.00,,---,0.00,926.00,VWS V14.00,2013-04-27 19:08:00,
2013-04-27 15:09:00,75.3,59.0,30.20,East,84,13.0,15.0,57,0.00,,---,0.00,926.00,VWS V14.00,2013-04-27 19:09:00,
2013-04-27 15:10:00,75.2,58.4,30.20,East,80,14.0,15.0,56,0.00,,---,0.00,930.00,VWS V14.00,2013-04-27 19:10:00,
2013-04-27 15:11:00,75.2,59.4,30.20,East,85,12.0,15.0,58,0.00,,---,0.00,930.00,VWS V14.00,2013-04-27 19:11:00,
2013-04-27 15:12:00,75.2,59.9,30.20,East,89,12.0,15.0,59,0.00,,---,0.00,925.00,VWS V14.00,2013-04-27 19:12:00,
2013-04-27 15:13:00,75.3,60.5,30.20,East,88,10.0,15.0,60,0.00,,---,0.00,926.00,VWS V14.00,2013-04-27 19:13:00,
2013-04-27 15:14:00,75.2,58.9,30.20,East,89,12.0,15.0,57,0.00,,---,0.00,921.00,VWS V14.00,2013-04-27 19:14:00,
2013-04-27 15:15:00,75.2,58.9,30.20,East,88,9.0,15.0,57,0.00,,---,0.00,918.00,VWS V14.00,2013-04-27 19:15:00,
2013-04-27 15:16:00,75.2,59.4,30.20,East,95,9.0,15.0,58,0.00,,---,0.00,914.00,VWS V14.00,2013-04-27 19:16:00,
2013-04-27 15:17:00,75.3,60.5,30.20,ENE,76,9.0,15.0,60,0.00,,---,0.00,914.00,VWS V14.00,2013-04-27 19:17:00,
2013-04-27 15:18:00,75.3,59.5,30.20,ESE,104,12.0,15.0,58,0.00,,---,0.00,912.00,VWS V14.00,2013-04-27 19:18:00,
2013-04-27 15:19:00,75.3,59.5,30.20,East,96,12.0,15.0,58,0.00,,---,0.00,911.00,VWS V14.00,2013-04-27 19:19:00,
2013-04-27 15:20:00,75.2,59.9,30.20,East,86,10.0,15.0,59,0.00,,---,0.00,911.00,VWS V14.00,2013-04-27 19:20:00,
2013-04-27 15:21:00,75.3,60.9,30.20,ESE,106,12.0,15.0,61,0.00,,---,0.00,907.00,VWS V14.00,2013-04-27 19:21:00,
2013-04-27 15:22:00,75.2,59.4,30.20,East,89,13.0,15.0,58,0.00,,---,0.00,907.00,VWS V14.00,2013-04-27 19:22:00,
2013-04-27 15:23:00,75.2,59.4,30.20,East,95,13.0,15.0,58,0.00,,---,0.00,905.00,VWS V14.00,2013-04-27 19:23:00,
2013-04-27 15:24:00,75.2,60.8,30.20,East,92,11.0,15.0,61,0.00,,---,0.00,904.00,VWS V14.00,2013-04-27 19:24:00,
2013-04-27 15:25:00,75.2,59.4,30.20,East,92,10.0,15.0,58,0.00,,---,0.00,902.00,VWS V14.00,2013-04-27 19:25:00,
2013-04-27 15:26:00,75.2,59.9,30.20,East,89,10.0,15.0,59,0.00,,---,0.00,898.00,VWS V14.00,2013-04-27 19:26:00,
2013-04-27 15:27:00,75.2,58.9,30.20,East,91,10.0,15.0,57,0.00,,---,0.00,898.00,VWS V14.00,2013-04-27 19:27:00,
2013-04-27 15:28:00,75.2,58.9,30.20,East,91,9.0,15.0,57,0.00,,---,0.00,893.00,VWS V14.00,2013-04-27 19:28:00,
2013-04-27 15:29:00,75.2,59.4,30.20,East,91,12.0,15.0,58,0.00,,---,0.00,889.00,VWS V14.00,2013-04-27 19:29:00,
2013-04-27 15:30:00,75.2,60.4,30.20,East,100,14.0,15.0,60,0.00,,---,0.00,888.00,VWS V14.00,2013-04-27 19:30:00,
2013-04-27 15:31:00,75.2,59.4,30.19,East,91,14.0,14.0,58,0.00,,---,0.00,891.00,VWS V14.00,2013-04-27 19:31:00,
2013-04-27 15:32:00,75.1,58.8,30.19,East,95,12.0,14.0,57,0.00,,---,0.00,886.00,VWS V14.00,2013-04-27 19:32:00,
2013-04-27 15:33:00,75.1,58.8,30.19,East,90,10.0,14.0,57,0.00,,---,0.00,884.00,VWS V14.00,2013-04-27 19:33:00,
2013-04-27 15:34:00,75.1,59.3,30.19,East,91,11.0,14.0,58,0.00,,---,0.00,882.00,VWS V14.00,2013-04-27 19:34:00,
2013-04-27 15:35:00,75.1,58.8,30.19,East,95,10.0,14.0,57,0.00,,---,0.00,879.00,VWS V14.00,2013-04-27 19:35:00,
2013-04-27 15:36:00,75.2,58.4,30.19,East,93,12.0,14.0,56,0.00,,---,0.00,877.00,VWS V14.00,2013-04-27 19:36:00,
2013-04-27 15:37:00,75.2,57.4,30.19,East,91,7.0,14.0,54,0.00,,---,0.00,875.00,VWS V14.00,2013-04-27 19:37:00,
2013-04-27 15:38:00,75.2,58.4,30.19,ESE,102,7.0,14.0,56,0.00,,---,0.00,870.00,VWS V14.00,2013-04-27 19:38:00,
2013-04-27 15:39:00,75.3,59.5,30.19,East,91,8.0,14.0,58,0.00,,---,0.00,867.00,VWS V14.00,2013-04-27 19:39:00,
2013-04-27 15:40:00,75.3,58.5,30.19,East,88,8.0,14.0,56,0.00,,---,0.00,865.00,VWS V14.00,2013-04-27 19:40:00,
2013-04-27 15:41:00,75.4,58.6,30.19,East,83,9.0,14.0,56,0.00,,---,0.00,861.00,VWS V14.00,2013-04-27 19:41:00,
2013-04-27 15:42:00,75.4,57.6,30.19,East,87,9.0,14.0,54,0.00,,---,0.00,860.00,VWS V14.00,2013-04-27 19:42:00,
2013-04-27 15:43:00,75.4,58.1,30.19,East,91,10.0,14.0,55,0.00,,---,0.00,856.00,VWS V14.00,2013-04-27 19:43:00,
2013-04-27 15:44:00,75.4,58.1,30.19,East,95,10.0,14.0,55,0.00,,---,0.00,853.00,VWS V14.00,2013-04-27 19:44:00,
2013-04-27 15:45:00,75.4,58.6,30.19,East,93,11.0,14.0,56,0.00,,---,0.00,851.00,VWS V14.00,2013-04-27 19:45:00,
2013-04-27 15:46:00,75.4,57.6,30.19,East,88,11.0,14.0,54,0.00,,---,0.00,847.00,VWS V14.00,2013-04-27 19:46:00,
2013-04-27 15:47:00,75.5,58.7,30.19,East,93,9.0,14.0,56,0.00,,---,0.00,846.00,VWS V14.00,2013-04-27 19:47:00,
2013-04-27 15:48:00,75.5,58.7,30.19,East,91,10.0,14.0,56,0.00,,---,0.00,846.00,VWS V14.00,2013-04-27 19:48:00,
2013-04-27 15:49:00,75.5,59.7,30.19,East,86,9.0,14.0,58,0.00,,---,0.00,844.00,VWS V14.00,2013-04-27 19:49:00,
2013-04-27 15:50:00,75.5,59.7,30.19,East,89,7.0,14.0,58,0.00,,---,0.00,838.00,VWS V14.00,2013-04-27 19:50:00,
2013-04-27 15:51:00,75.5,59.7,30.19,East,99,11.0,14.0,58,0.00,,---,0.00,835.00,VWS V14.00,2013-04-27 19:51:00,
2013-04-27 15:52:00,75.5,59.7,30.19,East,91,8.0,14.0,58,0.00,,---,0.00,833.00,VWS V14.00,2013-04-27 19:52:00,
2013-04-27 15:53:00,75.5,58.7,30.19,East,90,9.0,14.0,56,0.00,,---,0.00,831.00,VWS V14.00,2013-04-27 19:53:00,
2013-04-27 15:54:00,75.5,58.2,30.19,East,95,9.0,14.0,55,0.00,,---,0.00,830.00,VWS V14.00,2013-04-27 19:54:00,
2013-04-27 15:55:00,75.5,58.2,30.19,East,97,15.0,15.0,55,0.00,,---,0.00,826.00,VWS V14.00,2013-04-27 19:55:00,
2013-04-27 15:56:00,75.6,58.8,30.19,East,101,11.0,15.0,56,0.00,,---,0.00,819.00,VWS V14.00,2013-04-27 19:56:00,
2013-04-27 15:57:00,75.6,57.8,30.19,East,98,11.0,15.0,54,0.00,,---,0.00,817.00,VWS V14.00,2013-04-27 19:57:00,
2013-04-27 15:58:00,75.6,56.2,30.19,East,85,9.0,15.0,51,0.00,,---,0.00,814.00,VWS V14.00,2013-04-27 19:58:00,
2013-04-27 15:59:00,75.7,57.9,30.19,East,88,8.0,15.0,54,0.00,,---,0.00,810.00,VWS V14.00,2013-04-27 19:59:00,
2013-04-27 16:00:00,75.7,57.9,30.19,East,87,9.0,15.0,54,0.00,,---,0.00,809.00,VWS V14.00,2013-04-27 20:00:00,
2013-04-27 16:01:00,75.7,57.4,30.19,East,82,11.0,11.0,53,0.00,,---,0.00,802.00,VWS V14.00,2013-04-27 20:01:00,
2013-04-27 16:02:00,75.7,57.9,30.18,East,93,9.0,13.0,54,0.00,,---,0.00,798.00,VWS V14.00,2013-04-27 20:02:00,
2013-04-27 16:03:00,75.8,59.5,30.18,East,93,10.0,13.0,57,0.00,,---,0.00,795.00,VWS V14.00,2013-04-27 20:03:00,
2013-04-27 16:04:00,75.8,58.0,30.18,East,91,11.0,13.0,54,0.00,,---,0.00,793.00,VWS V14.00,2013-04-27 20:04:00,
2013-04-27 16:05:00,75.8,58.0,30.18,East,93,10.0,13.0,54,0.00,,---,0.00,789.00,VWS V14.00,2013-04-27 20:05:00,
2013-04-27 16:06:00,75.8,56.4,30.18,East,87,9.0,13.0,51,0.00,,---,0.00,791.00,VWS V14.00,2013-04-27 20:06:00,
2013-04-27 16:07:00,75.9,58.6,30.18,East,91,13.0,13.0,55,0.00,,---,0.00,789.00,VWS V14.00,2013-04-27 20:07:00,
2013-04-27 16:08:00,75.9,58.1,30.18,East,91,14.0,14.0,54,0.00,,---,0.00,788.00,VWS V14.00,2013-04-27 20:08:00,
2013-04-27 16:09:00,75.9,58.1,30.18,East,82,12.0,14.0,54,0.00,,---,0.00,784.00,VWS V14.00,2013-04-27 20:09:00,
2013-04-27 16:10:00,75.8,58.0,30.18,East,95,8.0,14.0,54,0.00,,---,0.00,782.00,VWS V14.00,2013-04-27 20:10:00,
2013-04-27 16:11:00,75.8,59.0,30.18,East,90,9.0,14.0,56,0.00,,---,0.00,779.00,VWS V14.00,2013-04-27 20:11:00,
2013-04-27 16:12:00,75.8,57.5,30.18,East,92,11.0,14.0,53,0.00,,---,0.00,775.00,VWS V14.00,2013-04-27 20:12:00,
2013-04-27 16:13:00,75.8,58.0,30.18,East,93,14.0,14.0,54,0.00,,---,0.00,770.00,VWS V14.00,2013-04-27 20:13:00,
2013-04-27 16:14:00,75.8,57.5,30.18,East,81,9.0,14.0,53,0.00,,---,0.00,766.00,VWS V14.00,2013-04-27 20:14:00,
2013-04-27 16:15:00,75.8,57.5,30.18,East,81,10.0,14.0,53,0.00,,---,0.00,765.00,VWS V14.00,2013-04-27 20:15:00,
2013-04-27 16:16:00,75.8,57.5,30.18,East,86,9.0,14.0,53,0.00,,---,0.00,761.00,VWS V14.00,2013-04-27 20:16:00,
2013-04-27 16:17:00,75.8,59.0,30.18,East,86,10.0,14.0,56,0.00,,---,0.00,758.00,VWS V14.00,2013-04-27 20:17:00,
2013-04-27 16:18:00,75.8,58.5,30.18,ESE,104,12.0,14.0,55,0.00,,---,0.00,758.00,VWS V14.00,2013-04-27 20:18:00,
2013-04-27 16:19:00,75.8,58.0,30.18,East,95,10.0,14.0,54,0.00,,---,0.00,752.00,VWS V14.00,2013-04-27 20:19:00,
2013-04-27 16:20:00,75.8,59.0,30.18,East,89,9.0,14.0,56,0.00,,---,0.00,751.00,VWS V14.00,2013-04-27 20:20:00,
2013-04-27 16:21:00,75.9,59.1,30.18,East,92,10.0,14.0,56,0.00,,---,0.00,747.00,VWS V14.00,2013-04-27 20:21:00,
2013-04-27 16:22:00,75.9,59.6,30.18,ESE,118,9.0,14.0,57,0.00,,---,0.00,744.00,VWS V14.00,2013-04-27 20:22:00,
2013-04-27 16:23:00,75.8,56.9,30.18,ESE,108,9.0,14.0,52,0.00,,---,0.00,742.00,VWS V14.00,2013-04-27 20:23:00,
2013-04-27 16:24:00,75.9,58.1,30.18,East,100,12.0,15.0,54,0.00,,---,0.00,737.00,VWS V14.00,2013-04-27 20:24:00,
2013-04-27 16:25:00,75.9,59.1,30.18,ESE,102,9.0,15.0,56,0.00,,---,0.00,728.00,VWS V14.00,2013-04-27 20:25:00,
2013-04-27 16:26:00,75.8,58.5,30.18,ESE,112,7.0,15.0,55,0.00,,---,0.00,724.00,VWS V14.00,2013-04-27 20:26:00,
2013-04-27 16:27:00,75.8,57.5,30.18,East,98,10.0,15.0,53,0.00,,---,0.00,721.00,VWS V14.00,2013-04-27 20:27:00,
2013-04-27 16:28:00,75.8,59.0,30.18,East,93,9.0,15.0,56,0.00,,---,0.00,717.00,VWS V14.00,2013-04-27 20:28:00,
2013-04-27 16:29:00,75.8,59.0,30.18,East,87,10.0,15.0,56,0.00,,---,0.00,714.00,VWS V14.00,2013-04-27 20:29:00,
2013-04-27 16:30:00,75.8,59.0,30.18,East,89,14.0,15.0,56,0.00,,---,0.00,708.00,VWS V14.00,2013-04-27 20:30:00,
2013-04-27 16:31:00,75.8,58.5,30.18,East,101,14.0,16.0,55,0.00,,---,0.00,705.00,VWS V14.00,2013-04-27 20:31:00,
2013-04-27 16:32:00,75.8,58.5,30.18,East,88,12.0,16.0,55,0.00,,---,0.00,703.00,VWS V14.00,2013-04-27 20:32:00,
2013-04-27 16:33:00,75.8,59.0,30.18,East,92,13.0,16.0,56,0.00,,---,0.00,701.00,VWS V14.00,2013-04-27 20:33:00,
2013-04-27 16:34:00,75.8,59.0,30.18,East,93,14.0,16.0,56,0.00,,---,0.00,698.00,VWS V14.00,2013-04-27 20:34:00,
2013-04-27 16:35:00,75.8,58.0,30.18,East,91,11.0,16.0,54,0.00,,---,0.00,696.00,VWS V14.00,2013-04-27 20:35:00,
2013-04-27 16:36:00,75.8,58.5,30.18,East,91,10.0,16.0,55,0.00,,---,0.00,693.00,VWS V14.00,2013-04-27 20:36:00,
2013-04-27 16:37:00,75.8,59.5,30.18,East,95,9.0,16.0,57,0.00,,---,0.00,686.00,VWS V14.00,2013-04-27 20:37:00,
2013-04-27 16:38:00,75.8,59.5,30.18,East,93,12.0,16.0,57,0.00,,---,0.00,682.00,VWS V14.00,2013-04-27 20:38:00,
2013-04-27 16:39:00,75.8,58.0,30.18,East,97,14.0,16.0,54,0.00,,---,0.00,679.00,VWS V14.00,2013-04-27 20:39:00,
2013-04-27 16:40:00,75.8,56.9,30.18,East,98,10.0,16.0,52,0.00,,---,0.00,675.00,VWS V14.00,2013-04-27 20:40:00,
2013-04-27 16:41:00,75.8,57.5,30.18,East,93,14.0,16.0,53,0.00,,---,0.00,673.00,VWS V14.00,2013-04-27 20:41:00,
2013-04-27 16:42:00,75.7,57.4,30.18,East,99,12.0,16.0,53,0.00,,---,0.00,670.00,VWS V14.00,2013-04-27 20:42:00,
2013-04-27 16:43:00,75.7,58.4,30.18,East,99,11.0,16.0,55,0.00,,---,0.00,664.00,VWS V14.00,2013-04-27 20:43:00,
2013-04-27 16:44:00,75.7,57.9,30.18,East,98,9.0,16.0,54,0.00,,---,0.00,661.00,VWS V14.00,2013-04-27 20:44:00,
2013-04-27 16:45:00,75.7,57.9,30.18,East,97,12.0,16.0,54,0.00,,---,0.00,659.00,VWS V14.00,2013-04-27 20:45:00,
2013-04-27 16:46:00,75.7,57.9,30.18,East,97,11.0,16.0,54,0.00,,---,0.00,656.00,VWS V14.00,2013-04-27 20:46:00,
2013-04-27 16:47:00,75.7,58.4,30.18,East,100,17.0,17.0,55,0.00,,---,0.00,652.00,VWS V14.00,2013-04-27 20:47:00,
2013-04-27 16:48:00,75.7,57.9,30.18,East,99,15.0,17.0,54,0.00,,---,0.00,645.00,VWS V14.00,2013-04-27 20:48:00,
2013-04-27 16:49:00,75.6,58.8,30.18,East,97,12.0,17.0,56,0.00,,---,0.00,642.00,VWS V14.00,2013-04-27 20:49:00,
2013-04-27 16:50:00,75.6,58.8,30.18,East,94,12.0,17.0,56,0.00,,---,0.00,638.00,VWS V14.00,2013-04-27 20:50:00,
2013-04-27 16:51:00,75.5,58.2,30.18,East,92,13.0,17.0,55,0.00,,---,0.00,635.00,VWS V14.00,2013-04-27 20:51:00,
2013-04-27 16:52:00,75.5,58.7,30.18,East,87,13.0,17.0,56,0.00,,---,0.00,633.00,VWS V14.00,2013-04-27 20:52:00,
2013-04-27 16:53:00,75.5,58.7,30.18,East,91,12.0,17.0,56,0.00,,---,0.00,629.00,VWS V14.00,2013-04-27 20:53:00,
2013-04-27 16:54:00,75.5,58.2,30.18,East,98,12.0,17.0,55,0.00,,---,0.00,624.00,VWS V14.00,2013-04-27 20:54:00,
2013-04-27 16:55:00,75.5,57.7,30.18,East,95,12.0,17.0,54,0.00,,---,0.00,621.00,VWS V14.00,2013-04-27 20:55:00,
2013-04-27 16:56:00,75.5,58.7,30.18,East,91,12.0,17.0,56,0.00,,---,0.00,619.00,VWS V14.00,2013-04-27 20:56:00,
2013-04-27 16:57:00,75.5,58.7,30.17,East,97,10.0,17.0,56,0.00,,---,0.00,617.00,VWS V14.00,2013-04-27 20:57:00,
2013-04-27 16:58:00,75.5,58.7,30.17,East,99,14.0,17.0,56,0.00,,---,0.00,613.00,VWS V14.00,2013-04-27 20:58:00,
2013-04-27 16:59:00,75.5,58.7,30.18,East,92,13.0,17.0,56,0.00,,---,0.00,612.00,VWS V14.00,2013-04-27 20:59:00,
2013-04-27 17:00:00,75.5,59.2,30.18,East,97,13.0,17.0,57,0.00,,---,0.00,606.00,VWS V14.00,2013-04-27 21:00:00,
2013-04-27 17:01:00,75.5,58.2,30.18,East,100,16.0,16.0,55,0.00,,---,0.00,605.00,VWS V14.00,2013-04-27 21:01:00,
2013-04-27 17:02:00,75.5,58.7,30.18,ESE,103,14.0,16.0,56,0.00,,---,0.00,601.00,VWS V14.00,2013-04-27 21:02:00,
2013-04-27 17:03:00,75.4,58.6,30.18,East,91,12.0,16.0,56,0.00,,---,0.00,598.00,VWS V14.00,2013-04-27 21:03:00,
2013-04-27 17:04:00,75.4,58.6,30.18,East,91,13.0,16.0,56,0.00,,---,0.00,594.00,VWS V14.00,2013-04-27 21:04:00,
2013-04-27 17:05:00,75.4,57.6,30.18,East,95,13.0,16.0,54,0.00,,---,0.00,591.00,VWS V14.00,2013-04-27 21:05:00,
2013-04-27 17:06:00,75.4,57.6,30.18,East,95,12.0,16.0,54,0.00,,---,0.00,584.00,VWS V14.00,2013-04-27 21:06:00,
2013-04-27 17:07:00,75.4,59.1,30.18,East,91,11.0,16.0,57,0.00,,---,0.00,578.00,VWS V14.00,2013-04-27 21:07:00,
2013-04-27 17:08:00,75.3,58.5,30.17,East,97,14.0,16.0,56,0.00,,---,0.00,573.00,VWS V14.00,2013-04-27 21:08:00,
2013-04-27 17:09:00,75.3,58.5,30.18,East,96,13.0,16.0,56,0.00,,---,0.00,570.00,VWS V14.00,2013-04-27 21:09:00,
2013-04-27 17:10:00,75.3,58.5,30.18,ESE,104,10.0,16.0,56,0.00,,---,0.00,564.00,VWS V14.00,2013-04-27 21:10:00,
2013-04-27 17:11:00,75.3,59.0,30.18,East,100,9.0,16.0,57,0.00,,---,0.00,559.00,VWS V14.00,2013-04-27 21:11:00,
2013-04-27 17:12:00,75.4,59.1,30.18,East,100,10.0,16.0,57,0.00,,---,0.00,555.00,VWS V14.00,2013-04-27 21:12:00,
2013-04-27 17:13:00,75.4,58.6,30.18,East,93,12.0,16.0,56,0.00,,---,0.00,552.00,VWS V14.00,2013-04-27 21:13:00,
2013-04-27 17:14:00,75.4,58.6,30.18,East,89,14.0,16.0,56,0.00,,---,0.00,547.00,VWS V14.00,2013-04-27 21:14:00,
2013-04-27 17:15:00,75.3,58.0,30.18,ESE,104,11.0,16.0,55,0.00,,---,0.00,541.00,VWS V14.00,2013-04-27 21:15:00,
2013-04-27 17:16:00,75.3,58.5,30.18,East,99,11.0,16.0,56,0.00,,---,0.00,538.00,VWS V14.00,2013-04-27 21:16:00,
2013-04-27 17:17:00,75.3,59.0,30.17,East,101,10.0,16.0,57,0.00,,---,0.00,529.00,VWS V14.00,2013-04-27 21:17:00,
2013-04-27 17:18:00,75.4,59.1,30.17,East,95,10.0,16.0,57,0.00,,---,0.00,526.00,VWS V14.00,2013-04-27 21:18:00,
2013-04-27 17:19:00,75.3,59.5,30.18,East,97,13.0,16.0,58,0.00,,---,0.00,524.00,VWS V14.00,2013-04-27 21:19:00,
2013-04-27 17:20:00,75.3,58.0,30.18,ESE,104,11.0,16.0,55,0.00,,---,0.00,520.00,VWS V14.00,2013-04-27 21:20:00,
2013-04-27 17:21:00,75.3,59.5,30.18,East,101,13.0,16.0,58,0.00,,---,0.00,515.00,VWS V14.00,2013-04-27 21:21:00,
2013-04-27 17:22:00,75.3,59.5,30.18,East,90,13.0,16.0,58,0.00,,---,0.00,515.00,VWS V14.00,2013-04-27 21:22:00,
2013-04-27 17:23:00,75.3,59.0,30.18,East,89,14.0,16.0,57,0.00,,---,0.00,510.00,VWS V14.00,2013-04-27 21:23:00,
2013-04-27 17:24:00,75.3,58.5,30.18,East,90,12.0,16.0,56,0.00,,---,0.00,506.00,VWS V14.00,2013-04-27 21:24:00,
2013-04-27 17:25:00,75.3,59.0,30.18,East,87,12.0,16.0,57,0.00,,---,0.00,503.00,VWS V14.00,2013-04-27 21:25:00,
2013-04-27 17:26:00,75.2,58.4,30.18,East,87,14.0,16.0,56,0.00,,---,0.00,499.00,VWS V14.00,2013-04-27 21:26:00,
2013-04-27 17:27:00,75.3,58.0,30.17,East,88,13.0,16.0,55,0.00,,---,0.00,496.00,VWS V14.00,2013-04-27 21:27:00,
2013-04-27 17:28:00,75.3,59.0,30.17,East,101,10.0,16.0,57,0.00,,---,0.00,492.00,VWS V14.00,2013-04-27 21:28:00,
2013-04-27 17:29:00,75.2,59.4,30.17,ESE,112,14.0,16.0,58,0.00,,---,0.00,487.00,VWS V14.00,2013-04-27 21:29:00,
2013-04-27 17:30:00,75.2,58.4,30.17,East,85,11.0,16.0,56,0.00,,---,0.00,483.00,VWS V14.00,2013-04-27 21:30:00,
2013-04-27 17:31:00,75.2,59.4,30.17,East,88,10.0,12.0,58,0.00,,---,0.00,482.00,VWS V14.00,2013-04-27 21:31:00,
2013-04-27 17:32:00,75.2,58.9,30.17,East,90,13.0,14.0,57,0.00,,---,0.00,478.00,VWS V14.00,2013-04-27 21:32:00,
2013-04-27 17:33:00,75.2,58.4,30.17,East,94,13.0,15.0,56,0.00,,---,0.00,476.00,VWS V14.00,2013-04-27 21:33:00,
2013-04-27 17:34:00,75.2,57.4,30.17,East,96,13.0,15.0,54,0.00,,---,0.00,473.00,VWS V14.00,2013-04-27 21:34:00,
2013-04-27 17:35:00,75.2,58.4,30.17,East,92,13.0,15.0,56,0.00,,---,0.00,466.00,VWS V14.00,2013-04-27 21:35:00,
2013-04-27 17:36:00,75.2,58.4,30.17,East,100,12.0,15.0,56,0.00,,---,0.00,462.00,VWS V14.00,2013-04-27 21:36:00,
2013-04-27 17:37:00,75.2,59.4,30.17,East,98,10.0,15.0,58,0.00,,---,0.00,459.00,VWS V14.00,2013-04-27 21:37:00,
2013-04-27 17:38:00,75.2,59.4,30.17,ESE,104,11.0,15.0,58,0.00,,---,0.00,454.00,VWS V14.00,2013-04-27 21:38:00,
2013-04-27 17:39:00,75.2,58.4,30.17,East,91,13.0,15.0,56,0.00,,---,0.00,450.00,VWS V14.00,2013-04-27 21:39:00,
2013-04-27 17:40:00,75.1,58.3,30.17,East,87,12.0,16.0,56,0.00,,---,0.00,446.00,VWS V14.00,2013-04-27 21:40:00,
2013-04-27 17:41:00,75.1,58.8,30.17,East,89,14.0,16.0,57,0.00,,---,0.00,439.00,VWS V14.00,2013-04-27 21:41:00,
2013-04-27 17:42:00,75.1,58.3,30.17,East,91,12.0,16.0,56,0.00,,---,0.00,436.00,VWS V14.00,2013-04-27 21:42:00,
2013-04-27 17:43:00,75.0,58.3,30.17,East,97,13.0,16.0,56,0.00,,---,0.00,432.00,VWS V14.00,2013-04-27 21:43:00,
2013-04-27 17:44:00,75.0,59.2,30.18,East,91,12.0,16.0,58,0.00,,---,0.00,429.00,VWS V14.00,2013-04-27 21:44:00,
2013-04-27 17:45:00,75.0,59.2,30.18,ESE,104,13.0,17.0,58,0.00,,---,0.00,424.00,VWS V14.00,2013-04-27 21:45:00,
2013-04-27 17:46:00,75.0,59.7,30.18,East,96,15.0,17.0,59,0.00,,---,0.00,422.00,VWS V14.00,2013-04-27 21:46:00,
2013-04-27 17:47:00,74.9,58.7,30.18,East,84,13.0,17.0,57,0.00,,---,0.00,418.00,VWS V14.00,2013-04-27 21:47:00,
2013-04-27 17:48:00,74.9,59.1,30.18,ENE,78,11.0,17.0,58,0.00,,---,0.00,410.00,VWS V14.00,2013-04-27 21:48:00,
2013-04-27 17:49:00,74.9,59.1,30.18,East,87,8.0,17.0,58,0.00,,---,0.00,406.00,VWS V14.00,2013-04-27 21:49:00,
2013-04-27 17:50:00,74.9,58.7,30.17,East,96,12.0,17.0,57,0.00,,---,0.00,401.00,VWS V14.00,2013-04-27 21:50:00,
2013-04-27 17:51:00,74.9,59.6,30.17,East,97,12.0,17.0,59,0.00,,---,0.00,397.00,VWS V14.00,2013-04-27 21:51:00,
2013-04-27 17:52:00,74.9,59.6,30.17,ESE,104,9.0,17.0,59,0.00,,---,0.00,394.00,VWS V14.00,2013-04-27 21:52:00,
2013-04-27 17:53:00,74.9,59.1,30.18,East,99,13.0,17.0,58,0.00,,---,0.00,388.00,VWS V14.00,2013-04-27 21:53:00,
2013-04-27 17:54:00,74.9,59.1,30.17,ENE,72,12.0,17.0,58,0.00,,---,0.00,383.00,VWS V14.00,2013-04-27 21:54:00,
2013-04-27 17:55:00,74.9,59.1,30.17,ENE,74,9.0,17.0,58,0.00,,---,0.00,381.00,VWS V14.00,2013-04-27 21:55:00,
2013-04-27 17:56:00,75.0,59.2,30.17,East,80,11.0,17.0,58,0.00,,---,0.00,378.00,VWS V14.00,2013-04-27 21:56:00,
2013-04-27 17:57:00,75.0,59.7,30.17,East,81,14.0,17.0,59,0.00,,---,0.00,374.00,VWS V14.00,2013-04-27 21:57:00,
2013-04-27 17:58:00,75.0,58.8,30.17,ENE,75,16.0,17.0,57,0.00,,---,0.00,371.00,VWS V14.00,2013-04-27 21:58:00,
2013-04-27 17:59:00,74.9,59.1,30.17,East,92,11.0,17.0,58,0.00,,---,0.00,364.00,VWS V14.00,2013-04-27 21:59:00,
2013-04-27 18:00:00,74.9,58.7,30.17,East,91,14.0,17.0,57,0.00,,---,0.00,362.00,VWS V14.00,2013-04-27 22:00:00,
2013-04-27 18:01:00,74.9,58.2,30.17,East,97,12.0,14.0,56,0.00,,---,0.00,359.00,VWS V14.00,2013-04-27 22:01:00,
2013-04-27 18:02:00,74.9,59.1,30.17,East,97,9.0,14.0,58,0.00,,---,0.00,355.00,VWS V14.00,2013-04-27 22:02:00,
2013-04-27 18:03:00,74.9,59.1,30.17,East,83,11.0,14.0,58,0.00,,---,0.00,352.00,VWS V14.00,2013-04-27 22:03:00,
2013-04-27 18:04:00,74.9,59.1,30.17,East,83,13.0,14.0,58,0.00,,---,0.00,345.00,VWS V14.00,2013-04-27 22:04:00,
2013-04-27 18:05:00,74.9,59.1,30.17,East,101,14.0,14.0,58,0.00,,---,0.00,341.00,VWS V14.00,2013-04-27 22:05:00,
2013-04-27 18:06:00,74.9,57.7,30.17,East,100,9.0,14.0,55,0.00,,---,0.00,338.00,VWS V14.00,2013-04-27 22:06:00,
2013-04-27 18:07:00,74.9,58.7,30.17,East,83,11.0,14.0,57,0.00,,---,0.00,334.00,VWS V14.00,2013-04-27 22:07:00,
2013-04-27 18:08:00,74.9,58.7,30.17,East,92,10.0,14.0,57,0.00,,---,0.00,330.00,VWS V14.00,2013-04-27 22:08:00,
2013-04-27 18:09:00,74.9,57.7,30.17,East,93,11.0,14.0,55,0.00,,---,0.00,327.00,VWS V14.00,2013-04-27 22:09:00,
2013-04-27 18:10:00,74.9,59.1,30.17,East,97,11.0,14.0,58,0.00,,---,0.00,322.00,VWS V14.00,2013-04-27 22:10:00,
2013-04-27 18:11:00,74.9,59.1,30.17,East,100,12.0,14.0,58,0.00,,---,0.00,318.00,VWS V14.00,2013-04-27 22:11:00,
2013-04-27 18:12:00,74.9,58.7,30.17,East,87,12.0,14.0,57,0.00,,---,0.00,315.00,VWS V14.00,2013-04-27 22:12:00,
2013-04-27 18:13:00,74.8,58.1,30.17,East,93,11.0,14.0,56,0.00,,---,0.00,311.00,VWS V14.00,2013-04-27 22:13:00,
2013-04-27 18:14:00,74.9,58.2,30.17,East,86,12.0,14.0,56,0.00,,---,0.00,308.00,VWS V14.00,2013-04-27 22:14:00,
2013-04-27 18:15:00,74.9,59.1,30.17,East,94,13.0,14.0,58,0.00,,---,0.00,302.00,VWS V14.00,2013-04-27 22:15:00,
2013-04-27 18:16:00,74.8,58.6,30.17,East,95,12.0,14.0,57,0.00,,---,0.00,295.00,VWS V14.00,2013-04-27 22:16:00,
2013-04-27 18:17:00,74.8,59.0,30.17,East,85,10.0,14.0,58,0.00,,---,0.00,290.00,VWS V14.00,2013-04-27 22:17:00,
2013-04-27 18:18:00,74.8,58.1,30.17,East,80,13.0,14.0,56,0.00,,---,0.00,288.00,VWS V14.00,2013-04-27 22:18:00,
2013-04-27 18:19:00,74.8,59.0,30.17,East,89,10.0,15.0,58,0.00,,---,0.00,285.00,VWS V14.00,2013-04-27 22:19:00,
2013-04-27 18:20:00,74.8,58.1,30.17,East,80,10.0,15.0,56,0.00,,---,0.00,281.00,VWS V14.00,2013-04-27 22:20:00,
2013-04-27 18:21:00,74.8,59.5,30.17,East,89,8.0,15.0,59,0.00,,---,0.00,278.00,VWS V14.00,2013-04-27 22:21:00,
2013-04-27 18:22:00,74.8,60.0,30.17,East,83,12.0,15.0,60,0.00,,---,0.00,271.00,VWS V14.00,2013-04-27 22:22:00,
2013-04-27 18:23:00,74.8,59.5,30.17,East,85,10.0,15.0,59,0.00,,---,0.00,267.00,VWS V14.00,2013-04-27 22:23:00,
2013-04-27 18:24:00,74.8,59.0,30.17,East,90,11.0,15.0,58,0.00,,---,0.00,264.00,VWS V14.00,2013-04-27 22:24:00,
2013-04-27 18:25:00,74.7,58.5,30.17,East,85,12.0,15.0,57,0.00,,---,0.00,260.00,VWS V14.00,2013-04-27 22:25:00,
2013-04-27 18:26:00,74.7,59.0,30.17,ENE,71,12.0,15.0,58,0.00,,---,0.00,258.00,VWS V14.00,2013-04-27 22:26:00,
2013-04-27 18:27:00,74.6,58.9,30.17,ENE,72,11.0,15.0,58,0.00,,---,0.00,255.00,VWS V14.00,2013-04-27 22:27:00,
2013-04-27 18:28:00,74.6,58.4,30.17,East,80,10.0,15.0,57,0.00,,---,0.00,250.00,VWS V14.00,2013-04-27 22:28:00,
2013-04-27 18:29:00,74.6,58.4,30.17,East,87,9.0,15.0,57,0.00,,---,0.00,246.00,VWS V14.00,2013-04-27 22:29:00,
2013-04-27 18:30:00,74.6,59.8,30.17,East,83,11.0,15.0,60,0.00,,---,0.00,241.00,VWS V14.00,2013-04-27 22:30:00,
2013-04-27 18:31:00,74.6,57.9,30.17,East,85,11.0,12.0,56,0.00,,---,0.00,237.00,VWS V14.00,2013-04-27 22:31:00,
2013-04-27 18:32:00,74.6,58.4,30.17,East,90,7.0,12.0,57,0.00,,---,0.00,236.00,VWS V14.00,2013-04-27 22:32:00,
2013-04-27 18:33:00,74.6,58.4,30.17,East,81,12.0,13.0,57,0.00,,---,0.00,229.00,VWS V14.00,2013-04-27 22:33:00,
2013-04-27 18:34:00,74.6,57.4,30.17,East,83,13.0,14.0,55,0.00,,---,0.00,225.00,VWS V14.00,2013-04-27 22:34:00,
2013-04-27 18:35:00,74.6,58.4,30.17,East,95,9.0,14.0,57,0.00,,---,0.00,223.00,VWS V14.00,2013-04-27 22:35:00,
2013-04-27 18:36:00,74.6,59.3,30.17,East,93,11.0,14.0,59,0.00,,---,0.00,220.00,VWS V14.00,2013-04-27 22:36:00,
2013-04-27 18:37:00,74.6,59.3,30.17,East,88,13.0,14.0,59,0.00,,---,0.00,216.00,VWS V14.00,2013-04-27 22:37:00,
2013-04-27 18:38:00,74.6,57.4,30.17,East,93,10.0,14.0,55,0.00,,---,0.00,211.00,VWS V14.00,2013-04-27 22:38:00,
2013-04-27 18:39:00,74.6,58.9,30.17,East,93,11.0,14.0,58,0.00,,---,0.00,209.00,VWS V14.00,2013-04-27 22:39:00,
2013-04-27 18:40:00,74.5,58.8,30.17,East,92,11.0,14.0,58,0.00,,---,0.00,199.00,VWS V14.00,2013-04-27 22:40:00,
2013-04-27 18:41:00,74.5,58.3,30.17,East,95,12.0,14.0,57,0.00,,---,0.00,197.00,VWS V14.00,2013-04-27 22:41:00,
2013-04-27 18:42:00,74.5,58.3,30.17,East,93,11.0,14.0,57,0.00,,---,0.00,193.00,VWS V14.00,2013-04-27 22:42:00,
2013-04-27 18:43:00,74.5,59.2,30.17,East,80,12.0,14.0,59,0.00,,---,0.00,190.00,VWS V14.00,2013-04-27 22:43:00,
2013-04-27 18:44:00,74.5,59.7,30.17,East,85,11.0,14.0,60,0.00,,---,0.00,186.00,VWS V14.00,2013-04-27 22:44:00,
2013-04-27 18:45:00,74.5,58.8,30.17,East,79,10.0,14.0,58,0.00,,---,0.00,178.00,VWS V14.00,2013-04-27 22:45:00,
2013-04-27 18:46:00,74.5,59.7,30.17,ENE,75,11.0,14.0,60,0.00,,---,0.00,174.00,VWS V14.00,2013-04-27 22:46:00,
2013-04-27 18:47:00,74.5,59.2,30.17,East,80,14.0,14.0,59,0.00,,---,0.00,169.00,VWS V14.00,2013-04-27 22:47:00,
2013-04-27 18:48:00,74.4,60.1,30.17,East,80,11.0,14.0,61,0.00,,---,0.00,167.00,VWS V14.00,2013-04-27 22:48:00,
2013-04-27 18:49:00,74.4,59.2,30.17,East,82,12.0,15.0,59,0.00,,---,0.00,163.00,VWS V14.00,2013-04-27 22:49:00,
2013-04-27 18:50:00,74.4,58.2,30.17,East,89,13.0,15.0,57,0.00,,---,0.00,160.00,VWS V14.00,2013-04-27 22:50:00,
2013-04-27 18:51:00,74.4,58.7,30.17,East,83,14.0,15.0,58,0.00,,---,0.00,153.00,VWS V14.00,2013-04-27 22:51:00,
2013-04-27 18:52:00,74.3,58.6,30.17,East,84,13.0,15.0,58,0.00,,---,0.00,149.00,VWS V14.00,2013-04-27 22:52:00,
2013-04-27 18:53:00,74.3,58.1,30.17,ESE,104,12.0,15.0,57,0.00,,---,0.00,146.00,VWS V14.00,2013-04-27 22:53:00,
2013-04-27 18:54:00,74.3,60.0,30.17,ENE,77,10.0,15.0,61,0.00,,---,0.00,142.00,VWS V14.00,2013-04-27 22:54:00,
2013-04-27 18:55:00,74.4,60.5,30.17,ENE,74,13.0,15.0,62,0.00,,---,0.00,139.00,VWS V14.00,2013-04-27 22:55:00,
2013-04-27 18:56:00,74.4,60.1,30.17,East,81,13.0,15.0,61,0.00,,---,0.00,135.00,VWS V14.00,2013-04-27 22:56:00,
2013-04-27 18:57:00,74.3,59.5,30.17,East,82,14.0,15.0,60,0.00,,---,0.00,128.00,VWS V14.00,2013-04-27 22:57:00,
2013-04-27 18:58:00,74.3,59.1,30.17,ENE,71,10.0,15.0,59,0.00,,---,0.00,125.00,VWS V14.00,2013-04-27 22:58:00,
2013-04-27 18:59:00,74.2,59.0,30.17,ENE,68,10.0,15.0,59,0.00,,---,0.00,121.00,VWS V14.00,2013-04-27 22:59:00,
2013-04-27 19:00:00,74.2,58.5,30.17,ENE,70,14.0,15.0,58,0.00,,---,0.00,118.00,VWS V14.00,2013-04-27 23:00:00,
2013-04-27 19:01:00,74.2,58.5,30.17,East,79,11.0,15.0,58,0.00,,---,0.00,114.00,VWS V14.00,2013-04-27 23:01:00,
2013-04-27 19:02:00,74.1,58.4,30.17,ENE,70,14.0,15.0,58,0.00,,---,0.00,111.00,VWS V14.00,2013-04-27 23:02:00,
2013-04-27 19:03:00,74.1,57.9,30.17,ENE,74,9.0,15.0,57,0.00,,---,0.00,104.00,VWS V14.00,2013-04-27 23:03:00,
2013-04-27 19:04:00,74.1,59.3,30.17,ENE,78,10.0,15.0,60,0.00,,---,0.00,98.00,VWS V14.00,2013-04-27 23:04:00,
2013-04-27 19:05:00,74.1,58.4,30.17,East,79,9.0,15.0,58,0.00,,---,0.00,98.00,VWS V14.00,2013-04-27 23:05:00,
2013-04-27 19:06:00,74.1,58.9,30.16,ENE,74,9.0,15.0,59,0.00,,---,0.00,93.00,VWS V14.00,2013-04-27 23:06:00,
2013-04-27 19:07:00,74.1,58.4,30.16,ENE,76,14.0,15.0,58,0.00,,---,0.00,91.00,VWS V14.00,2013-04-27 23:07:00,
2013-04-27 19:08:00,74.0,57.8,30.16,ENE,77,13.0,15.0,57,0.00,,---,0.00,90.00,VWS V14.00,2013-04-27 23:08:00,
2013-04-27 19:09:00,74.0,57.8,30.16,ENE,74,13.0,15.0,57,0.00,,---,0.00,83.00,VWS V14.00,2013-04-27 23:09:00,
2013-04-27 19:10:00,74.0,58.3,30.16,ENE,77,11.0,15.0,58,0.00,,---,0.00,81.00,VWS V14.00,2013-04-27 23:10:00,
2013-04-27 19:11:00,74.0,58.8,30.16,East,81,14.0,15.0,59,0.00,,---,0.00,79.00,VWS V14.00,2013-04-27 23:11:00,
2013-04-27 19:12:00,73.9,58.7,30.16,East,81,14.0,15.0,59,0.00,,---,0.00,76.00,VWS V14.00,2013-04-27 23:12:00,
2013-04-27 19:13:00,73.9,58.7,30.16,ENE,60,10.0,15.0,59,0.00,,---,0.00,72.00,VWS V14.00,2013-04-27 23:13:00,
2013-04-27 19:14:00,73.9,58.7,30.16,ENE,74,9.0,15.0,59,0.00,,---,0.00,70.00,VWS V14.00,2013-04-27 23:14:00,
2013-04-27 19:15:00,73.9,59.2,30.16,ENE,68,13.0,15.0,60,0.00,,---,0.00,65.00,VWS V14.00,2013-04-27 23:15:00,
2013-04-27 19:16:00,73.8,58.6,30.16,ENE,77,10.0,15.0,59,0.00,,---,0.00,63.00,VWS V14.00,2013-04-27 23:16:00,
2013-04-27 19:17:00,73.8,59.1,30.16,ENE,71,9.0,15.0,60,0.00,,---,0.00,60.00,VWS V14.00,2013-04-27 23:17:00,
2013-04-27 19:18:00,73.8,60.0,30.16,ENE,62,9.0,15.0,62,0.00,,---,0.00,58.00,VWS V14.00,2013-04-27 23:18:00,
2013-04-27 19:19:00,73.7,59.4,30.16,NE,41,5.0,15.0,61,0.00,,---,0.00,54.00,VWS V14.00,2013-04-27 23:19:00,
2013-04-27 19:20:00,73.7,59.4,30.16,ENE,65,10.0,15.0,61,0.00,,---,0.00,53.00,VWS V14.00,2013-04-27 23:20:00,
2013-04-27 19:21:00,73.6,59.8,30.16,ENE,68,10.0,15.0,62,0.00,,---,0.00,47.00,VWS V14.00,2013-04-27 23:21:00,
2013-04-27 19:22:00,73.5,59.2,30.16,NE,56,12.0,15.0,61,0.00,,---,0.00,46.00,VWS V14.00,2013-04-27 23:22:00,
2013-04-27 19:23:00,73.4,59.2,30.16,ENE,62,8.0,15.0,61,0.00,,---,0.00,46.00,VWS V14.00,2013-04-27 23:23:00,
2013-04-27 19:24:00,73.3,59.5,30.16,ENE,59,10.0,15.0,62,0.00,,---,0.00,40.00,VWS V14.00,2013-04-27 23:24:00,
2013-04-27 19:25:00,73.2,59.4,30.16,ENE,62,9.0,15.0,62,0.00,,---,0.00,39.00,VWS V14.00,2013-04-27 23:25:00,
2013-04-27 19:26:00,73.1,59.3,30.16,ENE,64,9.0,15.0,62,0.00,,---,0.00,35.00,VWS V14.00,2013-04-27 23:26:00,
2013-04-27 19:27:00,73.1,59.8,30.16,East,81,10.0,15.0,63,0.00,,---,0.00,33.00,VWS V14.00,2013-04-27 23:27:00,
2013-04-27 19:28:00,73.0,59.7,30.16,ENE,71,9.0,15.0,63,0.00,,---,0.00,32.00,VWS V14.00,2013-04-27 23:28:00,
2013-04-27 19:29:00,73.0,59.2,30.16,ENE,77,8.0,15.0,62,0.00,,---,0.00,28.00,VWS V14.00,2013-04-27 23:29:00,
2013-04-27 19:30:00,72.9,59.6,30.16,ENE,65,10.0,15.0,63,0.00,,---,0.00,25.00,VWS V14.00,2013-04-27 23:30:00,
2013-04-27 19:31:00,72.8,59.9,30.16,ENE,66,9.0,11.0,64,0.00,,---,0.00,23.00,VWS V14.00,2013-04-27 23:31:00,
2013-04-27 19:32:00,72.7,60.3,30.16,ENE,72,8.0,11.0,65,0.00,,---,0.00,21.00,VWS V14.00,2013-04-27 23:32:00,
2013-04-27 19:33:00,72.6,60.2,30.16,ENE,72,12.0,12.0,65,0.00,,---,0.00,19.00,VWS V14.00,2013-04-27 23:33:00,
2013-04-27 19:34:00,72.5,60.1,30.16,ENE,61,9.0,12.0,65,0.00,,---,0.00,19.00,VWS V14.00,2013-04-27 23:34:00,
2013-04-27 19:35:00,72.4,59.5,30.17,ENE,62,13.0,17.0,64,0.00,,---,0.00,18.00,VWS V14.00,2013-04-27 23:35:00,
2013-04-27 19:36:00,72.3,59.9,30.17,ENE,57,11.0,17.0,65,0.00,,---,0.00,18.00,VWS V14.00,2013-04-27 23:36:00,
2013-04-27 19:37:00,72.2,60.2,30.17,ENE,58,11.0,17.0,66,0.00,,---,0.00,16.00,VWS V14.00,2013-04-27 23:37:00,
2013-04-27 19:38:00,72.2,60.2,30.17,ENE,74,11.0,17.0,66,0.00,,---,0.00,14.00,VWS V14.00,2013-04-27 23:38:00,
2013-04-27 19:39:00,72.1,60.5,30.17,ENE,62,16.0,17.0,67,0.00,,---,0.00,14.00,VWS V14.00,2013-04-27 23:39:00,
2013-04-27 19:40:00,72.1,60.5,30.17,ENE,66,8.0,17.0,67,0.00,,---,0.00,12.00,VWS V14.00,2013-04-27 23:40:00,
2013-04-27 19:41:00,72.0,60.9,30.17,ENE,69,10.0,17.0,68,0.00,,---,0.00,12.00,VWS V14.00,2013-04-27 23:41:00,
2013-04-27 19:42:00,71.9,61.2,30.17,ENE,65,11.0,17.0,69,0.00,,---,0.00,12.00,VWS V14.00,2013-04-27 23:42:00,
2013-04-27 19:43:00,71.8,60.7,30.17,ENE,61,10.0,17.0,68,0.00,,---,0.00,11.00,VWS V14.00,2013-04-27 23:43:00,
2013-04-27 19:44:00,71.8,61.1,30.16,ENE,64,13.0,17.0,69,0.00,,---,0.00,9.00,VWS V14.00,2013-04-27 23:44:00,
2013-04-27 19:45:00,71.7,61.0,30.16,NE,55,10.0,17.0,69,0.00,,---,0.00,9.00,VWS V14.00,2013-04-27 23:45:00,
2013-04-27 19:46:00,71.7,61.4,30.17,ENE,64,11.0,17.0,70,0.00,,---,0.00,7.00,VWS V14.00,2013-04-27 23:46:00,
2013-04-27 19:47:00,71.6,60.9,30.17,ENE,70,8.0,17.0,69,0.00,,---,0.00,7.00,VWS V14.00,2013-04-27 23:47:00,
2013-04-27 19:48:00,71.6,61.3,30.16,ENE,64,9.0,17.0,70,0.00,,---,0.00,5.00,VWS V14.00,2013-04-27 23:48:00,
2013-04-27 19:49:00,71.5,60.8,30.17,ENE,64,10.0,17.0,69,0.00,,---,0.00,5.00,VWS V14.00,2013-04-27 23:49:00,
2013-04-27 19:50:00,71.5,61.2,30.17,ENE,64,8.0,17.0,70,0.00,,---,0.00,0.00,VWS V14.00,2013-04-27 23:50:00,
2013-04-27 19:51:00,71.4,61.1,30.17,ENE,64,8.0,17.0,70,0.00,,---,0.00,0.00,VWS V14.00,2013-04-27 23:51:00,
2013-04-27 19:52:00,71.3,61.0,30.17,ENE,66,9.0,17.0,70,0.00,,---,0.00,0.00,VWS V14.00,2013-04-27 23:52:00,
2013-04-27 19:53:00,71.3,61.4,30.16,ENE,61,6.0,17.0,71,0.00,,---,0.00,0.00,VWS V14.00,2013-04-27 23:53:00,
2013-04-27 19:54:00,71.3,61.8,30.17,ENE,74,8.0,17.0,72,0.00,,---,0.00,0.00,VWS V14.00,2013-04-27 23:54:00,
2013-04-27 19:55:00,71.3,61.4,30.17,NE,41,11.0,17.0,71,0.00,,---,0.00,0.00,VWS V14.00,2013-04-27 23:55:00,
2013-04-27 19:56:00,71.2,61.3,30.17,NE,52,9.0,17.0,71,0.00,,---,0.00,0.00,VWS V14.00,2013-04-27 23:56:00,
2013-04-27 19:57:00,71.2,61.7,30.16,ENE,60,10.0,17.0,72,0.00,,---,0.00,0.00,VWS V14.00,2013-04-27 23:57:00,
2013-04-27 19:58:00,71.2,61.7,30.17,NE,54,6.0,17.0,72,0.00,,---,0.00,0.00,VWS V14.00,2013-04-27 23:58:00,
2013-04-27 19:59:00,71.1,61.6,30.17,ENE,59,8.0,17.0,72,0.00,,---,0.00,0.00,VWS V14.00,2013-04-27 23:59:00,
2013-04-27 20:00:00,71.1,61.6,30.17,ENE,68,6.0,17.0,72,0.00,,---,0.00,0.00,VWS V14.00,2013-04-28 00:00:00,
2013-04-27 20:01:00,71.1,62.0,30.17,ENE,66,6.0,10.0,73,0.00,,---,0.00,0.00,VWS V14.00,2013-04-28 00:01:00,
2013-04-27 20:02:00,71.0,61.5,30.17,ENE,62,7.0,10.0,72,0.00,,---,0.00,0.00,VWS V14.00,2013-04-28 00:02:00,
2013-04-27 20:03:00,71.0,61.9,30.17,ENE,63,8.0,10.0,73,0.00,,---,0.00,0.00,VWS V14.00,2013-04-28 00:03:00,
2013-04-27 20:04:00,71.0,61.5,30.17,ENE,74,9.0,10.0,72,0.00,,---,0.00,0.00,VWS V14.00,2013-04-28 00:04:00,
2013-04-27 20:05:00,70.9,61.8,30.17,ENE,70,7.0,10.0,73,0.00,,---,0.00,0.00,VWS V14.00,2013-04-28 00:05:00,
2013-04-27 20:06:00,70.8,61.3,30.17,ENE,68,8.0,11.0,72,0.00,,---,0.00,0.00,VWS V14.00,2013-04-28 00:06:00,
2013-04-27 20:07:00,70.8,61.7,30.17,ENE,71,5.0,11.0,73,0.00,,---,0.00,0.00,VWS V14.00,2013-04-28 00:07:00,
2013-04-27 20:08:00,70.8,62.1,30.17,ENE,76,8.0,11.0,74,0.00,,---,0.00,0.00,VWS V14.00,2013-04-28 00:08:00,
2013-04-27 20:09:00,70.8,62.1,30.17,ENE,61,8.0,11.0,74,0.00,,---,0.00,0.00,VWS V14.00,2013-04-28 00:09:00,
2013-04-27 20:10:00,70.8,62.1,30.17,ENE,78,7.0,11.0,74,0.00,,---,0.00,0.00,VWS V14.00,2013-04-28 00:10:00,
2013-04-27 20:11:00,70.8,62.1,30.17,ENE,69,9.0,11.0,74,0.00,,---,0.00,0.00,VWS V14.00,2013-04-28 00:11:00,
2013-04-27 20:12:00,70.7,62.0,30.17,ENE,63,9.0,11.0,74,0.00,,---,0.00,0.00,VWS V14.00,2013-04-28 00:12:00,
2013-04-27 20:13:00,70.6,61.9,30.17,ENE,73,9.0,11.0,74,0.00,,---,0.00,0.00,VWS V14.00,2013-04-28 00:13:00,
2013-04-27 20:14:00,70.6,61.9,30.17,ENE,66,9.0,11.0,74,0.00,,---,0.00,0.00,VWS V14.00,2013-04-28 00:14:00,
2013-04-27 20:15:00,70.6,61.9,30.17,ENE,73,7.0,11.0,74,0.00,,---,0.00,0.00,VWS V14.00,2013-04-28 00:15:00,
2013-04-27 20:16:00,70.5,62.2,30.17,ENE,77,7.0,11.0,75,0.00,,---,0.00,0.00,VWS V14.00,2013-04-28 00:16:00,
2013-04-27 20:17:00,70.5,62.2,30.17,ENE,68,9.0,11.0,75,0.00,,---,0.00,0.00,VWS V14.00,2013-04-28 00:17:00,
2013-04-27 20:18:00,70.5,62.2,30.17,ENE,76,8.0,11.0,75,0.00,,---,0.00,0.00,VWS V14.00,2013-04-28 00:18:00,
2013-04-27 20:19:00,70.5,62.6,30.17,ENE,73,7.0,11.0,76,0.00,,---,0.00,0.00,VWS V14.00,2013-04-28 00:19:00,
2013-04-27 20:20:00,70.4,62.5,30.17,ENE,69,6.0,11.0,76,0.00,,---,0.00,0.00,VWS V14.00,2013-04-28 00:20:00,
2013-04-27 20:21:00,70.4,62.1,30.17,ENE,71,8.0,11.0,75,0.00,,---,0.00,0.00,VWS V14.00,2013-04-28 00:21:00,
2013-04-27 20:22:00,70.4,62.1,30.17,ENE,62,8.0,11.0,75,0.00,,---,0.00,0.00,VWS V14.00,2013-04-28 00:22:00,
2013-04-27 20:23:00,70.3,62.0,30.17,ENE,74,5.0,11.0,75,0.00,,---,0.00,0.00,VWS V14.00,2013-04-28 00:23:00,
2013-04-27 20:24:00,70.4,62.8,30.17,ENE,60,6.0,11.0,77,0.00,,---,0.00,0.00,VWS V14.00,2013-04-28 00:24:00,
2013-04-27 20:25:00,70.3,62.4,30.17,ENE,69,7.0,11.0,76,0.00,,---,0.00,0.00,VWS V14.00,2013-04-28 00:25:00,
2013-04-27 20:26:00,70.3,62.4,30.17,ENE,58,5.0,11.0,76,0.00,,---,0.00,0.00,VWS V14.00,2013-04-28 00:26:00,
2013-04-27 20:27:00,70.3,62.4,30.17,NE,53,7.0,11.0,76,0.00,,---,0.00,0.00,VWS V14.00,2013-04-28 00:27:00,
2013-04-27 20:28:00,70.3,62.4,30.17,ENE,62,7.0,11.0,76,0.00,,---,0.00,0.00,VWS V14.00,2013-04-28 00:28:00,
2013-04-27 20:29:00,70.2,62.7,30.17,ENE,58,10.0,11.0,77,0.00,,---,0.00,0.00,VWS V14.00,2013-04-28 00:29:00,
2013-04-27 20:30:00,70.1,62.2,30.17,NE,56,12.0,12.0,76,0.00,,---,0.00,0.00,VWS V14.00,2013-04-28 00:30:00,
2013-04-27 20:31:00,70.1,62.2,30.17,ENE,62,9.0,13.0,76,0.00,,---,0.00,0.00,VWS V14.00,2013-04-28 00:31:00,
2013-04-27 20:32:00,70.0,62.1,30.17,ENE,57,9.0,13.0,76,0.00,,---,0.00,0.00,VWS V14.00,2013-04-28 00:32:00,
2013-04-27 20:33:00,70.0,62.5,30.17,ENE,58,8.0,13.0,77,0.00,,---,0.00,0.00,VWS V14.00,2013-04-28 00:33:00,
2013-04-27 20:34:00,69.9,62.4,30.17,ENE,67,9.0,13.0,77,0.00,,---,0.00,0.00,VWS V14.00,2013-04-28 00:34:00,
2013-04-27 20:35:00,69.9,62.4,30.17,NE,47,7.0,13.0,77,0.00,,---,0.00,0.00,VWS V14.00,2013-04-28 00:35:00,
2013-04-27 20:36:00,69.9,62.7,30.17,ENE,66,8.0,13.0,78,0.00,,---,0.00,0.00,VWS V14.00,2013-04-28 00:36:00,
2013-04-27 20:37:00,69.8,62.6,30.17,ENE,65,9.0,13.0,78,0.00,,---,0.00,0.00,VWS V14.00,2013-04-28 00:37:00,
2013-04-27 20:38:00,69.8,62.6,30.17,ENE,59,11.0,13.0,78,0.00,,---,0.00,0.00,VWS V14.00,2013-04-28 00:38:00,
2013-04-27 20:39:00,69.7,62.9,30.17,ENE,58,9.0,13.0,79,0.00,,---,0.00,0.00,VWS V14.00,2013-04-28 00:39:00,
2013-04-27 20:40:00,69.7,62.9,30.17,ENE,67,10.0,13.0,79,0.00,,---,0.00,0.00,VWS V14.00,2013-04-28 00:40:00,
2013-04-27 20:41:00,69.6,62.8,30.17,ENE,67,6.0,13.0,79,0.00,,---,0.00,0.00,VWS V14.00,2013-04-28 00:41:00,
2013-04-27 20:42:00,69.6,62.8,30.17,ENE,62,9.0,13.0,79,0.00,,---,0.00,0.00,VWS V14.00,2013-04-28 00:42:00,
2013-04-27 20:43:00,69.5,62.7,30.17,ENE,69,6.0,13.0,79,0.00,,---,0.00,0.00,VWS V14.00,2013-04-28 00:43:00,
2013-04-27 20:44:00,69.5,62.7,30.17,ENE,60,6.0,13.0,79,0.00,,---,0.00,0.00,VWS V14.00,2013-04-28 00:44:00,
2013-04-27 20:45:00,69.5,62.7,30.17,ENE,68,7.0,13.0,79,0.00,,---,0.00,0.00,VWS V14.00,2013-04-28 00:45:00,
2013-04-27 20:46:00,69.4,63.0,30.17,NE,42,6.0,13.0,80,0.00,,---,0.00,0.00,VWS V14.00,2013-04-28 00:46:00,
2013-04-27 20:47:00,69.4,62.6,30.17,ENE,65,8.0,13.0,79,0.00,,---,0.00,0.00,VWS V14.00,2013-04-28 00:47:00,
2013-04-27 20:48:00,69.4,63.0,30.17,ENE,60,8.0,13.0,80,0.00,,---,0.00,0.00,VWS V14.00,2013-04-28 00:48:00,
2013-04-27 20:49:00,69.3,62.9,30.17,NE,52,7.0,13.0,80,0.00,,---,0.00,0.00,VWS V14.00,2013-04-28 00:49:00,
2013-04-27 20:50:00,69.3,62.9,30.18,NE,44,8.0,13.0,80,0.00,,---,0.00,0.00,VWS V14.00,2013-04-28 00:50:00,
2013-04-27 20:51:00,69.3,62.9,30.17,NE,56,5.0,13.0,80,0.00,,---,0.00,0.00,VWS V14.00,2013-04-28 00:51:00,
2013-04-27 20:52:00,69.2,62.8,30.17,ENE,63,7.0,13.0,80,0.00,,---,0.00,0.00,VWS V14.00,2013-04-28 00:52:00,
2013-04-27 20:53:00,69.2,63.1,30.18,ENE,67,6.0,13.0,81,0.00,,---,0.00,0.00,VWS V14.00,2013-04-28 00:53:00,
2013-04-27 20:54:00,69.2,63.1,30.18,ENE,62,7.0,13.0,81,0.00,,---,0.00,0.00,VWS V14.00,2013-04-28 00:54:00,
2013-04-27 20:55:00,69.2,62.8,30.18,NE,47,8.0,13.0,80,0.00,,---,0.00,0.00,VWS V14.00,2013-04-28 00:55:00,
2013-04-27 20:56:00,69.1,62.7,30.18,NE,55,11.0,13.0,80,0.00,,---,0.00,0.00,VWS V14.00,2013-04-28 00:56:00,
2013-04-27 20:57:00,69.1,62.7,30.18,NE,56,6.0,13.0,80,0.00,,---,0.00,0.00,VWS V14.00,2013-04-28 00:57:00,
2013-04-27 20:58:00,69.1,63.0,30.18,NE,51,8.0,13.0,81,0.00,,---,0.00,0.00,VWS V14.00,2013-04-28 00:58:00,
2013-04-27 20:59:00,69.1,63.0,30.18,ENE,70,7.0,13.0,81,0.00,,---,0.00,0.00,VWS V14.00,2013-04-28 00:59:00,
2013-04-27 21:00:00,69.1,63.0,30.18,NE,56,6.0,13.0,81,0.00,,---,0.00,0.00,VWS V14.00,2013-04-28 01:00:00,
2013-04-27 21:01:00,69.1,63.0,30.18,ENE,64,5.0,9.0,81,0.00,,---,0.00,0.00,VWS V14.00,2013-04-28 01:01:00,
2013-04-27 21:02:00,69.0,62.9,30.18,NE,56,8.0,10.0,81,0.00,,---,0.00,0.00,VWS V14.00,2013-04-28 01:02:00,
2013-04-27 21:03:00,69.0,62.9,30.18,NE,56,8.0,10.0,81,0.00,,---,0.00,0.00,VWS V14.00,2013-04-28 01:03:00,
2013-04-27 21:04:00,69.0,62.9,30.18,NE,49,9.0,10.0,81,0.00,,---,0.00,0.00,VWS V14.00,2013-04-28 01:04:00,
2013-04-27 21:05:00,68.9,62.8,30.18,ENE,66,6.0,10.0,81,0.00,,---,0.00,0.00,VWS V14.00,2013-04-28 01:05:00,
2013-04-27 21:06:00,68.9,62.8,30.18,ENE,70,6.0,10.0,81,0.00,,---,0.00,0.00,VWS V14.00,2013-04-28 01:06:00,
2013-04-27 21:07:00,68.9,62.8,30.18,ENE,65,6.0,10.0,81,0.00,,---,0.00,0.00,VWS V14.00,2013-04-28 01:07:00,
2013-04-27 21:08:00,68.9,62.8,30.18,NE,49,8.0,10.0,81,0.00,,---,0.00,0.00,VWS V14.00,2013-04-28 01:08:00,
2013-04-27 21:09:00,68.9,62.8,30.18,ENE,69,6.0,10.0,81,0.00,,---,0.00,0.00,VWS V14.00,2013-04-28 01:09:00,
2013-04-27 21:10:00,68.8,62.7,30.18,ENE,64,7.0,10.0,81,0.00,,---,0.00,0.00,VWS V14.00,2013-04-28 01:10:00,
2013-04-27 21:11:00,68.8,63.1,30.17,ENE,72,6.0,10.0,82,0.00,,---,0.00,0.00,VWS V14.00,2013-04-28 01:11:00,
2013-04-27 21:12:00,68.8,63.1,30.18,NE,48,7.0,10.0,82,0.00,,---,0.00,0.00,VWS V14.00,2013-04-28 01:12:00,
2013-04-27 21:13:00,68.8,63.1,30.18,ENE,60,8.0,11.0,82,0.00,,---,0.00,0.00,VWS V14.00,2013-04-28 01:13:00,
2013-04-27 21:14:00,68.7,62.6,30.17,NE,49,5.0,11.0,81,0.00,,---,0.00,0.00,VWS V14.00,2013-04-28 01:14:00,
2013-04-27 21:15:00,68.7,62.6,30.17,ENE,62,5.0,11.0,81,0.00,,---,0.00,0.00,VWS V14.00,2013-04-28 01:15:00,
2013-04-27 21:16:00,68.7,63.0,30.18,ENE,58,8.0,11.0,82,0.00,,---,0.00,0.00,VWS V14.00,2013-04-28 01:16:00,
2013-04-27 21:17:00,68.7,63.0,30.18,ENE,60,7.0,11.0,82,0.00,,---,0.00,0.00,VWS V14.00,2013-04-28 01:17:00,
2013-04-27 21:18:00,68.7,63.0,30.18,ENE,58,6.0,11.0,82,0.00,,---,0.00,0.00,VWS V14.00,2013-04-28 01:18:00,
2013-04-27 21:19:00,68.6,62.5,30.18,ENE,58,6.0,11.0,81,0.00,,---,0.00,0.00,VWS V14.00,2013-04-28 01:19:00,
2013-04-27 21:20:00,68.7,63.0,30.18,NE,56,5.0,11.0,82,0.00,,---,0.00,0.00,VWS V14.00,2013-04-28 01:20:00,
2013-04-27 21:21:00,68.6,62.9,30.18,NE,47,5.0,11.0,82,0.00,,---,0.00,0.00,VWS V14.00,2013-04-28 01:21:00,
2013-04-27 21:22:00,68.6,62.9,30.18,NE,52,7.0,11.0,82,0.00,,---,0.00,0.00,VWS V14.00,2013-04-28 01:22:00,
2013-04-27 21:23:00,68.6,62.9,30.18,ENE,57,6.0,11.0,82,0.00,,---,0.00,0.00,VWS V14.00,2013-04-28 01:23:00,
2013-04-27 21:24:00,68.6,62.9,30.18,NE,56,6.0,11.0,82,0.00,,---,0.00,0.00,VWS V14.00,2013-04-28 01:24:00,
2013-04-27 21:25:00,68.6,62.9,30.18,NE,50,5.0,11.0,82,0.00,,---,0.00,0.00,VWS V14.00,2013-04-28 01:25:00,
2013-04-27 21:26:00,68.6,62.9,30.18,NE,50,5.0,11.0,82,0.00,,---,0.00,0.00,VWS V14.00,2013-04-28 01:26:00,
2013-04-27 21:27:00,68.6,62.9,30.18,NE,50,5.0,11.0,82,0.00,,---,0.00,0.00,VWS V14.00,2013-04-28 01:27:00,
2013-04-27 21:28:00,68.6,62.9,30.18,ENE,58,4.0,11.0,82,0.00,,---,0.00,0.00,VWS V14.00,2013-04-28 01:28:00,
2013-04-27 21:29:00,68.5,62.8,30.18,ENE,60,6.0,11.0,82,0.00,,---,0.00,0.00,VWS V14.00,2013-04-28 01:29:00,
2013-04-27 21:30:00,68.5,62.8,30.18,ENE,60,5.0,11.0,82,0.00,,---,0.00,0.00,VWS V14.00,2013-04-28 01:30:00,
2013-04-27 21:31:00,68.5,62.8,30.18,ENE,72,5.0,6.0,82,0.00,,---,0.00,0.00,VWS V14.00,2013-04-28 01:31:00,
2013-04-27 21:32:00,68.5,62.8,30.18,ENE,72,4.0,6.0,82,0.00,,---,0.00,0.00,VWS V14.00,2013-04-28 01:32:00,
2013-04-27 21:33:00,68.5,62.8,30.18,ENE,69,5.0,7.0,82,0.00,,---,0.00,0.00,VWS V14.00,2013-04-28 01:33:00,
2013-04-27 21:34:00,68.5,62.8,30.18,ENE,63,4.0,7.0,82,0.00,,---,0.00,0.00,VWS V14.00,2013-04-28 01:34:00,
2013-04-27 21:35:00,68.5,62.8,30.18,ENE,63,5.0,7.0,82,0.00,,---,0.00,0.00,VWS V14.00,2013-04-28 01:35:00,
2013-04-27 21:36:00,68.4,62.7,30.18,ENE,62,5.0,7.0,82,0.00,,---,0.00,0.00,VWS V14.00,2013-04-28 01:36:00,
2013-04-27 21:37:00,68.4,62.7,30.18,ENE,73,6.0,7.0,82,0.00,,---,0.00,0.00,VWS V14.00,2013-04-28 01:37:00,
2013-04-27 21:38:00,68.4,62.7,30.18,ENE,68,7.0,7.0,82,0.00,,---,0.00,0.00,VWS V14.00,2013-04-28 01:38:00,
2013-04-27 21:39:00,68.4,62.7,30.18,ENE,63,4.0,7.0,82,0.00,,---,0.00,0.00,VWS V14.00,2013-04-28 01:39:00,
2013-04-27 21:40:00,68.4,62.7,30.18,ENE,64,4.0,7.0,82,0.00,,---,0.00,0.00,VWS V14.00,2013-04-28 01:40:00,
2013-04-27 21:41:00,68.4,63.0,30.18,NE,53,6.0,7.0,83,0.00,,---,0.00,0.00,VWS V14.00,2013-04-28 01:41:00,
2013-04-27 21:42:00,68.3,62.6,30.18,NE,53,5.0,7.0,82,0.00,,---,0.00,0.00,VWS V14.00,2013-04-28 01:42:00,
2013-04-27 21:43:00,68.4,63.0,30.18,ENE,60,7.0,9.0,83,0.00,,---,0.00,0.00,VWS V14.00,2013-04-28 01:43:00,
2013-04-27 21:44:00,68.3,62.9,30.18,ENE,60,6.0,9.0,83,0.00,,---,0.00,0.00,VWS V14.00,2013-04-28 01:44:00,
2013-04-27 21:45:00,68.3,62.9,30.18,ENE,63,6.0,9.0,83,0.00,,---,0.00,0.00,VWS V14.00,2013-04-28 01:45:00,
2013-04-27 21:46:00,68.3,62.9,30.18,ENE,63,4.0,9.0,83,0.00,,---,0.00,0.00,VWS V14.00,2013-04-28 01:46:00,
2013-04-27 21:47:00,68.3,62.9,30.18,ENE,63,3.0,9.0,83,0.00,,---,0.00,0.00,VWS V14.00,2013-04-28 01:47:00,
2013-04-27 21:48:00,68.3,62.9,30.19,ENE,63,4.0,9.0,83,0.00,,---,0.00,0.00,VWS V14.00,2013-04-28 01:48:00,
2013-04-27 21:49:00,68.3,62.9,30.18,ENE,62,6.0,9.0,83,0.00,,---,0.00,0.00,VWS V14.00,2013-04-28 01:49:00,
2013-04-27 21:50:00,68.3,62.9,30.19,ENE,57,4.0,9.0,83,0.00,,---,0.00,0.00,VWS V14.00,2013-04-28 01:50:00,
2013-04-27 21:51:00,68.3,62.9,30.18,ENE,57,4.0,9.0,83,0.00,,---,0.00,0.00,VWS V14.00,2013-04-28 01:51:00,
2013-04-27 21:52:00,68.3,62.9,30.18,ENE,57,5.0,9.0,83,0.00,,---,0.00,0.00,VWS V14.00,2013-04-28 01:52:00,
2013-04-27 21:53:00,68.3,62.9,30.18,ENE,57,4.0,9.0,83,0.00,,---,0.00,0.00,VWS V14.00,2013-04-28 01:53:00,
2013-04-27 21:54:00,68.3,62.9,30.18,ENE,57,4.0,9.0,83,0.00,,---,0.00,0.00,VWS V14.00,2013-04-28 01:54:00,
2013-04-27 21:55:00,68.3,63.3,30.18,ENE,57,5.0,9.0,84,0.00,,---,0.00,0.00,VWS V14.00,2013-04-28 01:55:00,
2013-04-27 21:56:00,68.3,63.3,30.18,ENE,57,5.0,9.0,84,0.00,,---,0.00,0.00,VWS V14.00,2013-04-28 01:56:00,
2013-04-27 21:57:00,68.3,63.3,30.18,ENE,57,5.0,9.0,84,0.00,,---,0.00,0.00,VWS V14.00,2013-04-28 01:57:00,
2013-04-27 21:58:00,68.3,63.3,30.18,ENE,57,3.0,9.0,84,0.00,,---,0.00,0.00,VWS V14.00,2013-04-28 01:58:00,
2013-04-27 21:59:00,68.3,63.3,30.18,ENE,57,4.0,9.0,84,0.00,,---,0.00,0.00,VWS V14.00,2013-04-28 01:59:00,
2013-04-27 22:00:00,68.3,63.3,30.18,ENE,57,4.0,9.0,84,0.00,,---,0.00,0.00,VWS V14.00,2013-04-28 02:00:00,
2013-04-27 22:01:00,68.3,63.3,30.18,ENE,57,4.0,4.0,84,0.00,,---,0.00,0.00,VWS V14.00,2013-04-28 02:01:00,
2013-04-27 22:02:00,68.3,63.3,30.18,ENE,57,3.0,6.0,84,0.00,,---,0.00,0.00,VWS V14.00,2013-04-28 02:02:00,
2013-04-27 22:03:00,68.3,63.3,30.18,ENE,68,3.0,6.0,84,0.00,,---,0.00,0.00,VWS V14.00,2013-04-28 02:03:00,
2013-04-27 22:04:00,68.3,63.3,30.18,ENE,70,5.0,6.0,84,0.00,,---,0.00,0.00,VWS V14.00,2013-04-28 02:04:00,
2013-04-27 22:05:00,68.3,63.3,30.18,ENE,69,4.0,6.0,84,0.00,,---,0.00,0.00,VWS V14.00,2013-04-28 02:05:00,
2013-04-27 22:06:00,68.3,63.3,30.18,ENE,69,4.0,6.0,84,0.00,,---,0.00,0.00,VWS V14.00,2013-04-28 02:06:00,
2013-04-27 22:07:00,68.3,63.3,30.19,ENE,69,5.0,7.0,84,0.00,,---,0.00,0.00,VWS V14.00,2013-04-28 02:07:00,
2013-04-27 22:08:00,68.3,63.3,30.18,ENE,69,3.0,7.0,84,0.00,,---,0.00,0.00,VWS V14.00,2013-04-28 02:08:00,
2013-04-27 22:09:00,68.3,63.3,30.18,ENE,69,5.0,7.0,84,0.00,,---,0.00,0.00,VWS V14.00,2013-04-28 02:09:00,
2013-04-27 22:10:00,68.2,63.2,30.18,ENE,68,4.0,7.0,84,0.00,,---,0.00,0.00,VWS V14.00,2013-04-28 02:10:00,
2013-04-27 22:11:00,68.2,63.2,30.18,ENE,68,5.0,7.0,84,0.00,,---,0.00,0.00,VWS V14.00,2013-04-28 02:11:00,
2013-04-27 22:12:00,68.2,63.2,30.18,ENE,68,5.0,7.0,84,0.00,,---,0.00,0.00,VWS V14.00,2013-04-28 02:12:00,
2013-04-27 22:13:00,68.2,63.5,30.18,ENE,68,4.0,7.0,85,0.00,,---,0.00,0.00,VWS V14.00,2013-04-28 02:13:00,
2013-04-27 22:14:00,68.2,63.5,30.19,ENE,62,7.0,7.0,85,0.00,,---,0.00,0.00,VWS V14.00,2013-04-28 02:14:00,
2013-04-27 22:15:00,68.2,63.5,30.18,ENE,64,5.0,7.0,85,0.00,,---,0.00,0.00,VWS V14.00,2013-04-28 02:15:00,
2013-04-27 22:16:00,68.2,63.5,30.18,ENE,73,7.0,10.0,85,0.00,,---,0.00,0.00,VWS V14.00,2013-04-28 02:16:00,
2013-04-27 22:17:00,68.2,63.5,30.18,ENE,73,4.0,10.0,85,0.00,,---,0.00,0.00,VWS V14.00,2013-04-28 02:17:00,
2013-04-27 22:18:00,68.2,63.5,30.18,ENE,77,6.0,10.0,85,0.00,,---,0.00,0.00,VWS V14.00,2013-04-28 02:18:00,
2013-04-27 22:19:00,68.2,63.5,30.18,ENE,72,5.0,10.0,85,0.00,,---,0.00,0.00,VWS V14.00,2013-04-28 02:19:00,
2013-04-27 22:20:00,68.2,63.5,30.18,ENE,68,6.0,10.0,85,0.00,,---,0.00,0.00,VWS V14.00,2013-04-28 02:20:00,
2013-04-27 22:21:00,68.2,63.5,30.18,ENE,66,5.0,10.0,85,0.00,,---,0.00,0.00,VWS V14.00,2013-04-28 02:21:00,
2013-04-27 22:22:00,68.3,63.6,30.18,ENE,62,7.0,10.0,85,0.00,,---,0.00,0.00,VWS V14.00,2013-04-28 02:22:00,
2013-04-27 22:23:00,68.2,63.5,30.18,NE,53,7.0,10.0,85,0.00,,---,0.00,0.00,VWS V14.00,2013-04-28 02:23:00,
2013-04-27 22:24:00,68.2,63.5,30.18,ENE,66,7.0,10.0,85,0.00,,---,0.00,0.00,VWS V14.00,2013-04-28 02:24:00,
2013-04-27 22:25:00,68.2,63.5,30.18,ENE,60,8.0,10.0,85,0.00,,---,0.00,0.00,VWS V14.00,2013-04-28 02:25:00,
2013-04-27 22:26:00,68.2,63.5,30.18,ENE,66,3.0,10.0,85,0.00,,---,0.00,0.00,VWS V14.00,2013-04-28 02:26:00,
2013-04-27 22:27:00,68.2,63.9,30.18,ENE,67,6.0,10.0,86,0.00,,---,0.00,0.00,VWS V14.00,2013-04-28 02:27:00,
2013-04-27 22:28:00,68.2,63.9,30.18,ENE,62,6.0,10.0,86,0.00,,---,0.00,0.00,VWS V14.00,2013-04-28 02:28:00,
2013-04-27 22:29:00,68.2,63.5,30.18,ENE,71,6.0,10.0,85,0.00,,---,0.00,0.00,VWS V14.00,2013-04-28 02:29:00,
2013-04-27 22:30:00,68.2,63.5,30.18,ENE,74,5.0,10.0,85,0.00,,---,0.00,0.00,VWS V14.00,2013-04-28 02:30:00,
2013-04-27 22:31:00,68.2,63.9,30.18,ENE,58,4.0,7.0,86,0.00,,---,0.00,0.00,VWS V14.00,2013-04-28 02:31:00,
2013-04-27 22:32:00,68.2,63.5,30.18,ENE,58,9.0,9.0,85,0.00,,---,0.00,0.00,VWS V14.00,2013-04-28 02:32:00,
2013-04-27 22:33:00,68.2,63.5,30.18,ENE,61,6.0,9.0,85,0.00,,---,0.00,0.00,VWS V14.00,2013-04-28 02:33:00,
2013-04-27 22:34:00,68.2,63.9,30.18,ENE,68,3.0,9.0,86,0.00,,---,0.00,0.00,VWS V14.00,2013-04-28 02:34:00,
2013-04-27 22:35:00,68.2,63.9,30.18,ENE,58,5.0,9.0,86,0.00,,---,0.00,0.00,VWS V14.00,2013-04-28 02:35:00,
2013-04-27 22:36:00,68.2,63.9,30.18,ENE,76,6.0,9.0,86,0.00,,---,0.00,0.00,VWS V14.00,2013-04-28 02:36:00,
2013-04-27 22:37:00,68.2,63.9,30.18,ENE,62,6.0,9.0,86,0.00,,---,0.00,0.00,VWS V14.00,2013-04-28 02:37:00,
2013-04-27 22:38:00,68.3,64.0,30.18,ENE,62,5.0,9.0,86,0.00,,---,0.00,0.00,VWS V14.00,2013-04-28 02:38:00,
2013-04-27 22:39:00,68.3,64.0,30.18,ENE,73,6.0,9.0,86,0.00,,---,0.00,0.00,VWS V14.00,2013-04-28 02:39:00,
2013-04-27 22:40:00,68.3,64.0,30.18,ENE,70,5.0,9.0,86,0.00,,---,0.00,0.00,VWS V14.00,2013-04-28 02:40:00,
2013-04-27 22:41:00,68.3,64.0,30.18,ENE,70,4.0,9.0,86,0.00,,---,0.00,0.00,VWS V14.00,2013-04-28 02:41:00,
2013-04-27 22:42:00,68.3,64.0,30.18,ENE,70,5.0,9.0,86,0.00,,---,0.00,0.00,VWS V14.00,2013-04-28 02:42:00,
2013-04-27 22:43:00,68.3,64.0,30.18,ENE,60,4.0,9.0,86,0.00,,---,0.00,0.00,VWS V14.00,2013-04-28 02:43:00,
2013-04-27 22:44:00,68.3,64.0,30.18,ENE,62,5.0,9.0,86,0.00,,---,0.00,0.00,VWS V14.00,2013-04-28 02:44:00,
2013-04-27 22:45:00,68.4,64.1,30.18,ENE,74,7.0,9.0,86,0.00,,---,0.00,0.00,VWS V14.00,2013-04-28 02:45:00,
2013-04-27 22:46:00,68.3,64.0,30.18,ENE,69,5.0,9.0,86,0.00,,---,0.00,0.00,VWS V14.00,2013-04-28 02:46:00,
2013-04-27 22:47:00,68.3,64.0,30.18,ENE,66,9.0,9.0,86,0.00,,---,0.00,0.00,VWS V14.00,2013-04-28 02:47:00,
2013-04-27 22:48:00,68.4,64.1,30.18,ENE,64,7.0,10.0,86,0.00,,---,0.00,0.00,VWS V14.00,2013-04-28 02:48:00,
2013-04-27 22:49:00,68.3,64.0,30.18,ENE,66,6.0,10.0,86,0.00,,---,0.00,0.00,VWS V14.00,2013-04-28 02:49:00,
2013-04-27 22:50:00,68.4,64.1,30.18,ENE,69,6.0,10.0,86,0.00,,---,0.00,0.00,VWS V14.00,2013-04-28 02:50:00,
2013-04-27 22:51:00,68.4,64.1,30.18,ENE,77,5.0,10.0,86,0.00,,---,0.00,0.00,VWS V14.00,2013-04-28 02:51:00,
2013-04-27 22:52:00,68.4,64.1,30.18,ENE,77,5.0,10.0,86,0.00,,---,0.00,0.00,VWS V14.00,2013-04-28 02:52:00,
2013-04-27 22:53:00,68.4,64.1,30.18,ENE,77,5.0,10.0,86,0.00,,---,0.00,0.00,VWS V14.00,2013-04-28 02:53:00,
2013-04-27 22:54:00,68.4,64.1,30.18,ENE,77,6.0,10.0,86,0.00,,---,0.00,0.00,VWS V14.00,2013-04-28 02:54:00,
2013-04-27 22:55:00,68.4,64.1,30.18,East,86,7.0,10.0,86,0.00,,---,0.00,0.00,VWS V14.00,2013-04-28 02:55:00,
2013-04-27 22:56:00,68.5,64.2,30.18,East,85,6.0,10.0,86,0.00,,---,0.00,0.00,VWS V14.00,2013-04-28 02:56:00,
2013-04-27 22:57:00,68.5,64.2,30.18,ENE,73,6.0,10.0,86,0.00,,---,0.00,0.00,VWS V14.00,2013-04-28 02:57:00,
2013-04-27 22:58:00,68.4,64.1,30.18,ENE,77,7.0,10.0,86,0.00,,---,0.00,0.00,VWS V14.00,2013-04-28 02:58:00,
2013-04-27 22:59:00,68.4,64.1,30.18,ENE,66,6.0,10.0,86,0.00,,---,0.00,0.00,VWS V14.00,2013-04-28 02:59:00,
2013-04-27 23:00:00,68.5,64.2,30.18,East,83,7.0,10.0,86,0.00,,---,0.00,0.00,VWS V14.00,2013-04-28 03:00:00,
2013-04-27 23:01:00,68.5,64.2,30.18,East,83,5.0,7.0,86,0.00,,---,0.00,0.00,VWS V14.00,2013-04-28 03:01:00,
2013-04-27 23:02:00,68.5,64.2,30.18,East,83,5.0,7.0,86,0.00,,---,0.00,0.00,VWS V14.00,2013-04-28 03:02:00,
2013-04-27 23:03:00,68.5,63.8,30.18,ENE,66,5.0,7.0,85,0.00,,---,0.00,0.00,VWS V14.00,2013-04-28 03:03:00,
2013-04-27 23:04:00,68.5,64.2,30.18,ENE,66,5.0,7.0,86,0.00,,---,0.00,0.00,VWS V14.00,2013-04-28 03:04:00,
2013-04-27 23:05:00,68.5,64.2,30.18,ENE,66,4.0,7.0,86,0.00,,---,0.00,0.00,VWS V14.00,2013-04-28 03:05:00,
2013-04-27 23:06:00,68.5,64.2,30.18,East,79,4.0,7.0,86,0.00,,---,0.00,0.00,VWS V14.00,2013-04-28 03:06:00,
2013-04-27 23:07:00,68.5,63.8,30.18,East,79,5.0,7.0,85,0.00,,---,0.00,0.00,VWS V14.00,2013-04-28 03:07:00,
2013-04-27 23:08:00,68.5,63.8,30.18,ENE,78,6.0,7.0,85,0.00,,---,0.00,0.00,VWS V14.00,2013-04-28 03:08:00,
2013-04-27 23:09:00,68.5,63.8,30.18,ENE,78,4.0,7.0,85,0.00,,---,0.00,0.00,VWS V14.00,2013-04-28 03:09:00,
2013-04-27 23:10:00,68.5,63.8,30.18,ENE,78,5.0,7.0,85,0.00,,---,0.00,0.00,VWS V14.00,2013-04-28 03:10:00,
2013-04-27 23:11:00,68.5,63.8,30.18,ENE,77,5.0,8.0,85,0.00,,---,0.00,0.00,VWS V14.00,2013-04-28 03:11:00,
2013-04-27 23:12:00,68.5,63.8,30.18,ENE,75,7.0,8.0,85,0.00,,---,0.00,0.00,VWS V14.00,2013-04-28 03:12:00,
2013-04-27 23:13:00,68.5,63.8,30.18,ENE,72,5.0,8.0,85,0.00,,---,0.00,0.00,VWS V14.00,2013-04-28 03:13:00,
2013-04-27 23:14:00,68.5,63.8,30.18,ENE,65,5.0,8.0,85,0.00,,---,0.00,0.00,VWS V14.00,2013-04-28 03:14:00,
2013-04-27 23:15:00,68.5,63.8,30.18,ENE,64,6.0,8.0,85,0.00,,---,0.00,0.00,VWS V14.00,2013-04-28 03:15:00,
2013-04-27 23:16:00,68.5,63.8,30.18,ENE,65,4.0,8.0,85,0.00,,---,0.00,0.00,VWS V14.00,2013-04-28 03:16:00,
2013-04-27 23:17:00,68.5,63.8,30.18,ENE,67,5.0,8.0,85,0.00,,---,0.00,0.00,VWS V14.00,2013-04-28 03:17:00,
2013-04-27 23:18:00,68.5,63.8,30.18,ENE,66,4.0,8.0,85,0.00,,---,0.00,0.00,VWS V14.00,2013-04-28 03:18:00,
2013-04-27 23:19:00,68.5,63.8,30.18,ENE,66,7.0,8.0,85,0.00,,---,0.00,0.00,VWS V14.00,2013-04-28 03:19:00,
2013-04-27 23:20:00,68.5,63.8,30.18,ENE,66,4.0,8.0,85,0.00,,---,0.00,0.00,VWS V14.00,2013-04-28 03:20:00,
2013-04-27 23:21:00,68.5,63.8,30.18,ENE,66,7.0,8.0,85,0.00,,---,0.00,0.00,VWS V14.00,2013-04-28 03:21:00,
2013-04-27 23:22:00,68.5,63.5,30.18,ENE,67,5.0,8.0,84,0.00,,---,0.00,0.00,VWS V14.00,2013-04-28 03:22:00,
2013-04-27 23:23:00,68.5,63.5,30.18,ENE,67,3.0,8.0,84,0.00,,---,0.00,0.00,VWS V14.00,2013-04-28 03:23:00,
2013-04-27 23:24:00,68.5,63.5,30.18,ENE,67,3.0,8.0,84,0.00,,---,0.00,0.00,VWS V14.00,2013-04-28 03:24:00,
2013-04-27 23:25:00,68.5,63.5,30.18,ENE,67,3.0,8.0,84,0.00,,---,0.00,0.00,VWS V14.00,2013-04-28 03:25:00,
2013-04-27 23:26:00,68.5,63.5,30.18,ENE,67,3.0,8.0,84,0.00,,---,0.00,0.00,VWS V14.00,2013-04-28 03:26:00,
2013-04-27 23:27:00,68.5,63.5,30.18,ENE,67,4.0,8.0,84,0.00,,---,0.00,0.00,VWS V14.00,2013-04-28 03:27:00,
2013-04-27 23:28:00,68.5,63.5,30.18,ENE,67,4.0,8.0,84,0.00,,---,0.00,0.00,VWS V14.00,2013-04-28 03:28:00,
2013-04-27 23:29:00,68.6,63.6,30.18,ENE,67,5.0,8.0,84,0.00,,---,0.00,0.00,VWS V14.00,2013-04-28 03:29:00,
2013-04-27 23:30:00,68.5,63.5,30.18,ENE,67,4.0,8.0,84,0.00,,---,0.00,0.00,VWS V14.00,2013-04-28 03:30:00,
2013-04-27 23:31:00,68.5,63.5,30.18,ENE,67,5.0,5.0,84,0.00,,---,0.00,0.00,VWS V14.00,2013-04-28 03:31:00,
2013-04-27 23:32:00,68.5,63.5,30.18,ENE,67,4.0,5.0,84,0.00,,---,0.00,0.00,VWS V14.00,2013-04-28 03:32:00,
2013-04-27 23:33:00,68.5,63.5,30.18,ENE,67,3.0,5.0,84,0.00,,---,0.00,0.00,VWS V14.00,2013-04-28 03:33:00,
2013-04-27 23:34:00,68.5,63.5,30.18,ENE,67,2.0,5.0,84,0.00,,---,0.00,0.00,VWS V14.00,2013-04-28 03:34:00,
2013-04-27 23:35:00,68.4,63.4,30.18,ENE,67,4.0,5.0,84,0.00,,---,0.00,0.00,VWS V14.00,2013-04-28 03:35:00,
2013-04-27 23:36:00,68.4,63.4,30.18,ENE,67,3.0,5.0,84,0.00,,---,0.00,0.00,VWS V14.00,2013-04-28 03:36:00,
2013-04-27 23:37:00,68.4,63.4,30.18,ENE,67,4.0,5.0,84,0.00,,---,0.00,0.00,VWS V14.00,2013-04-28 03:37:00,
2013-04-27 23:38:00,68.4,63.4,30.18,ENE,67,3.0,5.0,84,0.00,,---,0.00,0.00,VWS V14.00,2013-04-28 03:38:00,
2013-04-27 23:39:00,68.4,63.4,30.18,ENE,67,3.0,5.0,84,0.00,,---,0.00,0.00,VWS V14.00,2013-04-28 03:39:00,
2013-04-27 23:40:00,68.4,63.4,30.18,ENE,67,3.0,5.0,84,0.00,,---,0.00,0.00,VWS V14.00,2013-04-28 03:40:00,
2013-04-27 23:41:00,68.4,63.7,30.18,ENE,67,2.0,5.0,85,0.00,,---,0.00,0.00,VWS V14.00,2013-04-28 03:41:00,
2013-04-27 23:42:00,68.4,63.7,30.18,ENE,67,3.0,5.0,85,0.00,,---,0.00,0.00,VWS V14.00,2013-04-28 03:42:00,
2013-04-27 23:43:00,68.4,63.7,30.18,ENE,67,3.0,5.0,85,0.00,,---,0.00,0.00,VWS V14.00,2013-04-28 03:43:00,
2013-04-27 23:44:00,68.4,63.7,30.18,ENE,67,4.0,5.0,85,0.00,,---,0.00,0.00,VWS V14.00,2013-04-28 03:44:00,
2013-04-27 23:45:00,68.4,63.7,30.18,ENE,67,3.0,5.0,85,0.00,,---,0.00,0.00,VWS V14.00,2013-04-28 03:45:00,
2013-04-27 23:46:00,68.4,63.7,30.18,ENE,67,3.0,5.0,85,0.00,,---,0.00,0.00,VWS V14.00,2013-04-28 03:46:00,
2013-04-27 23:47:00,68.4,63.7,30.18,ENE,67,3.0,6.0,85,0.00,,---,0.00,0.00,VWS V14.00,2013-04-28 03:47:00,
2013-04-27 23:48:00,68.4,63.7,30.18,ENE,67,3.0,6.0,85,0.00,,---,0.00,0.00,VWS V14.00,2013-04-28 03:48:00,
2013-04-27 23:49:00,68.4,63.7,30.18,ENE,67,5.0,6.0,85,0.00,,---,0.00,0.00,VWS V14.00,2013-04-28 03:49:00,
2013-04-27 23:50:00,68.4,63.4,30.18,ENE,67,4.0,6.0,84,0.00,,---,0.00,0.00,VWS V14.00,2013-04-28 03:50:00,
2013-04-27 23:51:00,68.5,63.5,30.18,ENE,67,3.0,6.0,84,0.00,,---,0.00,0.00,VWS V14.00,2013-04-28 03:51:00,
2013-04-27 23:52:00,68.5,63.5,30.18,ENE,67,4.0,6.0,84,0.00,,---,0.00,0.00,VWS V14.00,2013-04-28 03:52:00,
2013-04-27 23:53:00,68.5,63.5,30.18,ENE,67,3.0,6.0,84,0.00,,---,0.00,0.00,VWS V14.00,2013-04-28 03:53:00,
2013-04-27 23:54:00,68.5,63.8,30.18,ENE,67,3.0,6.0,85,0.00,,---,0.00,0.00,VWS V14.00,2013-04-28 03:54:00,
2013-04-27 23:55:00,68.5,63.5,30.18,ENE,67,3.0,6.0,84,0.00,,---,0.00,0.00,VWS V14.00,2013-04-28 03:55:00,
2013-04-27 23:56:00,68.5,63.5,30.17,ENE,68,4.0,6.0,84,0.00,,---,0.00,0.00,VWS V14.00,2013-04-28 03:56:00,
2013-04-27 23:57:00,68.5,63.5,30.18,ENE,73,5.0,6.0,84,0.00,,---,0.00,0.00,VWS V14.00,2013-04-28 03:57:00,
2013-04-27 23:58:00,68.5,63.5,30.17,East,79,3.0,6.0,84,0.00,,---,0.00,0.00,VWS V14.00,2013-04-28 03:58:00,
2013-04-27 23:59:00,68.6,63.6,30.17,East,79,2.0,6.0,84,0.00,,---,0.00,0.00,VWS V14.00,2013-04-28 03:59:00,